     2              OBSERVATION DATA    GPS                 RINEX VERSION / TYPE
ASRINEXO V2.9.7 UX USGS/MENLO_PARK 26-APR-01 16:31          PGM / RUN BY / DATE
                                                            COMMENT
BIT 2 OF LLI (+4) FLAGS DATA COLLECTED UNDER "AS" CONDITION COMMENT
BIT 2 OF LLI (+4) FLAGS DATA COLLECTED UNDER "AS" CONDITION COMMENT
BIT 2 OF LLI (+4) FLAGS DATA COLLECTED UNDER "AS" CONDITION COMMENT
BIT 2 OF LLI (+4) FLAGS DATA COLLECTED UNDER "AS" CONDITION COMMENT
BIT 2 OF LLI (+4) FLAGS DATA COLLECTED UNDER "AS" CONDITION COMMENT
BIT 2 OF LLI (+4) FLAGS DATA COLLECTED UNDER "AS" CONDITION COMMENT
BIT 2 OF LLI (+4) FLAGS DATA COLLECTED UNDER "AS" CONDITION COMMENT
BIT 2 OF LLI (+4) FLAGS DATA COLLECTED UNDER "AS" CONDITION COMMENT
Original Marker Name: law1 LAPW1_USGS                       COMMENT
Campaign Name: USGS Profiles                                COMMENT
4-Character Station Name: LAW1                              COMMENT
6-Character Antenna Code: DMRCHT                            COMMENT
Vertical Measurement Point: BCR                             COMMENT
Vertical Offset to Rinex Ref. Point: 0.0348                 COMMENT
Radial Measurement Point: ECF                               COMMENT
Radial Offset to Rinex Ref. Point: 0.1897                   COMMENT
Antenna Height from Field Measurement: 1.2010 m             COMMENT
Additional Antenna Identification Info.:                    COMMENT
Turborogue and Ashtech Choke Ring                           COMMENT
Original XYZ: -2354311.5155 -4703884.2581 3596705.8355      COMMENT
New XYZ position is based on association with SCEC monument COMMENT
E1F2J6T9+0011. Position of that monument is believed to be  COMMENT
valid to within 1 m horizontally; vertical accuracy         COMMENT
should be no worse than 3-times this value.                 COMMENT
                                                            COMMENT
Revised Rinex header created by UCSD GPS archive for        COMMENT
GSAC on 07-Jun-2001 (2001:158) 17:26:16 GMT                 COMMENT
For assistance contact dagnew@ucsd.edu                      COMMENT
or anderson@python.ucsd.edu                                 COMMENT
                                                            COMMENT
LAPW1                                                       MARKER NAME
CHS US GEOLOGICAL SURVEY                                    OBSERVER / AGENCY
LP019992809 ASHTECH Z-XII3 CD00                             REC # / TYPE / VERS
CR519993702 DORNE-MARGOL. TYPE T                            ANT # / TYPE
 -2354302.4751 -4703862.2615  3596685.1766                  APPROX POSITION XYZ
        1.1511        0.0000        0.0000                  ANTENNA: DELTA H/E/N
     1     1     0                                          WAVELENGTH FACT L1/2
     5    C1    L1    L2    P1    P2                        # / TYPES OF OBSERV
    30                                                      INTERVAL
  2001     4    23     0     1    0.000000                  TIME OF FIRST OBS
  2001     4    23    23    59    0.000000                  TIME OF LAST OBS
                                                            END OF HEADER
 01  4 23  0  1  0.0000000  0 10 21 17 26 23 03 14 06 15 29 22
  22000712.456   -20313702.834 9 -15816929.09547  22000711.674    22000720.9534
  20811592.831   -25179119.940 9 -19388039.64347  20811592.085    20811600.6834
  23423026.184    -8242543.776 8  -6407414.21445  23423025.897    23423035.3074
  20975223.021   -23085659.999 9 -17971670.93547  20975222.216    20975230.3414
  22537335.580   -15751042.210 8 -12234506.16046  22537334.968    22537344.3814
  24057925.583    -5165687.585 7  -3738987.09545  24057924.936    24057942.6174
  23522006.589   -11898418.693 8  -9083994.89946  23522006.143    23522020.6514
  20399303.583   -27468823.278 9 -21386778.79048  20399302.657    20399310.9274
  24259267.488    -2715941.962 7  -2074081.99845  24259267.330    24259288.0134
  24789994.903    -1432588.343 7  -1098155.93045  24789994.084    24790009.4654
 01  4 23  0  1 30.0000000  0 10 21 17 26 23 03 14 06 15 29 22
  21992534.164   -20356679.420 9 -15850417.27347  21992533.396    21992542.6604
  20815341.447   -25159421.014 9 -19372689.84247  20815340.709    20815349.2634
  23440953.302    -8148336.235 8  -6334005.75745  23440953.066    23440962.4684
  20980942.182   -23055605.521 9 -17948251.86247  20980941.386    20980949.5184
  22524356.514   -15819247.330 8 -12287652.95046  22524355.923    22524365.3094
  24036424.195    -5278675.788 8  -3827029.19245  24036423.551    24036441.1164
  23542762.003   -11789349.707 8  -8999006.39545  23542761.565    23542776.0184
  20398133.078   -27474974.337 9 -21391571.81748  20398132.157    20398140.4074
  24238488.421    -2825134.206 7  -2159166.21145  24238488.265    24238508.8654
  24802293.761    -1367958.178 7  -1047794.85345  24802292.849    24802308.1014
 01  4 23  0  2  0.0000000  0 10 21 17 26 23 03 14 06 15 29 22
  21984400.067   -20399424.331 9 -15883724.92547  21984399.277    21984408.5364
  20819145.187   -25139432.392 9 -19357114.30647  20819144.446    20819152.9604
  23458944.658    -8053791.163 8  -6260334.31445  23458944.361    23458953.9044
  20986703.232   -23025331.043 9 -17924661.35047  20986702.428    20986710.5454
  22511458.427   -15887026.913 8 -12340468.15046  22511457.832    22511467.2044
  24014938.995    -5391579.164 8  -3915005.19545  24014938.325    24014955.6854
  23563545.731   -11680131.826 8  -8913901.88445  23563545.296    23563559.7494
  20397017.447   -27480837.073 9 -21396140.16948  20397016.509    20397024.7554
  24217721.526    -2934263.195 7  -2244201.13745  24217721.221    24217741.7054
  24814617.859    -1303196.181 7   -997331.15245  24814616.849    24814632.3084
 01  4 23  0  2 30.0000000  0  9 21 17 26 23 03 14 06 15 29
  21976309.808   -20441938.420 9 -15916852.71747  21976309.048    21976318.2964
  20823004.129   -25119153.751 9 -19341312.76647  20823003.385    20823011.8864
  23476999.496    -7958911.997 8  -6186402.53145  23476999.242    23477008.8384
  20992505.762   -22994838.503 9 -17900900.92247  20992504.931    20992513.0544
  22498641.623   -15954379.009 8 -12392950.24046  22498641.065    22498650.4794
  23993470.230    -5504395.431 8  -4002913.31445  23993469.617    23993486.7964
  23584357.302   -11570767.891 8  -8828683.54945  23584356.800    23584371.2934
  20395956.753   -27486411.070 9 -21400483.52548  20395955.814    20395964.0584
  24196966.927    -3043326.940 7  -2329185.19745  24196966.640    24196986.8454
 01  4 23  0  3  0.0000000  0  9 21 17 26 23 03 14 06 15 29
  21968263.577   -20484221.506 9 -15949800.50047  21968262.818    21968272.0354
  20826918.432   -25098583.808 9 -19325284.23647  20826917.685    20826926.2054
  23495117.497    -7863701.083 8  -6112212.21445  23495117.179    23495126.8414
  20998349.562   -22964128.999 9 -17876971.42947  20998348.756    20998356.8824
  22485906.683   -16021301.160 8 -12445097.31146  22485906.161    22485915.5484
  23972018.671    -5617121.496 8  -4090751.14945  23972018.108    23972035.1114
  23605196.104   -11461260.046 8  -8743353.09245  23605195.623    23605210.3024
  20394951.269   -27491694.744 9 -21404600.66448  20394950.330    20394958.5924
  24176225.317    -3152322.816 7  -2414116.38745  24176224.879    24176244.8444
 01  4 23  0  3 30.0000000  0  9 21 17 26 23 03 14 06 15 29
  21960260.595   -20526277.204 9 -15982571.11047  21960259.839    21960269.0124
  20830887.821   -25077724.701 9 -19309030.39147  20830887.057    20830895.5854
  23513297.486    -7768164.463 8  -6037768.10945  23513297.204    23513306.9124
  21004233.825   -22933207.115 9 -17852876.44647  21004233.012    21004241.1284
  22473253.475   -16087794.074 8 -12496909.91346  22473252.911    22473262.3014
  23950584.240    -5729757.859 8  -4178519.10045  23950583.627    23950600.4444
  23626061.217   -11351613.774 8  -8657914.77945  23626060.828    23626075.5854
  20394000.694   -27496689.997 9 -21408493.04948  20393999.758    20394008.0294
  24155496.461    -3261251.223 7  -2498994.98745  24155495.960    24155515.6024
 01  4 23  0  4  0.0000000  0 10 21 17 26 23 03 14 09 06 15 29
  21952301.188   -20568103.955 9 -16015163.31647  21952300.419    21952309.5884
  20834912.795   -25056573.304 9 -19292548.78947  20834912.041    20834920.5954
  23531539.271    -7672302.646 8  -5963070.61845  23531539.055    23531548.7634
  21010158.640   -22902071.902 9 -17828615.22747  21010157.820    21010165.9574
  22460682.780   -16153853.303 8 -12548384.57246  22460682.194    22460691.5974
  23929167.812    -5842299.615 8  -4266213.33345  23929167.174    23929183.8774
  24458223.927    -1185255.027 7   -907692.67645  24458223.714    24458239.1364
  23646952.762   -11241829.360 7  -8572368.80745  23646952.395    23646967.1034
  20393105.629   -27501393.670 9 -21412158.22948  20393104.687    20393112.9574
  24134781.372    -3370107.351 7  -2583817.26845  24134780.880    24134800.3594
 01  4 23  0  4 30.0000000  0 10 21 17 26 23 03 14 09 06 15 29
  21944385.207   -20609702.255 9 -16047577.50547  21944384.469    21944393.6074
  20838993.452   -25035129.331 9 -19275839.20347  20838992.715    20839001.2374
  23549842.411    -7576119.094 8  -5888122.43345  23549842.273    23549852.0934
  21016123.696   -22870725.297 9 -17804189.29747  21016122.861    21016131.0294
  22448194.929   -16219477.128 8 -12599519.96346  22448194.378    22448203.7224
  23907769.761    -5954744.572 8  -4353832.15645  23907769.137    23907785.7384
  24446021.897    -1249375.975 7   -957656.83845  24446021.583    24446037.1714
  23667869.818   -11131909.742 7  -8486717.52045  23667869.584    23667884.4044
  20392266.114   -27505805.166 9 -21415595.74048  20392265.199    20392273.4464
  24114080.292    -3478889.323 7  -2668581.75145  24114079.811    24114099.2474
 01  4 23  0  5  0.0000000  0 10 21 17 26 23 03 14 09 06 15 29
  21936512.058   -20651075.627 9 -16079816.42447  21936511.299    21936520.4234
  20843129.370   -25013395.018 9 -19258903.38547  20843128.632    20843137.1534
  23568205.558    -7479619.726 8  -5812928.12145  23568205.380    23568215.1664
  21022128.130   -22839171.708 9 -17779602.07647  21022127.294    21022135.4664
  22435789.852   -16284666.204 8 -12650316.57846  22435789.277    22435798.6284
  23886390.163    -6067093.007 8  -4441375.77045  23886389.418    23886405.7974
  24433859.997    -1313285.731 7  -1007456.33145  24433859.771    24433875.3214
  23688811.830   -11021860.407 7  -8400965.13245  23688811.447    23688826.4494
  20391481.798   -27509926.625 9 -21418807.25348  20391480.862    20391489.1124
  24093393.276    -3587597.984 7  -2753289.10145  24093392.843    24093411.9834
 01  4 23  0  5 30.0000000  0 10 21 17 26 23 03 14 09 06 15 29
  21928681.780   -20692223.470 9 -16111879.60647  21928681.070    21928690.1944
  20847320.881   -24991368.562 9 -19241739.92247  20847320.151    20847328.6554
  23586628.458    -7382806.796 8  -5737489.49045  23586628.287    23586638.0954
  21028171.836   -22807411.740 9 -17754854.04247  21028171.010    21028179.2004
  22423468.035   -16349417.446 8 -12700772.02946  22423467.477    22423476.8484
  23865029.388    -6179341.622 7  -4528841.61645  23865028.786    23865044.8254
  24421739.454    -1376980.291 8  -1057088.23845  24421739.121    24421754.4194
  23709778.019   -10911683.093 7  -8315113.05245  23709777.772    23709792.8094
  20390753.038   -27513756.097 9 -21421791.24348  20390752.116    20390760.3674
  24072720.923    -3696229.711 7  -2837936.51045  24072720.314    24072739.2494
 01  4 23  0  6  0.0000000  0 10 21 17 26 23 03 14 09 06 15 29
  21920895.120   -20733142.441 9 -16143764.44847  21920894.401    21920903.5514
  20851568.910   -24969045.036 9 -19224344.98447  20851568.170    20851576.7004
  23605111.167    -7285678.819 8  -5661805.40145  23605111.081    23605120.9844
  21034255.352   -22775442.683 9 -17729943.08447  21034254.539    21034262.7054
  22411230.648   -16413724.945 8 -12750881.70546  22411230.148    22411239.4934
  23843688.849    -6291483.590 7  -4616224.36345  23843688.199    23843704.1824
  24409661.192    -1440452.288 8  -1106546.78545  24409660.804    24409675.8644
  23730768.985   -10801376.198 8  -8229159.98645  23730768.650    23730783.8454
  20390080.867   -27517288.363 9 -21424543.64048  20390079.961    20390088.1804
  24052064.387    -3804778.117 7  -2922518.97145  24052063.724    24052082.6004
 01  4 23  0  6 30.0000000  0 10 21 17 26 23 03 14 09 06 15 29
  21913150.832   -20773838.701 9 -16175475.75047  21913150.102    21913159.2374
  20855872.503   -24946429.336 9 -19206722.37847  20855871.780    20855880.3214
  23623652.426    -7188244.454 8  -5585882.57345  23623652.196    23623662.1324
  21040377.326   -22743271.532 9 -17704874.65947  21040376.500    21040384.6414
  22399077.135   -16477591.952 8 -12800648.13846  22399076.612    22399085.9594
  23822368.173    -6403521.854 7  -4703526.32545  23822367.590    23822383.3554
  24397624.682    -1503704.452 7  -1155833.94745  24397624.207    24397639.1364
  23751783.146   -10690947.811 8  -8143112.25445  23751782.792    23751798.1054
  20389464.355   -27520528.150 9 -21427068.13348  20389463.448    20389471.6384
  24031423.125    -3913246.126 7  -3007038.80545  24031422.474    24031441.2004
 01  4 23  0  7  0.0000000  0 10 21 17 26 23 03 14 09 06 15 29
  21905449.559   -20814308.697 9 -16207010.74047  21905448.864    21905457.9964
  20860232.712   -24923516.425 9 -19188868.17347  20860231.982    20860240.5074
  23642252.143    -7090502.543 8  -5509720.02145  23642251.949    23642261.7034
  21046538.243   -22710895.826 9 -17679646.82847  21046537.415    21046545.5374
  22387008.604   -16541012.283 8 -12850066.50746  22387008.057    22387017.3774
  23801068.485    -6515449.787 7  -4790742.29745  23801067.865    23801083.5274
  24385631.189    -1566729.605 7  -1204944.20345  24385630.570    24385645.7734
  23772820.771   -10580396.430 8  -8056968.68845  23772820.398    23772835.7104
  20388904.492   -27523470.356 9 -21429360.74748  20388903.556    20388911.7514
  24010798.202    -4021627.502 7  -3091491.13045  24010797.612    24010816.1694
 01  4 23  0  7 30.0000000  0 10 21 17 26 23 03 14 09 06 15 29
  21897791.325   -20854552.716 9 -16238369.64847  21897790.645    21897799.7424
  20864649.555   -24900305.832 9 -19170782.00947  20864648.834    20864657.3504
  23660909.750    -6992456.507 8  -5433320.53045  23660909.573    23660919.2674
  21052737.714   -22678317.386 9 -17654261.02747  21052736.884    21052744.9934
  22375025.414   -16603984.084 8 -12899135.38646  22375024.833    22375034.1264
  23779790.238    -6627265.212 7  -4877870.63345  23779789.635    23779805.1964
  24373681.269    -1629524.902 7  -1253875.32945  24373680.712    24373696.0424
  23793881.093   -10469725.001 8  -7970731.60645  23793880.698    23793896.2324
  20388401.281   -27526114.592 9 -21431421.18348  20388400.374    20388408.5274
  23990190.252    -4129920.086 7  -3175874.26645  23990189.589    23990208.1834
 01  4 23  0  8  0.0000000  0 10 21 17 26 23 03 14 09 06 15 29
  21890175.499   -20894573.867 9 -16269554.89747  21890174.808    21890183.8894
  20869122.771   -24876798.932 9 -19152464.95347  20869122.037    20869130.5724
  23679624.351    -6894111.183 8  -5356687.81045  23679624.177    23679633.8284
  21058975.090   -22645539.723 9 -17628719.99047  21058974.256    21058982.3614
  22363127.558   -16666507.386 8 -12947854.78646  22363126.970    22363136.2474
  23758533.633    -6738967.248 8  -4964910.60745  23758532.990    23758548.4634
  24361775.666    -1692089.092 7  -1302626.42145  24361775.054    24361790.4194
  23814963.407   -10358937.886 8  -7884404.36645  23814962.963    23814978.6294
  20387954.664   -27528461.687 9 -21433250.08148  20387953.763    20387961.8964
  23969599.312    -4238123.429 7  -3260187.86245  23969598.793    23969617.0964
 01  4 23  0  8 30.0000000  0 10 21 17 26 23 03 14 09 06 15 29
  21882602.339   -20934370.726 9 -16300565.37247  21882601.641    21882610.7174
  20873652.978   -24852992.537 9 -19133914.52347  20873652.261    20873660.8014
  23698395.641    -6795467.206 8  -5279822.42245  23698395.392    23698405.1734
  21065250.560   -22612561.823 9 -17603022.92747  21065249.731    21065257.8394
  22351315.937   -16728577.635 8 -12996221.15546  22351315.386    22351324.6134
  23737299.566    -6850551.034 8  -5051858.46245  23737298.900    23737314.2354
  24349914.879    -1754416.668 8  -1351193.19245  24349914.375    24349929.4064
  23836067.692   -10248035.392 8  -7797987.21845  23836067.343    23836083.0784
  20387565.227   -27530508.367 9 -21434844.88648  20387564.303    20387572.4194
  23949026.185    -4346232.777 7  -3344428.22845  23949025.745    23949043.8874
 01  4 23  0  9  0.0000000  0 10 21 17 26 23 03 14 09 06 15 29
  21875071.526   -20973944.968 9 -16331402.38047  21875070.854    21875079.8914
  20878239.901   -24828888.102 9 -19115131.85647  20878239.176    20878247.7254
  23717222.975    -6696529.853 8  -5202728.38845  23717222.668    23717232.2174
  21071563.480   -22579387.255 9 -17577172.61747  21071562.651    21071570.7654
  22339590.477   -16790194.958 8 -13044234.59946  22339589.944    22339599.1614
  23716087.834    -6962016.469 8  -5138714.10945  23716087.325    23716102.5234
  24338099.452    -1816507.015 7  -1399575.09145  24338098.926    24338113.6724
  23857193.115   -10137022.429 8  -7711484.00045  23857192.739    23857208.5644
  20387232.665   -27532255.815 9 -21436206.52548  20387231.733    20387239.8704
  23928471.090    -4454247.979 7  -3428595.24245  23928470.636    23928488.5924
 01  4 23  0  9 30.0000000  0 10 21 17 26 23 03 14 09 06 15 29
  21867583.278   -21013295.784 9 -16362065.28547  21867582.588    21867591.6144
  20882883.985   -24804483.302 9 -19096115.12447  20882883.261    20882891.8064
  23736105.751    -6597300.378 8  -5125406.74845  23736105.396    23736114.8834
  21077913.838   -22546015.804 9 -17551168.87747  21077912.994    21077921.1144
  22327952.027   -16851355.447 8 -13091892.06946  22327951.471    22327960.6624
  23694899.657    -7073359.050 8  -5225474.02545  23694899.133    23694914.0834
  24326329.598    -1878355.481 7  -1447768.47145  24326329.094    24326343.9814
  23878339.419   -10025899.732 8  -7624895.27645  23878339.049    23878354.8294
  20386957.572   -27533701.403 9 -21437332.94648  20386956.634    20386964.7704
  23907934.701    -4562165.048 8  -3512685.80345  23907934.172    23907951.9764
 01  4 23  0 10  0.0000000  0 10 21 17 26 23 03 14 09 06 15 29
  21860137.285   -21052424.354 9 -16392555.02347  21860136.592    21860145.6254
  20887585.293   -24779777.807 9 -19076864.10047  20887584.586    20887593.1244
  23755043.347    -6497782.265 8  -5047860.23745  23755043.036    23755052.5884
  21084301.249   -22512449.500 9 -17525013.31947  21084300.423    21084308.5524
  22316400.626   -16912058.178 8 -13139192.84846  22316400.078    22316409.2604
  23673735.242    -7184576.912 8  -5312136.76845  23673734.656    23673749.5464
  24314606.583    -1939959.274 7  -1495771.22545  24314606.059    24314621.0864
  23899505.984    -9914670.360 8  -7538223.45745  23899505.556    23899521.4884
  20386739.965   -27534844.864 9 -21438223.94248  20386739.014    20386747.1534
  23887417.308    -4669981.981 8  -3596698.34845  23887416.856    23887434.4244
 01  4 23  0 10 30.0000000  0 10 21 17 26 23 03 14 09 06 15 29
  21852733.512   -21091331.209 9 -16422871.99247  21852732.788    21852741.8474
  20892343.961   -24754770.890 9 -19057378.19847  20892343.242    20892351.7604
  23774035.521    -6397978.586 8  -4970091.15145  23774035.248    23774044.5104
  21090725.510   -22478689.823 9 -17498707.07647  21090724.695    21090732.8124
  22304936.830   -16972300.717 8 -13186135.03146  22304936.274    22304945.4674
  23652595.107    -7295667.157 8  -5398700.08945  23652594.521    23652609.3184
  24302931.107    -2001315.265 7  -1543580.87345  24302930.472    24302945.2474
  23920692.356    -9803336.932 8  -7451470.53545  23920691.979    23920707.8634
  20386580.048   -27535685.174 9 -21438878.72448  20386579.105    20386587.2554
  23866919.393    -4777696.372 8  -3680631.00545  23866919.037    23866936.3714
 01  4 23  0 11  0.0000000  0 10 21 17 26 23 03 14 09 06 15 29
  21845371.746   -21130017.423 9 -16453017.03347  21845371.005    21845380.0294
  20897160.063   -24729462.050 9 -19037657.03347  20897159.348    20897167.8584
  23793081.292    -6297892.414 8  -4892101.96245  23793080.933    23793090.2874
  21097186.210   -22444738.491 9 -17472251.49247  21097185.392    21097193.5054
  22293560.897   -17032081.409 8 -13232717.33246  22293560.329    22293569.5444
  23631479.745    -7406627.688 8  -5485162.33845  23631479.038    23631493.7194
  24291303.037    -2062420.646 7  -1591195.25845  24291302.351    24291317.0014
  23941897.895    -9691902.269 7  -7364638.73245  23941897.578    23941913.6034
  20386477.943   -27536221.714 9 -21439296.79548  20386477.006    20386485.1614
  23846441.383    -4885306.244 8  -3764482.23145  23846441.034    23846458.1964
 01  4 23  0 11 30.0000000  0 10 21 17 26 23 03 14 09 06 15 29
  21838052.017   -21168482.589 9 -16482989.83247  21838051.292    21838060.3064
  20902033.864   -24703849.992 9 -19017699.59947  20902033.154    20902041.6974
  23812180.291    -6197526.219 8  -4813894.57445  23812179.981    23812189.5254
  21103683.253   -22410596.322 9 -17445647.20747  21103682.455    21103690.5594
  22282273.306   -17091397.492 8 -13278937.60146  22282272.764    22282282.0214
  23610389.474    -7517455.259 8  -5571521.00745  23610388.809    23610403.4084
  24279722.854    -2123271.965 7  -1638611.60044  24279722.588    24279736.9524
  23963122.289    -9580368.309 7  -7277729.57945  23963122.065    23963138.1904
  20386433.879   -27536452.968 9 -21439476.98648  20386432.946    20386441.1214
  23825983.784    -4992808.451 8  -3848249.56545  23825983.516    23826000.5424
 01  4 23  0 12  0.0000000  0 10 21 17 26 23 03 14 09 06 15 29
  21830774.505   -21206725.990 9 -16512789.82947  21830773.780    21830782.7594
  20906965.763   -24677932.809 9 -18997504.40747  20906965.039    20906973.5904
  23831332.349    -6096881.698 8  -4735470.26545  23831332.092    23831341.5474
  21110216.568   -22376263.618 9 -17418894.45447  21110215.762    21110223.8464
  22271074.729   -17150245.966 8 -13324793.50846  22271074.216    22271083.4834
  23589325.407    -7628146.012 8  -5657773.06045  23589324.652    23589339.0884
  24268191.803    -2183864.988 7  -1685826.76144  24268191.501    24268206.3144
  23984365.536    -9468736.586 7  -7190744.22845  23984365.239    23984381.4624
  20386448.384   -27536376.747 9 -21439417.58748  20386447.466    20386455.6524
  23805547.549    -5100199.300 8  -3931930.14345  23805547.254    23805563.9994
 01  4 23  0 12 30.0000000  0 10 21 17 26 23 03 14 09 06 15 29
  21823538.625   -21244750.775 9 -16542419.47747  21823537.889    21823546.8524
  20911955.398   -24651712.248 9 -18977072.81247  20911954.665    20911963.2164
  23850536.254    -5995964.470 8  -4656833.46845  23850536.068    23850545.4354
  21116785.400   -22341744.296 9 -17391996.29747  21116784.574    21116792.6484
  22259965.151   -17208627.271 8 -13370285.38746  22259964.597    22259973.8634
  23568287.311    -7738700.065 8  -5743918.61845  23568286.565    23568300.7824
  24256710.751    -2244199.122 7  -1732840.20245  24256710.519    24256725.0184
  24005626.117    -9357012.194 7  -7103686.70345  24005625.861    24005642.3444
  20386521.100   -27535994.573 9 -21439119.78448  20386520.166    20386528.3434
  23785132.464    -5207479.357 8  -4015524.40445  23785132.097    23785148.6454
 01  4 23  0 13  0.0000000  0 10 21 17 26 23 03 14 09 06 15 29
  21816344.551   -21282555.483 9 -16571877.63147  21816343.800    21816352.7864
  20917003.271   -24625185.556 9 -18956402.67347  20917002.540    20917011.0624
  23869791.909    -5894775.387 8  -4577984.87945  23869791.687    23869801.1994
  21123389.855   -22307037.567 9 -17364952.09547  21123389.032    21123397.1074
  22248945.198   -17266537.345 8 -13415410.07146  22248944.626    22248953.8594
  23547276.238    -7849112.586 8  -5829953.90845  23547275.471    23547289.4414
  24245279.730    -2304269.356 7  -1779647.98545  24245279.453    24245293.7874
  24026904.459    -9245195.549 7  -7016557.27545  24026904.200    24026920.7024
  20386652.618   -27535303.459 9 -21438581.25248  20386651.695    20386659.8524
  23764739.293    -5314643.878 8  -4099028.64445  23764738.845    23764755.2114
 01  4 23  0 13 30.0000000  0 10 21 17 26 23 03 14 09 06 15 29
  21809191.984   -21320142.238 9 -16601165.94647  21809191.251    21809200.2334
  20922109.301   -24598353.356 9 -18935494.47547  20922108.556    20922117.0654
  23889098.456    -5793318.962 8  -4498927.98545  23889098.272    23889107.7274
  21130029.458   -22272146.388 9 -17337764.16547  21130028.636    21130036.7044
  22238014.959   -17323975.741 8 -13460167.21346  22238014.403    22238023.6284
  23526292.192    -7959382.547 8  -5915878.10745  23526291.478    23526305.2554
  24233898.884    -2364074.194 7  -1826248.92345  24233898.492    24233913.1184
  24048199.578    -9133290.556 7  -6929359.00945  24048199.227    24048215.9214
  20386842.836   -27534303.955 9 -21437802.40948  20386841.893    20386850.0464
  23744368.369    -5421691.849 8  -4182442.07945  23744367.767    23744384.0524
 01  4 23  0 14  0.0000000  0 10 21 17 26 23 03 14 09 06 15 29
  21802081.064   -21357510.093 9 -16630283.69647  21802080.304    21802089.2654
  20927273.878   -24571213.473 9 -18914346.52847  20927273.130    20927281.6464
  23908455.700    -5691596.456 8  -4419663.68345  23908455.580    23908464.8304
  21136704.118   -22237070.658 9 -17310432.42947  21136703.305    21136711.3994
  22227175.195   -17380939.121 8 -13504554.21946  22227174.647    22227183.8184
  23505336.009    -8069505.723 8  -6001687.94345  23505335.305    23505349.0354
  24222569.722    -2423608.571 7  -1872639.13345  24222569.304    24222583.7684
  24069511.394    -9021298.201 7  -6842092.69045  24069511.094    24069527.8094
  20387092.191   -27532993.620 9 -21436781.36548  20387091.250    20387099.3794
  23724020.221    -5528619.421 7  -4265761.69345  23724019.614    23724035.8144
 01  4 23  0 14 30.0000000  0 10 21 17 26 23 03 14 09 06 15 29
  21795011.528   -21394660.481 9 -16659232.00047  21795010.788    21795019.7274
  20932496.884   -24543766.274 9 -18892959.11147  20932496.144    20932504.6634
  23927862.544    -5589611.860 8  -4340195.19745  23927862.565    23927871.8554
  21143413.444   -22201812.948 9 -17282958.89247  21143412.650    21143420.7264
  22216425.851   -17437426.778 8 -13548570.52446  22216425.359    22216434.5274
  23484408.159    -8179480.479 8  -6087382.15045  23484407.364    23484421.1394
  24211292.512    -2482870.563 7  -1918817.14745  24211291.981    24211306.1944
  24090839.089    -8909222.117 7  -6754761.10945  24090838.709    24090855.6084
  20387400.700   -27531372.443 9 -21435518.09848  20387399.767    20387407.8714
  23703695.201    -5635425.288 7  -4348986.48545  23703694.715    23703710.8094
 01  4 23  0 15  0.0000000  0 10 21 17 26 23 03 14 09 06 15 29
  21787983.592   -21431592.501 9 -16688010.14447  21787982.823    21787991.7544
  20937778.823   -24516009.517 9 -18871330.48147  20937778.068    20937786.6054
  23947319.225    -5487366.794 8  -4260523.73845  23947319.256    23947328.6084
  21150157.379   -22166373.242 9 -17255343.53447  21150156.581    21150164.6614
  22205767.804   -17493435.040 8 -13592213.28646  22205767.277    22205776.4684
  23463509.186    -8289302.997 8  -6172957.70945  23463508.412    23463522.1664
  24200067.757    -2541856.104 7  -1964779.78245  24200067.183    24200080.9914
  24112182.547    -8797063.564 7  -6667365.27745  24112182.123    24112199.0384
  20387768.792   -27529437.972 9 -21434010.70348  20387767.862    20387775.9754
  23683394.114    -5742105.550 7  -4432113.42045  23683393.739    23683409.6324
 01  4 23  0 15 30.0000000  0 10 21 17 26 23 03 14 09 06 15 29
  21780996.218   -21468311.286 9 -16716622.12847  21780995.441    21781004.3754
  20943118.944   -24487946.965 9 -18849463.56547  20943118.201    20943126.7464
  23966824.091    -5384868.502 7  -4180654.97545  23966824.093    23966833.4624
  21156934.915   -22130757.155 9 -17227590.73647  21156934.109    21156942.2014
  22195200.443   -17548966.486 8 -13635484.50247  22195199.953    22195209.1254
  23442638.844    -8398974.935 8  -6258415.94945  23442638.170    23442651.8144
  24188895.329    -2600566.332 7  -2010527.73145  24188894.867    24188908.8364
  24133540.393    -8684829.360 8  -6579910.49245  24133539.977    24133556.7854
  20388195.851   -27527193.696 9 -21432261.90148  20388194.936    20388203.0634
  23663116.630    -5848662.167 7  -4515144.01645  23663116.226    23663131.9624
 01  4 23  0 16  0.0000000  0 10 21 17 26 23 03 14 09 06 15 29
  21774050.384   -21504811.439 9 -16745063.75547  21774049.629    21774058.5484
  20948518.549   -24459571.988 9 -18827353.20547  20948517.813    20948526.3234
  23986377.548    -5282114.230 8  -4100586.72745  23986377.607    23986386.8984
  21163746.836   -22094960.288 9 -17199697.06547  21163746.034    21163754.1144
  22184725.253   -17604013.530 8 -13678378.25847  22184724.835    22184733.9804
  23421798.936    -8508488.137 8  -6343750.52145  23421798.217    23421811.7784
  24177777.275    -2658992.371 8  -2056054.31245  24177776.813    24177790.8204
  24154913.225    -8572516.230 7  -6492394.22345  24154912.742    24154929.6804
  20388683.133   -27524632.946 9 -21430266.49348  20388682.209    20388690.3474
  23642864.239    -5955087.025 7  -4598071.95345  23642863.817    23642879.4214
 01  4 23  0 16 30.0000000  0 10 21 17 26 23 03 14 09 06 15 29
  21767145.338   -21541097.508 9 -16773338.56547  21767144.570    21767153.5014
  20953976.978   -24430887.865 9 -18805001.94847  20953976.224    20953984.7364
  24005978.531    -5179110.745 7  -4020324.30545  24005978.407    24005987.8834
  21170592.173   -22058987.925 9 -17171666.65447  21170591.375    21170599.4504
  22174341.994   -17658578.038 8 -13720896.02147  22174341.533    22174350.6694
  23400989.008    -8617843.614 8  -6428962.20745  23400988.284    23401001.6074
  24166713.245    -2717135.081 8  -2101360.16945  24166712.823    24166726.4224
  24176299.731    -8460130.493 7  -6404821.36045  24176299.196    24176316.2314
  20389230.090   -27521758.669 9 -21428026.78248  20389229.170    20389237.2944
  23622636.630    -6061381.424 8  -4680898.25345  23622636.130    23622651.7474
 01  4 23  0 17  0.0000000  0 10 21 17 26 23 03 14 09 06 15 29
  21760281.319   -21577167.825 9 -16801445.24947  21760280.581    21760289.4804
  20959494.801   -24401891.409 9 -18782407.31947  20959494.064    20959502.5754
  24025626.786    -5075858.641 8  -3939868.13245  24025626.675    24025636.1204
  21177471.025   -22022839.202 9 -17143498.81947  21177470.232    21177478.3084
  22164051.331   -17712655.829 8 -13763034.51147  22164050.877    22164059.9924
  23380210.016    -8727036.505 8  -6514047.20045  23380209.288    23380222.4904
  24155703.813    -2774989.186 7  -2146441.09845  24155703.375    24155717.0954
  24197700.033    -8347672.483 7  -6317192.22745  24197699.461    24197716.8574
  20389837.324   -27518567.653 9 -21425540.25548  20389836.390    20389844.5064
  23602434.663    -6167540.797 8  -4763619.33245  23602434.305    23602449.7554
 01  4 23  0 17 30.0000000  0 10 21 17 26 23 03 14 09 06 15 29
  21753458.193   -21613023.354 9 -16829384.57347  21753457.455    21753466.3564
  20965072.071   -24372582.559 9 -18759569.26647  20965071.313    20965079.8544
  24045321.722    -4972361.368 7  -3859220.93345  24045321.631    24045331.0004
  21184383.141   -21986515.891 9 -17115194.93647  21184382.337    21184390.4064
  22153853.460   -17766245.788 8 -13804792.88447  22153853.027    22153862.0914
  23359462.415    -8836064.777 8  -6599003.95145  23359461.702    23359474.7214
  24144749.664    -2832552.464 7  -2191295.39145  24144749.168    24144762.9714
  24219113.498    -8235145.279 7  -6229509.12645  24219113.047    24219130.5024
  20390504.921   -27515059.453 9 -21422806.57748  20390503.978    20390512.0914
  23582258.819    -6273563.275 8  -4846233.76245  23582258.473    23582273.8174
 01  4 23  0 18  0.0000000  0 10 21 17 26 23 03 14 09 06 15 29
  21746675.562   -21648666.108 9 -16857158.10247  21746674.820    21746683.6944
  20970708.608   -24342962.415 9 -18736488.65047  20970707.861    20970716.4284
  24065062.384    -4868623.752 8  -3778386.41945  24065062.245    24065071.6404
  21191327.857   -21950021.122 9 -17086757.45547  21191327.040    21191335.1404
  22143748.509   -17819347.733 8 -13846170.97647  22143748.012    22143757.0524
  23338746.231    -8944927.545 8  -6683831.72945  23338745.503    23338758.4884
  24133851.371    -2889823.383 8  -2235921.92245  24133850.932    24133864.4954
  24240539.308    -8122553.321 7  -6141775.63345  24240538.824    24240556.5574
  20391232.679   -27511234.972 9 -21419826.44848  20391231.724    20391239.8224
  23562109.268    -6379448.228 8  -4928741.04645  23562108.952    23562124.0644
 01  4 23  0 18 30.0000000  0 10 21 17 26 23 03 14 09 06 15 29
  21739933.487   -21684095.815 9 -16884765.61747  21739932.758    21739941.5874
  20976404.638   -24313029.451 9 -18713164.28047  20976403.898    20976412.4684
  24084848.339    -4764647.790 8  -3697366.21645  24084848.217    24084857.6094
  21198305.081   -21913355.510 9 -17058186.85947  21198304.269    21198312.3814
  22133736.917   -17871958.789 8 -13887166.55847  22133736.404    22133745.4354
  23318062.210    -9053621.337 8  -6768527.84945  23318061.463    23318074.3284
  24123009.501    -2946798.006 8  -2280317.58645  24123009.009    24123022.4084
  24261977.407    -8009898.297 7  -6053992.93545  24261976.702    24261994.5374
  20392020.974   -27507092.387 9 -21416598.45148  20392020.028    20392028.1314
  23541986.457    -6485192.473 8  -5011138.69545  23541986.083    23542001.1334
 01  4 23  0 19  0.0000000  0 10 21 17 26 23 03 14 09 06 15 29
  21733232.007   -21719312.220 9 -16912206.93447  21733231.277    21733240.0844
  20982160.592   -24282781.718 9 -18689594.64247  20982159.863    20982168.4364
  24104679.418    -4660435.374 7  -3616161.74645  24104679.298    24104688.6494
  21205314.810   -21876519.135 9 -17029483.19847  21205314.006    21205322.0944
  22123819.218   -17924076.172 8 -13927777.46047  22123818.729    22123827.7634
  23297411.013    -9162142.677 8  -6853089.59945  23297410.259    23297423.0564
  24112224.527    -3003472.221 7  -2324479.15245  24112224.075    24112237.4404
  24283427.042    -7897181.492 7  -5966162.16745  24283426.423    24283444.3454
  20392870.200   -27502629.714 9 -21413121.04248  20392869.280    20392877.3504
  23521891.093    -6590792.321 8  -5093423.82945  23521890.685    23521905.6994
 01  4 23  0 19 30.0000000  0 10 21 17 26 23 03 14 09 06 15 29
  21726570.877   -21754316.735 9 -16939483.12847  21726570.139    21726578.9224
  20987976.446   -24252219.477 9 -18665779.92447  20987975.697    20987984.2794
  24124554.525    -4555990.037 8  -3534775.77245  24124554.428    24124563.8754
  21212356.650   -21839514.077 9 -17000648.09147  21212355.832    21212363.9304
  22113995.744   -17975698.967 8 -13968002.95947  22113995.230    22114004.2544
  23276793.042    -9270489.525 8  -6937515.37245  23276792.292    23276804.9344
  24101497.201    -3059843.851 8  -2368404.90845  24101496.770    24101510.1394
  24304887.815    -7784406.183 7  -5878285.75745  24304887.326    24304905.2054
  20393780.374   -27497846.675 9 -21409393.99348  20393779.450    20393787.5404
  23501823.520    -6696246.348 8  -5175595.35145  23501823.147    23501838.0244
 01  4 23  0 20  0.0000000  0 10 21 17 26 23 03 14 09 06 15 29
  21719949.857   -21789110.271 9 -16966594.92947  21719949.112    21719957.8714
  20993852.237   -24221342.098 9 -18641719.64347  20993851.489    20993860.0614
  24144473.485    -4451314.974 7  -3453210.80345  24144473.479    24144483.0034
  21219430.299   -21802341.819 9 -16971682.69247  21219429.485    21219437.5944
  22104266.663   -18026825.539 8 -14007841.79247  22104266.135    22104275.1694
  23256208.808    -9378659.290 8  -7021803.17245  23256208.062    23256220.5304
  24090828.104    -3115910.001 8  -2412092.64945  24090827.627    24090840.9954
  24326359.111    -7671575.132 7  -5790365.96245  24326358.741    24326376.8564
  20394751.668   -27492742.390 9 -21405416.62448  20394750.728    20394758.8344
  23481784.039    -6801552.134 8  -5257651.35845  23481783.700    23481798.5134
 01  4 23  0 20 30.0000000  0 10 21 17 26 23 03 14 09 06 15 29
  21713368.978   -21823692.830 9 -16993542.33847  21713368.228    21713376.9814
  20999788.149   -24190148.628 9 -18617413.06047  20999787.410    20999795.9944
  24164435.667    -4346412.741 7  -3371468.80845  24164435.640    24164445.2054
  21226535.546   -21765003.499 9 -16942587.89647  21226534.726    21226542.8484
  22094632.453   -18077453.716 8 -14047292.27847  22094631.865    22094640.9204
  23235658.682    -9486649.216 8  -7105950.84645  23235657.979    23235670.3824
  24080217.713    -3171667.344 7  -2455539.77745  24080217.193    24080230.6334
  24347840.778    -7558690.396 7  -5702404.30545  24347840.320    24347858.5894
  20395784.318   -27487315.850 9 -21401188.14948  20395783.363    20395791.4774
  23461773.395    -6906707.064 8  -5339589.82845  23461773.033    23461787.6844
 01  4 23  0 21  0.0000000  0 10 21 17 26 23 03 14 09 06 15 29
  21706828.419   -21858063.674 9 -17020324.77147  21706827.676    21706836.3974
  21005784.615   -24158637.082 9 -18592858.62247  21005783.868    21005792.4524
  24184440.802    -4241284.998 7  -3289551.13845  24184440.750    24184450.3794
  21233672.397   -21727499.088 9 -16913363.67847  21233671.575    21233679.6994
  22085093.565   -18127580.547 8 -14086352.10547  22085093.008    22085102.0484
  23215143.547    -9594455.611 8  -7189955.52046  23215142.901    23215155.2514
  24069666.727    -3227111.938 7  -2498743.13145  24069666.178    24069679.8554
  24369332.408    -7445753.169 7  -5614401.78845  24369332.172    24369350.1864
  20396878.657   -27481564.865 9 -21396706.85348  20396877.735    20396885.8474
  23441792.147    -7011707.526 8  -5421407.95045  23441791.746    23441806.2364
 01  4 23  0 21 30.0000000  0 10 21 17 26 23 03 14 09 06 15 29
  21700327.733   -21892224.902 9 -17046943.87147  21700327.006    21700335.6974
  21011841.526   -24126807.853 9 -18568056.64347  21011840.775    21011849.3714
  24204488.091    -4135935.593 8  -3207460.65445  24204488.122    24204497.6364
  21240840.406   -21689831.002 9 -16884011.92647  21240839.583    21240847.7484
  22075650.193   -18177205.372 8 -14125020.76047  22075649.676    22075658.7334
  23194663.746    -9702076.738 8  -7273815.82346  23194663.080    23194675.3464
  24059175.555    -3282241.772 8  -2541701.23945  24059175.070    24059188.8154
  24390833.317    -7332767.086 7  -5526361.20545  24390833.107    24390851.2024
  20398034.746   -27475489.477 9 -21391972.78448  20398033.825    20398041.9384
  23421840.642    -7116552.105 8  -5503104.60945  23421840.089    23421854.4444
 01  4 23  0 22  0.0000000  0 10 21 17 26 23 03 14 09 06 15 29
  21693866.802   -21926177.183 9 -17073400.15247  21693866.059    21693874.7634
  21017958.777   -24094661.530 9 -18543007.57047  21017958.030    21017966.6114
  24224576.840    -4030368.640 7  -3125200.66845  24224576.874    24224586.3944
  21248039.076   -21652001.652 9 -16854534.50847  21248038.259    21248046.4504
  22066302.582   -18226327.442 8 -14163297.65447  22066302.077    22066311.0624
  23174219.376    -9809511.383 8  -7357530.82346  23174218.713    23174230.8734
  24048744.849    -3337055.074 8  -2584412.78345  24048744.391    24048757.8734
  24412342.786    -7219735.753 7  -5438285.31645  24412342.487    24412360.8004
  20399252.533   -27469090.043 9 -21386986.20748  20399251.602    20399259.7004
  23401918.956    -7221239.504 8  -5584678.81345  23401918.450    23401932.6744
 01  4 23  0 22 30.0000000  0 10 21 17 26 23 03 14 09 06 15 29
  21687445.768   -21959919.830 9 -17099693.08447  21687445.014    21687453.6854
  21024136.861   -24062195.761 9 -18517709.58547  21024136.113    21024144.6624
  24244706.769    -3924585.398 7  -3042772.18645  24244706.649    24244716.3154
  21255268.502   -21614010.821 9 -16824931.26747  21255267.684    21255275.8464
  22057051.173   -18274943.674 8 -14201180.39447  22057050.682    22057059.6704
  23153811.393    -9916755.027 8  -7441096.99946  23153810.710    23153822.7954
  24038375.386    -3391547.197 8  -2626874.02545  24038374.850    24038388.0474
  24433860.597    -7106660.182 7  -5350175.02945  24433860.280    24433878.7574
  20400532.461   -27462363.924 9 -21381745.07448  20400531.526    20400539.6254
  23382028.034    -7325765.847 8  -5666127.52845  23382027.500    23382041.5974
 01  4 23  0 23  0.0000000  0 10 21 17 26 23 03 14 09 06 15 29
  21681063.876   -21993456.771 9 -17125825.72047  21681063.102    21681071.7574
  21030375.344   -24029412.452 9 -18492164.15947  21030374.625    21030383.1594
  24264876.870    -3818591.427 7  -2960179.42845  24264876.596    24264886.1584
  21262527.936   -21575862.377 9 -16795205.21847  21262527.109    21262535.2624
  22047895.895   -18323054.812 8 -14238669.54847  22047895.390    22047904.3884
  23133439.554   -10023807.995 8  -7524514.60445  23133438.904    23133450.9494
  24028066.757    -3445717.808 7  -2669084.67145  24028066.097    24028079.5904
  24455385.966    -6993545.345 7  -5262034.09145  24455385.589    24455404.1874
  20401874.284   -27455312.552 9 -21376250.48648  20401873.357    20401881.4554
  23362167.615    -7430131.211 8  -5747450.80645  23362167.119    23362181.0574
 01  4 23  0 23 30.0000000  0 10 21 17 26 23 03 14 09 06 15 29
  21674721.695   -22026784.771 9 -17151795.54947  21674720.943    21674729.5784
  21036675.028   -23996307.435 9 -18466368.05647  21036674.313    21036682.8254
  24285087.090    -3712386.029 7  -2877421.98445  24285086.675    24285096.4604
  21269817.807   -21537553.839 9 -16765354.40847  21269816.972    21269825.1164
  22038837.715   -18370655.762 8 -14275761.16347  22038837.200    22038846.1894
  23113105.136   -10130663.932 8  -7607778.67445  23113104.661    23113116.6194
  24017820.345    -3499560.234 7  -2711039.55545  24017819.800    24017833.6174
  24476918.991    -6880390.169 7  -5173861.75345  24476918.401    24476937.2674
  20403278.767   -27447931.763 9 -21370499.21448  20403277.835    20403285.9564
  23342338.988    -7534329.690 8  -5828644.07245  23342338.496    23342352.3574
 01  4 23  0 24  0.0000000  0 10 21 17 26 23 03 14 09 06 15 29
  21668418.690   -22059907.132 9 -17177605.13347  21668417.947    21668426.5604
  21043035.484   -23962883.117 9 -18440323.14147  21043034.750    21043043.2814
  24305336.524    -3605975.126 7  -2794504.44545  24305336.156    24305345.8054
  21277137.286   -21499089.668 9 -16735382.32247  21277136.455    21277144.5834
  22029876.398   -18417747.749 8 -14312456.17747  22029875.864    22029884.8214
  23092808.281   -10237323.134 8  -7690889.45045  23092807.772    23092819.6894
  24007637.017    -3553074.501 7  -2752738.85745  24007636.479    24007650.0664
  24498458.719    -6767200.315 7  -5085662.37345  24498458.320    24498477.1774
  20404745.565   -27440223.584 9 -21364492.82848  20404744.629    20404752.7874
  23322542.047    -7638361.930 8  -5909707.78645  23322541.511    23322555.2874
 01  4 23  0 24 30.0000000  0 10 21 17 26 23 03 14 09 06 15 29
  21662154.874   -22092823.541 9 -17203254.24347  21662154.123    21662162.7344
  21049457.008   -23929137.703 9 -18414028.02847  21049456.275    21049464.8134
  24325624.628    -3499360.348 7  -2711428.00945  24325624.300    24325633.7874
  21284486.386   -21460469.953 9 -16705289.04547  21284485.537    21284493.6524
  22021012.428   -18464328.161 8 -14348752.56247  22021011.911    22021020.8174
  23072549.655   -10343781.870 8  -7773844.03045  23072549.127    23072560.9474
  23997516.640    -3606256.746 7  -2794179.41145  23997516.067    23997529.5124
  24520004.725    -6653976.979 7  -4997436.91845  24520004.433    24520023.4004
  20406275.052   -27432186.031 9 -21358229.79748  20406274.120    20406282.2494
  23302777.330    -7742224.321 8  -5990639.15545  23302776.874    23302790.5404
 01  4 23  0 25  0.0000000  0  9 21 17 26 23 03 14 09 15 29
  21655931.318   -22125528.466 9 -17228738.56247  21655930.591    21655939.1284
  21055940.816   -23895064.918 9 -18387477.82847  21055940.106    21055948.6624
  24345952.081    -3392539.024 7  -2628190.61345  24345951.858    24345961.1094
  21291865.868   -21421690.489 9 -16675071.28247  21291865.038    21291873.1454
  22012247.109   -18510389.977 8 -14384644.85247  22012246.589    22012255.4674
  23052330.765   -10450032.021 8  -7856636.07746  23052330.214    23052341.8434
  23987460.692    -3659098.348 7  -2835354.46445  23987460.187    23987473.9434
  20407868.432   -27423812.624 9 -21351705.05448  20407867.507    20407875.6144
  23283046.362    -7845909.114 8  -6071432.15545  23283045.933    23283059.5894
 01  4 23  0 25 30.0000000  0  9 21 17 26 23 03 14 09 15 29
  21649746.424   -22158030.282 9 -17254064.60547  21649745.663    21649754.1834
  21062485.596   -23860671.856 9 -18360678.05847  21062484.885    21062493.4764
  24366316.852    -3285521.693 7  -2544800.48445  24366316.559    24366326.0304
  21299274.063   -21382760.032 9 -16644735.86247  21299273.250    21299281.3544
  22003579.430   -18555938.900 8 -14420137.48047  22003578.899    22003587.7814
  23032150.602   -10556078.725 8  -7939269.59946  23032150.004    23032161.5554
  23977469.355    -3711603.893 8  -2876267.72345  23977468.873    23977482.3394
  20409524.521   -27415109.920 9 -21344923.71248  20409523.591    20409531.6724
  23263348.254    -7949421.381 8  -6152090.70945  23263347.950    23263361.4864
 01  4 23  0 26  0.0000000  0  9 21 17 26 23 03 14 09 15 29
  21643600.411   -22190327.563 9 -17279231.27747  21643599.648    21643608.1464
  21069091.846   -23825955.858 9 -18333626.64847  21069091.112    21069099.7304
  24386718.671    -3178309.024 7  -2461258.05745  24386718.426    24386727.7994
  21306711.188   -21343677.905 9 -16614282.26247  21306710.351    21306718.4364
  21995009.980   -18600971.555 8 -14455227.81847  21995009.432    21995018.2924
  23012010.012   -10661917.471 8  -8021741.09246  23012009.378    23012020.8034
  23967542.902    -3763768.639 7  -2916915.40645  23967542.326    23967555.6444
  20411243.810   -27406074.907 9 -21337883.43548  20411242.881    20411250.9554
  23243683.920    -8052756.772 8  -6232611.45145  23243683.663    23243697.0834
 01  4 23  0 26 30.0000000  0  9 21 17 26 23 03 14 09 15 29
  21637492.740   -22222423.444 9 -17304241.00647  21637491.976    21637500.4834
  21075759.224   -23790918.475 9 -18306324.81247  21075758.506    21075767.1354
  24407156.815    -3070906.092 7  -2377567.44745  24407156.537    24407166.0174
  21314176.505   -21304447.530 9 -16583713.14547  21314175.663    21314183.7324
  21986538.696   -18645488.312 8 -14489916.16847  21986538.157    21986547.0054
  22991909.082   -10767547.831 8  -8104050.18946  22991908.434    22991919.7504
  23957681.031    -3815592.236 7  -2957297.29545  23957680.543    23957693.6424
  20413026.119   -27396708.948 9 -21330585.27348  20413025.177    20413033.2594
  23224053.360    -8155915.113 8  -6312994.24345  23224053.043    23224066.3264
 01  4 23  0 27  0.0000000  0  9 21 17 26 23 03 14 09 15 29
  21631423.694   -22254316.212 9 -17329092.46247  21631422.938    21631431.4444
  21082488.370   -23755556.819 9 -18278770.29147  21082487.637    21082496.2704
  24427630.949    -2963313.610 7  -2293729.08045  24427630.843    24427640.2114
  21321670.266   -21265067.632 9 -16553027.50547  21321669.425    21321677.4724
  21978166.294   -18689485.398 8 -14524199.57747  21978165.782    21978174.5984
  22971848.727   -10872964.761 8  -8186192.99546  22971848.041    22971859.2784
  23947885.013    -3867069.269 7  -2997409.12645  23947884.535    23947897.5214
  20414871.942   -27387008.948 9 -21323026.81748  20414871.009    20414879.0734
  23204457.262    -8258891.784 8  -6393235.47545  23204456.960    23204470.1684
 01  4 23  0 27 30.0000000  0  9 21 17 26 23 03 14 09 15 29
  21625393.662   -22286004.073 9 -17353784.25247  21625392.912    21625401.4324
  21089279.679   -23719868.345 9 -18250961.10947  21089278.926    21089287.5974
  24448140.891    -2855532.397 7  -2209743.70945  24448140.755    24448150.3094
  21329192.570   -21225537.587 9 -16522224.88247  21329191.728    21329199.7474
  21969893.459   -18732959.321 8 -14558075.32247  21969892.930    21969901.7384
  22951829.730   -10978163.838 8  -8268166.04346  22951829.100    22951840.2874
  23938156.231    -3918194.751 8  -3037247.00845  23938155.749    23938168.7624
  20416781.879   -27376972.093 9 -21315205.87548  20416780.947    20416789.0224
  23184896.620    -8361682.408 8  -6473331.73646  23184896.311    23184909.4224
 01  4 23  0 28  0.0000000  0  9 21 17 26 23 03 14 09 15 29
  21619401.530   -22317492.627 9 -17378320.74247  21619400.780    21619409.3274
  21096132.363   -23683857.146 9 -18222900.46247  21096131.632    21096140.3344
  24468685.400    -2747569.850 7  -2125616.97545  24468685.173    24468694.8484
  21336742.320   -21185863.275 9 -16491309.84447  21336741.481    21336749.5314
  21961719.528   -18775913.385 8 -14591545.98547  21961718.998    21961727.8004
  22931851.756   -11083147.381 8  -8349971.12546  22931851.220    22931862.3624
  23928493.665    -3968970.471 7  -3076812.30645  23928493.160    23928506.4804
  20418755.251   -27366602.071 9 -21307125.32548  20418754.311    20418762.4064
  23165371.009    -8464289.215 8  -6553284.78246  23165370.658    23165383.6754
 01  4 23  0 28 30.0000000  0  9 21 17 26 23 03 14 09 15 29
  21613447.971   -22348778.332 9 -17402699.17247  21613447.242    21613455.7824
  21103047.371   -23647518.565 9 -18194584.71047  21103046.655    21103055.3514
  24489264.557    -2639425.078 7  -2041348.31245  24489264.445    24489274.2034
  21344320.057   -21146042.006 9 -16460280.28947  21344319.225    21344327.2794
  21953645.654   -18818341.889 9 -14624607.12047  21953645.138    21953653.9034
  22911916.135   -11187908.833 8  -8431603.19046  22911915.491    22911926.6154
  23918898.780    -4019389.644 7  -3116099.80045  23918898.282    23918911.5424
  20420792.846   -27355894.220 9 -21298781.53048  20420791.920    20420800.0014
  23145881.421    -8566706.052 8  -6633089.77946  23145881.091    23145894.0354
 01  4 23  0 29  0.0000000  0  9 21 17 26 23 03 14 09 15 29
  21607532.836   -22379862.527 9 -17426920.58147  21607532.107    21607540.6344
  21110024.679   -23610852.819 9 -18166014.02347  21110023.945    21110032.6344
  24509877.717    -2531101.448 7  -1956940.26945  24509877.634    24509887.3434
  21351925.381   -21106075.601 9 -16429137.65247  21351924.550    21351932.6254
  21945671.911   -18860244.205 8 -14657258.23747  21945671.378    21945680.1404
  22892023.163   -11292446.044 8  -8513060.51546  22892022.563    22892033.6004
  23909372.753    -4069449.916 8  -3155107.72345  23909372.325    23909384.8814
  20422894.829   -27344848.209 9 -21290174.24548  20422893.925    20422901.9854
  23126428.267    -8668931.029 8  -6712745.31046  23126428.068    23126440.9284
 01  4 23  0 29 30.0000000  0 10 21 17 26 23 03 14 09 15 29 31
  21601654.809   -22410751.389 9 -17450989.77747  21601654.076    21601662.6204
  21117063.235   -23573864.948 9 -18137192.32847  21117062.502    21117071.1834
  24530523.441    -2422607.362 7  -1872399.36345  24530523.482    24530533.0074
  21359556.996   -21065971.025 9 -16397887.33647  21359556.177    21359564.2834
  21937797.428   -18901624.920 9 -14689502.90747  21937796.869    21937805.5734
  22872172.209   -11396762.450 8  -8594345.78946  22872171.556    22872182.5214
  23899914.323    -4119154.476 8  -3193838.42845  23899913.804    23899926.2924
  20425060.193   -27333469.040 9 -21281307.35448  20425059.276    20425067.3254
  23107011.048    -8770967.817 8  -6792254.18546  23107010.890    23107023.6964
  24459627.833    -2146593.752 7  -1644542.48845  24459626.883    24459638.0484
 01  4 23  0 30  0.0000000  0  9 21 17 23 03 14 09 15 29 31
  21595814.082   -22441444.646 9 -17474906.55447  21595813.320    21595821.8714
  21124163.366   -23536553.431 9 -18108118.44447  21124162.656    21124171.3654
  21367214.888   -21025728.359 9 -16366529.41747  21367214.095    21367222.2014
  21930022.727   -18942481.084 9 -14721338.83647  21930022.152    21930030.8514
  22852364.032   -11500854.196 8  -8675455.99946  22852363.329    22852374.2904
  23890524.009    -4168499.376 7  -3232288.78345  23890523.476    23890536.2384
  20427289.349   -27321754.683 9 -21272179.27348  20427288.432    20427296.4714
  23087630.466    -8872812.725 8  -6871613.53846  23087630.157    23087642.8884
  24442542.127    -2236379.680 7  -1714505.51245  24442541.161    24442552.2884
 01  4 23  0 30 30.0000000  0  9 21 17 23 03 14 09 15 29 31
  21590012.407   -22471932.256 9 -17498663.09347  21590011.666    21590020.2024
  21131327.276   -23498907.067 9 -18078783.63947  21131326.547    21131335.2574
  21374900.852   -20985338.372 9 -16335056.71347  21374900.054    21374908.1804
  21922350.073   -18982800.883 9 -14752756.82647  21922349.513    21922358.1954
  22832601.050   -11604708.129 8  -8756380.91846  22832600.390    22832611.3794
  23881204.799    -4217471.288 8  -3270448.54745  23881204.425    23881217.1044
  20429584.470   -27309693.778 9 -21262781.16348  20429583.554    20429591.5724
  23068288.747    -8974453.072 8  -6950813.51546  23068288.367    23068301.1024
  24425515.353    -2325855.322 7  -1784226.72745  24425514.409    24425525.5014
 01  4 23  0 31  0.0000000  0  9 21 17 23 03 14 09 15 29 31
  21584248.362   -22502222.333 9 -17522265.70347  21584247.626    21584256.1614
  21138553.612   -23460932.640 9 -18049193.19747  21138552.874    21138561.5814
  21382613.294   -20944809.456 9 -16303475.74147  21382612.495    21382620.5874
  21914778.441   -19022590.062 9 -14783761.34047  21914777.845    21914786.5114
  22812882.489   -11708329.152 8  -8837124.34746  22812881.821    22812892.7104
  23871956.113    -4266074.302 8  -3308320.94745  23871955.749    23871967.9264
  20431944.322   -27297292.683 9 -21253117.97248  20431943.400    20431951.4154
  23048984.934    -9075893.615 8  -7029857.79146  23048984.581    23048997.2994
  24408546.917    -2415024.973 7  -1853709.53345  24408545.985    24408557.0254
 01  4 23  0 31 30.0000000  0  9 21 17 23 03 14 09 15 29 31
  21578522.350   -22532312.635 9 -17545712.64947  21578521.610    21578530.1154
  21145842.829   -23422627.772 9 -18019345.27547  21145842.078    21145850.7524
  21390352.300   -20904141.022 9 -16271786.06647  21390351.468    21390359.5304
  21907308.325   -19061845.657 9 -14814350.08947  21907307.727    21907316.3734
  22793209.058   -11811712.907 8  -8917682.89646  22793208.361    22793219.1434
  23862778.035    -4314304.467 8  -3345902.71445  23862777.554    23862790.0204
  20434369.402   -27284548.777 9 -21243187.66148  20434368.471    20434376.4944
  23029719.976    -9177130.268 8  -7108743.21146  23029719.688    23029732.3044
  24391637.606    -2503884.171 7  -1922950.40045  24391636.533    24391647.8164
 01  4 23  0 32  0.0000000  0  9 21 17 23 03 14 09 15 29 31
  21572834.286   -22562203.694 9 -17569004.33247  21572833.538    21572841.9984
  21153195.179   -23383990.981 9 -17989238.69947  21153194.428    21153203.0734
  21398117.769   -20863333.179 9 -16239987.74547  21398116.942    21398125.0014
  21899940.160   -19100565.318 9 -14844521.21947  21899939.627    21899948.2574
  22773581.425   -11914855.881 8  -8998053.82146  22773580.718    22773591.4134
  23853671.700    -4362157.755 8  -3383190.78645  23853671.237    23853683.9234
  20436860.027   -27271460.328 9 -21232988.87048  20436859.097    20436867.1374
  23010494.542    -9278159.670 8  -7187467.14046  23010494.227    23010506.7274
  24374788.030    -2592429.558 7  -1991946.74045  24374786.778    24374798.1964
 01  4 23  0 32 30.0000000  0  9 21 17 23 03 14 09 15 29 31
  21567183.226   -22591899.938 9 -17592144.22047  21567182.490    21567190.9304
  21160610.112   -23345025.458 9 -17958875.99047  21160609.335    21160617.9854
  21405908.873   -20822390.639 9 -16208084.46947  21405908.048    21405916.1074
  21892673.566   -19138751.344 9 -14874276.53947  21892673.028    21892681.6504
  22753999.445   -12017759.111 8  -9078237.95446  22753998.725    22754009.3864
  23844637.212    -4409634.963 8  -3420185.87145  23844636.801    23844649.3554
  20439415.709   -27258030.084 9 -21222523.75148  20439414.778    20439422.8494
  22991308.258    -9378983.338 8  -7266030.76446  22991307.949    22991320.3194
  24357997.849    -2680661.930 7  -2060699.19045  24357996.770    24358008.0744
 01  4 23  0 33  0.0000000  0  9 21 17 23 03 14 09 15 29 31
  21561569.764   -22621398.635 9 -17615130.18147  21561569.026    21561577.4624
  21168088.235   -23305727.506 9 -17928254.22047  21168087.448    21168096.1404
  21413726.006   -20781311.496 9 -16176074.74747  21413725.177    21413733.2344
  21885509.373   -19176399.310 9 -14903612.58447  21885508.838    21885517.4944
  22734464.095   -12120417.014 8  -9158230.91546  22734463.409    22734473.9834
  23835675.166    -4456730.156 7  -3456883.33445  23835674.516    23835686.9004
  20442037.180   -27244254.157 9 -21211789.26148  20442036.243    20442044.3184
  22972162.251    -9479595.785 8  -7344429.82746  22972161.884    22972174.1274
  24341268.217    -2768575.803 7  -2129203.41645  24341267.341    24341278.4644
 01  4 23  0 33 30.0000000  0  9 21 17 23 03 14 09 15 29 31
  21555992.985   -22650704.575 9 -17637965.93647  21555992.247    21556000.6824
  21175628.914   -23266100.984 9 -17897376.42947  21175628.138    21175636.8544
  21421568.006   -20740101.438 9 -16143963.00647  21421567.188    21421575.2444
  21878446.973   -19213512.413 9 -14932531.85347  21878446.427    21878455.0814
  22714975.117   -12222831.419 8  -9238034.13546  22714974.451    22714984.9634
  23826785.167    -4503445.104 8  -3493284.39945  23826784.700    23826797.0604
  20444723.774   -27230135.948 9 -21200788.05748  20444722.833    20444730.9234
  22953055.973    -9579998.959 8  -7422665.80146  22953055.581    22953067.6654
  24324599.085    -2856173.186 7  -2197461.05345  24324598.041    24324609.0864
 01  4 23  0 34  0.0000000  0  9 21 17 23 03 14 09 15 29 31
  21550454.216   -22679810.986 9 -17660646.21747  21550453.462    21550461.9034
  21183233.702   -23226137.832 9 -17866236.33047  21183232.923    21183241.6384
  21429436.194   -20698753.983 9 -16111744.20547  21429435.361    21429443.4054
  21871488.027   -19250081.576 9 -14961027.27747  21871487.484    21871496.1634
  22695534.347   -12324992.321 8  -9317639.82546  22695533.710    22695544.1864
  23817970.008    -4549769.555 8  -3529381.20945  23817969.463    23817981.9934
  20447477.136   -27215667.078 9 -21189513.61248  20447476.197    20447484.2594
  22933991.395    -9680183.050 8  -7500731.07546  22933990.999    22934002.9474
  24307991.869    -2943443.817 7  -2265464.06245  24307990.978    24308002.0804
 01  4 23  0 34 30.0000000  0  9 21 17 23 03 14 09 15 29 31
  21544951.656   -22708726.823 9 -17683177.99647  21544950.931    21544959.3504
  21190900.904   -23185846.214 9 -17834840.27747  21190900.145    21190908.8724
  21437328.666   -20657278.916 9 -16079425.97147  21437327.827    21437335.8784
  21864631.100   -19286114.501 9 -14989104.84847  21864630.601    21864639.3004
  22676140.631   -12426905.868 8  -9397052.75846  22676140.025    22676150.5024
  23809227.742    -4595709.686 8  -3565178.58345  23809227.205    23809239.6704
  20450295.702   -27200855.453 9 -21177972.08248  20450294.775    20450302.7904
  22914967.302    -9780154.506 8  -7578630.66146  22914966.879    22914978.7364
  24291445.582    -3030393.723 7  -2333217.13845  24291444.853    24291456.0234
 01  4 23  0 35  0.0000000  0  9 21 17 23 03 14 09 15 29 31
  21539486.348   -22737447.078 9 -17705557.38147  21539485.605    21539494.0214
  21198631.864   -23145219.859 9 -17803183.40047  21198631.103    21198639.8494
  21445246.282   -20615671.573 9 -16047004.65847  21445245.436    21445253.5164
  21857877.719   -19321603.703 9 -15016758.74247  21857877.197    21857885.9244
  22656795.738   -12528563.569 8  -9476266.34246  22656795.018    22656805.4774
  23800560.308    -4641256.684 8  -3600669.62645  23800559.865    23800571.8024
  20453180.813   -27185694.278 9 -21166158.18148  20453179.868    20453187.8984
  22895985.151    -9879905.087 8  -7656358.12346  22895984.780    22895996.5224
  24274962.252    -3117014.178 7  -2400713.51845  24274961.653    24274972.7484
 01  4 23  0 35 30.0000000  0  9 21 17 23 03 14 09 15 29 31
  21534057.647   -22765974.951 9 -17727786.85847  21534056.893    21534065.2754
  21206426.115   -23104260.778 9 -17771267.25847  21206425.367    21206434.0914
  21453188.315   -20573935.891 9 -16014483.35247  21453187.467    21453195.5574
  21851227.498   -19356550.778 9 -15043990.20147  21851226.960    21851235.6644
  22637499.381   -12629965.568 8  -9555280.68346  22637498.706    22637509.0944
  23791968.015    -4686410.378 8  -3635854.17845  23791967.543    23791979.3394
  20456132.021   -27170185.618 9 -21154073.51648  20456131.085    20456139.1004
  22877045.025    -9979435.120 8  -7733913.74846  22877044.632    22877056.3184
  24258541.437    -3203305.557 7  -2467953.47945  24258540.961    24258551.9374
 01  4 23  0 36  0.0000000  0  9 21 17 23 03 14 09 15 29 31
  21528665.380   -22794311.551 9 -17749867.28247  21528664.596    21528672.9814
  21214283.713   -23062969.188 9 -17739092.00347  21214282.938    21214291.6534
  21461154.543   -20532073.188 9 -15981863.06147  21461153.702    21461161.7584
  21844680.593   -19390955.181 9 -15070798.78847  21844680.013    21844688.7014
  22618252.032   -12731110.210 8  -9634094.49346  22618251.381    22618261.7094
  23783450.464    -4731168.946 7  -3670730.72645  23783449.872    23783462.1304
  20459149.370   -27154329.244 9 -21141717.89748  20459148.426    20459156.4404
  22858147.196   -10078742.911 8  -7811296.19146  22858146.765    22858158.4544
  24242183.786    -3289265.797 7  -2534935.41945  24242183.296    24242194.1474
 01  4 23  0 36 30.0000000  0  9 21 17 23 03 14 09 15 29 31
  21523310.067   -22822453.512 9 -17771796.05247  21523309.303    21523317.6934
  21222205.340   -23021340.734 9 -17706654.27247  21222204.584    21222213.2704
  21469145.414   -20490080.838 9 -15949141.74347  21469144.560    21469152.6314
  21838237.865   -19424811.918 9 -15097180.63947  21838237.293    21838245.9674
  22599054.892   -12831991.016 8  -9712702.72946  22599054.241    22599064.4914
  23775009.193    -4775525.622 8  -3705294.27345  23775008.944    23775020.9704
  20462233.804   -27138120.295 9 -21129087.55248  20462232.881    20462240.9124
  22839292.739   -10177822.297 8  -7888500.67346  22839292.378    22839304.0234
  24225890.241    -3374888.659 7  -2601654.44645  24225889.776    24225900.7504
 01  4 23  0 37  0.0000000  0  9 21 17 23 03 14 09 15 29 31
  21517990.739   -22850406.550 9 -17793577.60247  21517989.986    21517998.3914
  21230190.320   -22979379.657 9 -17673957.34847  21230189.565    21230198.2524
  21477159.857   -20447964.627 9 -15916323.90547  21477159.022    21477167.1124
  21831898.703   -19458124.441 9 -15123138.41347  21831898.122    21831906.7924
  22579907.663   -12932609.973 8  -9791106.91946  22579906.956    22579917.0974
  23766644.400    -4819482.406 7  -3739546.11845  23766643.995    23766656.2504
  20465384.623   -27121562.736 9 -21116185.55448  20465383.680    20465391.7064
  22820481.385   -10276675.576 8  -7965528.95646  22820481.040    22820492.6654
  24209660.448    -3460176.085 7  -2668112.09545  24209659.871    24209670.7924
 01  4 23  0 37 30.0000000  0  9 21 17 23 03 14 09 15 29 31
  21512708.169   -22878166.447 9 -17815208.66447  21512707.413    21512715.7914
  21238239.419   -22937081.420 9 -17640997.71247  21238238.653    21238247.3704
  21485198.445   -20405721.615 9 -15883407.27747  21485197.607    21485205.6964
  21825664.122   -19490887.591 9 -15148668.11447  21825663.498    21825672.1584
  22560811.457   -13032960.852 8  -9869302.23046  22560810.676    22560820.7284
  23758356.788    -4863032.590 8  -3773481.10545  23758356.453    23758369.0324
  20468602.640   -27104651.979 9 -21103008.34848  20468601.702    20468609.7094
  22801714.245   -10375296.745 8  -8042376.39146  22801713.882    22801725.4794
  24193495.849    -3545121.760 7  -2734303.44845  24193495.212    24193506.1244
 01  4 23  0 38  0.0000000  0  9 21 17 23 03 14 09 15 29 31
  21507461.246   -22905738.970 9 -17836693.71447  21507460.495    21507468.8974
  21246351.915   -22894450.091 9 -17607778.52347  21246351.137    21246359.8914
  21493260.086   -20363357.231 9 -15850396.07847  21493259.246    21493267.3384
  21819533.365   -19523104.606 9 -15173772.24747  21819532.772    21819541.4214
  22541765.808   -13133045.420 8  -9947290.01446  22541765.041    22541775.0354
  23750146.534    -4906178.053 8  -3807100.82845  23750146.146    23750158.4224
  20471887.215   -27087391.392 9 -21089558.54148  20471886.268    20471894.3024
  22782990.916   -10473687.627 8  -8119044.39246  22782990.544    22783002.0794
  24177395.821    -3629727.601 7  -2800229.98845  24177395.248    24177406.1264
 01  4 23  0 38 30.0000000  0  9 21 17 23 03 14 09 15 29 31
  21502250.405   -22933122.077 9 -17858031.16547  21502249.622    21502258.0324
  21254528.381   -22851482.499 9 -17574297.30847  21254527.627    21254536.3894
  21501345.184   -20320869.822 9 -15817289.00247  21501344.349    21501352.4274
  21813507.266   -19554771.738 9 -15198447.89947  21813506.674    21813515.3224
  22522771.827   -13232858.542 8 -10025066.27746  22522771.070    22522781.0274
  23742014.269    -4948913.702 7  -3840401.20945  23742013.747    23742025.7144
  20475238.934   -27069777.916 9 -21075833.74948  20475238.008    20475246.0204
  22764312.392   -10571843.470 8  -8195529.24046  22764311.935    22764323.3674
  24161361.713    -3713988.044 7  -2865887.39945  24161360.948    24161371.7734
 01  4 23  0 39  0.0000000  0  9 21 17 23 03 14 09 15 29 31
  21497075.407   -22960316.842 9 -17879221.85447  21497074.625    21497083.0144
  21262768.803   -22808179.091 9 -17540554.42247  21262768.022    21262776.7344
  21509453.330   -20278261.220 9 -15784087.49247  21509452.476    21509460.5854
  21807585.832   -19585888.749 9 -15222694.88347  21807585.263    21807593.9364
  22503829.883   -13332398.442 8 -10102629.64946  22503829.124    22503839.0224
  23733960.015    -4991237.442 8  -3873380.52945  23733959.452    23733971.6634
  20478657.886   -27051811.273 9 -21061833.76248  20478656.941    20478664.9334
  22745678.874   -10669762.661 8  -8271829.68446  22745678.415    22745689.6994
  24145393.487    -3797901.445 7  -2931274.36845  24145392.742    24145403.5394
 01  4 23  0 39 30.0000000  0  9 21 17 23 03 14 09 15 29 31
  21491936.643   -22987321.176 9 -17900264.16347  21491935.862    21491944.2344
  21271073.707   -22764536.945 9 -17506547.58047  21271072.903    21271081.5894
  21517584.789   -20235530.170 9 -15750790.57847  21517583.956    21517592.0494
  21801769.716   -19616452.262 9 -15246510.57547  21801769.159    21801777.8224
  22484940.748   -13431660.530 8 -10179976.54546  22484940.020    22484949.8954
  23725985.344    -5033144.307 8  -3906035.10145  23725984.982    23725996.9124
  20482144.672   -27033488.220 9 -21047556.06548  20482143.707    20482151.6784
  22727091.213   -10767440.605 8  -8347942.16446  22727090.803    22727101.9504
  24129492.160    -3881463.130 7  -2996387.30145  24129491.331    24129502.1884
 01  4 23  0 40  0.0000000  0  9 21 17 23 03 14 09 15 29 31
  21486833.479   -23014138.473 9 -17921160.72547  21486832.705    21486841.0624
  21279442.631   -22720558.069 9 -17472278.35447  21279441.829    21279450.5384
  21525738.929   -20192680.078 9 -15717400.91147  21525738.062    21525746.1554
  21796058.701   -19646463.655 9 -15269896.04647  21796058.163    21796066.8014
  22466104.618   -13530644.468 8 -10257106.71146  22466103.880    22466113.7154
  23718090.120    -5074634.271 7  -3938364.81145  23718089.569    23718101.4004
  20485698.941   -27014810.565 9 -21033002.04548  20485697.966    20485705.9384
  22708549.488   -10864877.538 8  -8423866.82046  22708548.959    22708560.1094
  24113657.718    -3964672.891 7  -3061225.99045  24113657.112    24113667.7834
 01  4 23  0 40 30.0000000  0  9 21 17 23 03 14 09 15 29 31
  21481765.443   -23040771.047 9 -17941913.33947  21481764.674    21481773.0104
  21287875.338   -22676244.062 8 -17437747.99247  21287874.541    21287883.2744
  21533915.099   -20149714.006 9 -15683920.86747  21533914.231    21533922.3124
  21790452.610   -19675923.852 9 -15292852.00847  21790452.094    21790460.6864
  22447321.441   -13629350.062 8 -10334019.97746  22447320.744    22447330.5144
  23710273.974    -5115706.578 8  -3970369.04345  23710273.599    23710285.3494
  20489320.424   -26995779.644 9 -21018172.75248  20489319.449    20489327.4314
  22690053.558   -10962073.102 8  -8499603.40646  22690053.034    22690064.1224
  24097890.485    -4047529.839 7  -3125789.75845  24097889.869    24097900.4724
 01  4 23  0 41  0.0000000  0  9 21 17 23 03 14 09 15 29 31
  21476733.173   -23067215.648 9 -17962519.49247  21476732.418    21476740.7444
  21296372.593   -22631590.613 8 -17402953.12947  21296371.818    21296380.5814
  21542113.914   -20106629.126 9 -15650348.24647  21542113.035    21542121.0984
  21784952.256   -19704828.317 9 -15315374.94547  21784951.702    21784960.3044
  22428592.461   -13727770.640 8 -10410711.16446  22428591.769    22428601.4814
  23702538.905    -5156354.936 8  -4002042.93345  23702538.434    23702550.2724
  20493010.008   -26976390.608 9 -21003064.41048  20493009.055    20493017.0334
  22671604.725   -11059021.232 8  -8575147.18246  22671604.235    22671615.2854
  24082191.583    -4130027.552 7  -3190073.58945  24082191.086    24082201.5974
 01  4 23  0 41 30.0000000  0  9 21 17 23 03 14 09 15 29 31
  21471736.274   -23093474.575 9 -17982980.96047  21471735.507    21471743.8094
  21304934.271   -22586598.696 8 -17367894.52747  21304933.501    21304942.2874
  21550334.865   -20063427.819 9 -15616684.90347  21550333.974    21550342.0664
  21779557.674   -19733176.921 9 -15337464.74347  21779557.127    21779565.7304
  22409917.875   -13825905.393 8 -10487179.62446  22409917.208    22409926.8574
  23694884.613    -5196578.060 8  -4033385.46045  23694884.104    23694895.9814
  20496767.635   -26956644.069 9 -20987677.50148  20496766.694    20496774.6904
  22653203.189   -11155720.923 8  -8650497.39046  22653202.765    22653213.6894
  24066561.221    -4212164.963 7  -3254076.69245  24066560.727    24066571.2734
 01  4 23  0 42  0.0000000  0  9 21 17 23 03 14 09 15 29 31
  21466774.557   -23119548.334 9 -18003298.14147  21466773.792    21466782.0834
  21313560.440   -22541268.009 8 -17332571.95147  21313559.690    21313568.4954
  21558577.744   -20020111.183 9 -15582931.70147  21558576.858    21558584.9394
  21774269.049   -19760968.586 9 -15359120.56447  21774268.528    21774277.1334
  22391298.233   -13923751.805 8 -10563423.41046  22391297.518    22391307.0834
  23687311.650    -5236373.536 8  -4064394.76345  23687311.106    23687322.9954
  20500593.432   -26936539.282 9 -20972011.43548  20500592.505    20500600.4764
  22634849.350   -11252169.988 8  -8725652.30346  22634848.940    22634859.8184
  24051000.010    -4293939.702 8  -3317797.17445  24050999.490    24051010.0234
 01  4 23  0 42 30.0000000  0  9 21 17 23 03 14 09 15 29 31
  21461847.540   -23145439.772 9 -18023473.25747  21461846.783    21461855.0574
  21322250.586   -22495600.911 8 -17296987.23147  21322249.844    21322258.6634
  21566841.820   -19976683.063 9 -15549091.61647  21566840.937    21566849.0354
  21769086.014   -19788205.537 9 -15380344.13647  21769085.476    21769094.0784
  22372733.448   -14021310.145 8 -10639442.73346  22372732.660    22372742.1784
  23679820.225    -5275741.402 8  -4095070.87345  23679819.582    23679831.2784
  20504487.064   -26916078.323 9 -20956067.82848  20504486.100    20504494.0674
  22616543.059   -11348369.073 8  -8800612.42046  22616542.683    22616553.5514
  24035507.695    -4375352.009 7  -3381235.26845  24035507.145    24035517.6424
 01  4 23  0 43  0.0000000  0  9 21 17 23 03 14 09 15 29 31
  21456955.639   -23171146.784 9 -18043504.65247  21456954.869    21456963.1574
  21331005.474   -22449593.662 8 -17261137.45847  21331004.753    21331013.5704
  21575127.576   -19933141.065 9 -15515162.79347  21575126.711    21575134.8384
  21764009.334   -19814883.582 9 -15401132.19847  21764008.760    21764017.3464
  22354224.499   -14118574.716 8 -10715233.12946  22354223.703    22354233.2014
  23672411.074    -5314676.043 8  -4125409.40245  23672410.422    23672421.9344
  20508449.168   -26895257.253 9 -20939843.62248  20508448.217    20508456.1784
  22598285.406   -11444312.589 8  -8875373.39746  22598285.113    22598295.9084
  24020085.492    -4456396.236 8  -3444386.53345  24020084.901    24020095.4184
 01  4 23  0 43 30.0000000  0  9 21 17 23 03 14 09 15 29 31
  21452098.687   -23196670.058 9 -18063392.88547  21452097.912    21452106.1724
  21339825.090   -22403246.503 8 -17225022.82847  21339824.337    21339833.1934
  21583434.768   -19889486.477 9 -15481146.24247  21583433.900    21583442.0404
  21759039.026   -19841002.547 9 -15421484.62347  21759038.491    21759047.0214
  22335771.731   -14215543.851 8 -10790793.32946  22335770.948    22335780.4004
  23665084.498    -5353175.574 8  -4155408.84245  23665083.963    23665095.7634
  20512479.874   -26874075.806 9 -20923338.59948  20512478.926    20512486.8904
  22580076.816   -11539998.848 8  -8949933.92346  22580076.489    22580087.2334
  24004733.715    -4537070.536 7  -3507249.55945  24004733.050    24004743.4434
 01  4 23  0 44  0.0000000  0  9 21 17 23 03 14 09 15 29 31
  21447276.702   -23222009.719 9 -18083138.04047  21447275.930    21447284.1584
  21348709.529   -22356558.738 8 -17188642.78447  21348708.756    21348717.6214
  21591763.238   -19845720.067 9 -15447042.55147  21591762.384    21591770.5084
  21754175.456   -19866560.844 9 -15441400.15147  21754174.908    21754183.4284
  22317375.731   -14312214.548 8 -10866120.97846  22317375.003    22317384.4244
  23657841.502    -5391237.189 8  -4185067.04345  23657841.017    23657852.9494
  20516579.336   -26852532.990 9 -20906551.98747  20516578.368    20516586.3294
  22561917.614   -11635425.288 8  -9024291.98646  22561917.240    22561928.0154
  23989452.821    -4617372.007 8  -3569822.04245  23989452.108    23989462.7154
 01  4 23  0 44 30.0000000  0  9 21 17 23 03 14 09 15 29 31
  21442489.253   -23247167.891 9 -18102741.77547  21442488.474    21442496.6764
  21357658.621   -22309531.165 8 -17151997.94547  21357657.841    21357666.7134
  21600112.607   -19801843.900 9 -15412853.33547  21600111.744    21600119.8594
  21749418.549   -19891558.677 9 -15460878.96647  21749417.981    21749426.4834
  22299036.725   -14408585.677 8 -10941215.20046  22299036.039    22299045.4244
  23650682.335    -5428859.575 8  -4214383.02945  23650681.863    23650693.4934
  20520747.483   -26830629.279 9 -20889484.15947  20520746.513    20520754.4554
  22543808.069   -11730590.834 8  -9098446.75946  22543807.657    22543818.4324
  23974243.104    -4697299.090 8  -3632102.80545  23974242.467    23974252.9894
 01  4 23  0 45  0.0000000  0  9 21 17 23 03 14 09 15 29 31
  21437736.112   -23272145.684 9 -18122204.96747  21437735.315    21437743.5164
  21366672.318   -22262163.825 8 -17115088.36747  21366671.551    21366680.4084
  21608482.596   -19757859.402 9 -15378579.71647  21608481.719    21608489.8174
  21744768.258   -19915995.953 9 -15479920.98947  21744767.681    21744776.2194
  22280755.193   -14504655.105 8 -11016074.33946  22280754.525    22280763.8844
  23643606.733    -5466040.679 8  -4243355.17345  23643606.173    23643617.7434
  20524984.361   -26808364.346 9 -20872134.86747  20524983.400    20524991.3344
  22525748.506   -11825493.646 8  -9172396.81746  22525748.070    22525758.7854
  23959105.092    -4776849.790 7  -3694090.29645  23959104.378    23959114.8484
 01  4 23  0 45 30.0000000  0  9 21 17 23 03 14 09 15 29 31
  21433017.521   -23296941.885 9 -18141526.64647  21433016.741    21433024.9404
  21375750.927   -22214455.383 8 -17077912.99347  21375750.156    21375759.0494
  21616873.190   -19713766.491 9 -15344221.61147  21616872.331    21616880.4324
  21740225.002   -19939870.900 9 -15498524.82647  21740224.416    21740232.9244
  22262531.721   -14600419.447 8 -11090695.73846  22262531.031    22262540.3514
  23636615.647    -5502777.070 8  -4271980.75345  23636615.172    23636626.8424
  20529290.275   -26785736.549 9 -20854502.81147  20529289.319    20529297.2704
  22507739.625   -11920130.474 8  -9246139.59446  22507739.126    22507749.7874
  23944039.162    -4856020.759 7  -3755781.89745  23944038.527    23944049.0274
 01  4 23  0 46  0.0000000  0  9 21 17 23 03 14 09 15 29 31
  21428333.250   -23321557.661 9 -18160707.74047  21428332.474    21428340.6574
  21384894.522   -22166405.633 8 -17040471.66447  21384893.716    21384902.6154
  21625284.204   -19669566.172 9 -15309779.81247  21625283.348    21625291.4714
  21735788.857   -19963182.797 9 -15516689.92147  21735788.257    21735796.7954
  22244366.733   -14695876.389 8 -11165077.61746  22244366.056    22244375.3234
  23629710.115    -5539066.296 8  -4300257.90145  23629709.582    23629721.3124
  20533665.376   -26762745.158 9 -20836587.44247  20533664.410    20533672.3684
  22489781.701   -12014499.349 8  -9319673.59146  22489781.219    22489791.8024
  23929046.135    -4934809.499 7  -3817175.66845  23929045.478    23929055.9704
 01  4 23  0 46 30.0000000  0  9 21 17 23 03 14 09 15 29 31
  21423683.134   -23345994.060 9 -18179749.05947  21423682.373    21423690.5304
  21394103.054   -22118014.619 8 -17002764.41547  21394102.251    21394111.1804
  21633715.431   -19625259.782 9 -15275255.35447  21633714.601    21633722.7084
  21731460.006   -19985930.904 9 -15534415.70847  21731459.444    21731467.9544
  22226260.622   -14791023.920 8 -11239218.39846  22226259.970    22226269.1774
  23622889.895    -5574906.222 8  -4328184.92645  23622889.315    23622901.0714
  20538109.773   -26739389.749 9 -20818388.41847  20538108.803    20538116.7524
  22471875.068   -12108598.398 8  -9392997.33846  22471874.595    22471885.1274
  23914126.183    -5013213.844 8  -3878269.89045  23914125.555    23914136.0854
 01  4 23  0 47  0.0000000  0  9 21 17 23 03 14 09 15 29 31
  21419067.219   -23370250.936 9 -18198650.49747  21419066.449    21419074.5694
  21403376.686   -22069281.698 8 -16964790.74247  21403375.891    21403384.7684
  21642166.749   -19580847.815 9 -15240648.63047  21642165.880    21642174.0204
  21727238.613   -20008114.473 9 -15551701.58647  21727238.056    21727246.5544
  22208213.969   -14885859.308 8 -11313115.95146  22208213.264    22208222.4764
  23616155.607    -5610294.258 8  -4355759.90345  23616155.146    23616166.3844
  20542623.559   -26715669.567 9 -20799905.16047  20542622.598    20542630.5464
  22454020.276   -12202425.186 8  -9466108.93646  22454019.836    22454030.2804
  23899279.948    -5091231.170 8  -3939062.55845  23899279.263    23899289.7704
 01  4 23  0 47 30.0000000  0  9 21 17 23 03 14 09 15 29 31
  21414484.907   -23394331.097 9 -18217414.22247  21414484.131    21414492.2464
  21412714.969   -22020209.016 8 -16926552.31547  21412714.176    21412723.0214
  21650637.503   -19536333.732 9 -15205962.33947  21650636.636    21650644.7644
  21723124.318   -20029735.252 9 -15568548.92847  21723123.754    21723132.2334
  22190226.582   -14980382.722 8 -11386770.40746  22190225.916    22190235.1124
  23609507.564    -5645230.314 8  -4382982.66745  23609507.029    23609518.1574
  20547206.496   -26691586.196 9 -20781138.89247  20547205.526    20547213.4824
  22436217.216   -12295979.988 8  -9539008.59846  22436216.801    22436227.1954
  23884507.394    -5168861.604 8  -3999553.74445  23884506.660    23884517.0164
 01  4 23  0 48  0.0000000  0  9 21 17 23 03 14 09 15 29 31
  21409936.558   -23418232.619 9 -18236038.75147  21409935.770    21409943.8874
  21422118.445   -21970793.523 8 -16888046.76447  21422117.646    21422126.4994
  21659128.079   -19491715.490 9 -15171194.88447  21659127.228    21659135.3654
  21719117.761   -20050789.630 9 -15584954.91747  21719117.208    21719125.6874
  22172299.627   -15074588.924 8 -11460177.68246  22172298.957    22172308.0984
  23602946.262    -5679709.528 8  -4409849.40745  23602945.791    23602957.0874
  20551859.176   -26667136.227 9 -20762086.96647  20551858.205    20551866.1624
  22418466.934   -12389257.674 8  -9611692.33346  22418466.519    22418476.9354
  23869809.492    -5246099.726 8  -4059739.22945  23869808.776    23869819.1114
 01  4 23  0 48 30.0000000  0  9 21 17 23 03 14 09 15 29 31
  21405421.912   -23441957.047 9 -18254525.28647  21405421.126    21405429.2404
  21431587.107   -21921035.473 8 -16849274.28647  21431586.302    21431595.1464
  21667638.159   -19446994.723 9 -15136347.54347  21667637.317    21667645.4464
  21715218.944   -20071277.738 9 -15600919.65447  21715218.427    21715226.9134
  22154433.352   -15168476.285 8 -11533336.53146  22154432.696    22154441.7544
  23596472.106    -5713730.490 8  -4436359.10545  23596471.722    23596482.9364
  20556581.598   -26642319.488 9 -20742749.24547  20556580.645    20556588.5874
  22400769.593   -12482256.792 8  -9684158.99646  22400769.211    22400779.6544
  23855186.450    -5322944.019 7  -4119617.84245  23855185.669    23855195.9524
 01  4 23  0 49  0.0000000  0  9 21 17 23 03 14 09 15 29 31
  21400941.217   -23465503.249 9 -18272872.95147  21400940.437    21400948.5354
  21441121.248   -21870933.325 8 -16810233.68147  21441120.461    21441129.2754
  21676167.854   -19402170.847 9 -15101419.85747  21676167.012    21676175.1404
  21711428.336   -20091197.651 9 -15616441.64847  21711427.801    21711436.2914
  22136628.452   -15262041.077 8 -11606244.01546  22136627.762    22136636.8034
  23590085.924    -5747289.254 8  -4462508.67845  23590085.584    23590096.4644
  20561374.166   -26617134.473 9 -20723124.56047  20561373.188    20561381.1674
  22383125.975   -12574974.025 8  -9756406.02146  22383125.565    22383135.9384
  23840639.105    -5399390.609 8  -4179186.52845  23840638.240    23840648.5894
 01  4 23  0 49 30.0000000  0  9 21 17 23 03 14 09 15 29 31
  21396493.828   -23488874.276 9 -18291084.11547  21396493.036    21396501.1094
  21450720.315   -21820489.755 8 -16770927.03247  21450719.526    21450728.3384
  21684716.460   -19357247.717 9 -15066414.81147  21684715.604    21684723.7164
  21707745.446   -20110551.444 9 -15631522.50147  21707744.851    21707753.3654
  22118884.879   -15355283.806 8 -11678900.55146  22118884.175    22118893.1574
  23583787.691    -5780386.322 8  -4488298.46945  23583787.285    23583798.2324
  20566236.381   -26591583.110 9 -20703214.40647  20566235.412    20566243.4154
  22365535.831   -12667409.936 8  -9828433.83546  22365535.432    22365545.7634
  23826167.211    -5475439.775 7  -4238445.54745  23826166.488    23826176.8534
 01  4 23  0 50  0.0000000  0  9 21 17 23 03 14 09 15 29 31
  21392079.912   -23512069.525 9 -18309158.30647  21392079.102    21392087.1704
  21460384.730   -21769702.949 8 -16731352.91947  21460383.955    21460392.7624
  21693284.001   -19312224.832 9 -15031332.05747  21693283.153    21693291.3014
  21704170.670   -20129336.999 9 -15646160.57247  21704170.066    21704178.5964
  22101203.215   -15448200.702 8 -11751303.18446  22101202.546    22101211.5194
  23577578.012    -5813017.887 8  -4513725.51245  23577577.573    23577588.7214
  20571168.755   -26565663.389 9 -20683017.22047  20571167.787    20571175.8044
  22347999.949   -12759560.953 8  -9900239.65846  22347999.582    22348009.8244
  23811771.764    -5551087.551 8  -4297391.78145  23811771.134    23811781.5714
 01  4 23  0 50 30.0000000  0  9 21 17 23 03 14 09 15 29 31
  21387699.184   -23535090.358 9 -18327096.59347  21387698.394    21387706.4324
  21470114.514   -21718573.083 8 -16691511.49147  21470113.710    21470122.4854
  21701870.301   -19267103.363 9 -14996172.48947  21701869.488    21701877.6174
  21700704.005   -20147554.288 9 -15660355.84347  21700703.416    21700711.9214
  22083583.996   -15540789.745 8 -11823450.35846  22083583.344    22083592.2964
  23571457.508    -5845182.001 8  -4538788.36645  23571457.029    23571467.8704
  20576171.199   -26539375.238 9 -20662532.94847  20576170.234    20576178.2654
  22330518.632   -12851425.350 8  -9971822.13546  22330518.224    22330528.4214
  23797453.143    -5626332.138 8  -4356023.82645  23797452.487    23797462.8564
 01  4 23  0 51  0.0000000  0  9 21 17 23 03 14 09 15 29 31
  21383351.226   -23557938.784 9 -18344900.53247  21383350.454    21383358.4804
  21479909.151   -21667101.965 8 -16651404.14947  21479908.329    21479917.1594
  21710474.906   -19221886.130 9 -14960938.29147  21710474.071    21710482.1644
  21697345.218   -20165204.734 9 -15674109.41847  21697344.621    21697353.1154
  22066027.191   -15633050.769 8 -11895341.92746  22066026.548    22066035.4344
  23565425.748    -5876878.631 8  -4563486.92645  23565425.206    23565435.8334
  20581243.498   -26512720.088 9 -20641762.69647  20581242.532    20581250.5864
  22313091.902   -12943002.870 8 -10043181.07146  22313091.469    22313101.6224
  23783211.343    -5701173.124 8  -4414341.39745  23783210.666    23783221.0164
 01  4 23  0 51 30.0000000  0  9 21 17 23 03 14 09 15 29 31
  21379036.665   -23580611.949 9 -18362567.90547  21379035.862    21379043.8744
  21489769.475   -21615285.560 8 -16611027.76847  21489768.663    21489777.5314
  21719098.296   -19176570.009 9 -14925627.03647  21719097.462    21719105.5374
  21694095.168   -20182283.843 9 -15687417.79347  21694094.581    21694103.0244
  22048534.009   -15724977.428 8 -11966972.95146  22048533.378    22048542.2274
  23559483.748    -5908101.846 8  -4587816.53745  23559483.329    23559494.3664
  20586386.606   -26485692.934 9 -20620702.58447  20586385.642    20586393.6674
  22295720.885   -13034287.684 8 -10114311.94146  22295720.404    22295730.5164
  23769047.557    -5775604.223 8  -4472339.57045  23769046.911    23769057.0794
 01  4 23  0 52  0.0000000  0  9 21 17 23 03 14 09 15 29 31
  21374755.212   -23603111.023 9 -18380099.62647  21374754.406    21374762.4194
  21499695.421   -21563124.511 8 -16570382.82647  21499694.611    21499703.4854
  21727740.130   -19131156.871 9 -14890240.17147  21727739.279    21727747.3654
  21690953.729   -20198792.102 9 -15700281.35247  21690953.126    21690961.5584
  22031104.697   -15816568.491 8 -12038342.47346  22031104.054    22031112.8744
  23553632.580    -5938850.147 8  -4611776.11845  23553632.159    23553643.1114
  20591600.382   -26458294.442 9 -20599353.12147  20591599.412    20591607.4134
  22278405.723   -13125278.664 8 -10185213.84346  22278405.291    22278415.3364
  23754961.872    -5849624.387 8  -4530017.52645  23754961.213    23754971.5424
 01  4 23  0 52 30.0000000  0  9 21 17 23 03 14 09 15 29 31
  21370505.942   -23625440.797 9 -18397499.42647  21370505.147    21370513.1704
  21509686.142   -21510622.841 8 -16529472.46747  21509685.365    21509694.2504
  21736399.493   -19085651.666 9 -14854781.58347  21736398.634    21736406.7134
  21687920.204   -20214733.179 9 -15712702.95347  21687919.646    21687928.0424
  22013738.925   -15907825.751 8 -12109451.88546  22013738.256    22013747.0294
  23547871.206    -5969125.804 8  -4635367.44145  23547870.669    23547881.3314
  20596884.097   -26430528.281 9 -20577717.15947  20596883.125    20596891.1204
  22261146.127   -13215977.770 8 -10255888.32046  22261145.700    22261155.7054
  23740954.216    -5923235.115 8  -4587376.44545  23740953.550    23740963.7664
 01  4 23  0 53  0.0000000  0  9 21 17 23 03 14 09 15 29 31
  21366289.930   -23647595.817 9 -18414763.05147  21366289.136    21366297.1804
  21519742.808   -21457774.840 8 -16488292.23947  21519742.012    21519750.9004
  21745077.234   -19040049.838 9 -14819247.69347  21745076.397    21745084.4514
  21684995.705   -20230101.264 9 -15724678.06847  21684995.160    21685003.5614
  21996438.178   -15998741.519 8 -12180295.20246  21996437.464    21996446.1714
  23542201.208    -5998920.890 8  -4658584.27245  23542200.823    23542211.2694
  20602239.001   -26402388.089 9 -20555789.75147  20602238.037    20602246.0524
  22243943.518   -13306377.372 8 -10326329.41646  22243943.099    22243953.0524
  23727025.953    -5996428.692 8  -4644410.31945  23727025.172    23727035.3734
 01  4 23  0 53 30.0000000  0  9 21 17 23 03 14 09 15 29 31
  21362106.076   -23669581.810 9 -18431894.96647  21362105.302    21362113.3504
  21529864.475   -21404585.277 8 -16446845.85747  21529863.675    21529872.5704
  21753772.277   -18994357.207 9 -14783643.05647  21753771.407    21753779.4764
  21682179.443   -20244900.738 9 -15736210.10247  21682178.900    21682187.3124
  21979201.837   -16089318.444 8 -12250874.48446  21979201.146    21979209.8424
  23536622.279    -6028238.245 8  -4681428.82145  23536621.776    23536632.4044
  20607664.229   -26373878.428 9 -20533574.43847  20607663.262    20607671.2954
  22226797.319   -13396480.646 8 -10396539.60346  22226796.889    22226806.8104
  23713176.439    -6069208.189 8  -4701121.53945  23713175.610    23713185.7894
 01  4 23  0 54  0.0000000  0  9 21 17 23 03 14 09 15 29 31
  21357955.043   -23691395.480 9 -18448892.60447  21357954.246    21357962.3294
  21540051.869   -21351050.242 8 -16405130.27647  21540051.063    21540059.9994
  21762485.179   -18948570.648 9 -14747965.21647  21762484.296    21762492.3954
  21679472.192   -20259127.426 9 -15747295.81547  21679471.634    21679480.0274
  21962031.206   -16179550.447 8 -12321184.99147  21962030.473    21962039.1334
  23531135.198    -6057071.998 8  -4703896.55545  23531134.675    23531145.3604
  20613160.602   -26344994.794 9 -20511067.71247  20613159.637    20613167.6774
  22209708.702   -13486281.524 8 -10466514.16246  22209708.239    22209718.1244
  23699406.923    -6141567.207 8  -4757505.10045  23699406.093    23699416.2854
 01  4 23  0 54 30.0000000  0  9 21 17 23 03 14 09 15 29 31
  21353836.733   -23713037.306 9 -18465756.33947  21353835.947    21353844.0394
  21550305.074   -21297169.212 8 -16363145.09347  21550304.285    21550313.2654
  21771215.871   -18902690.576 9 -14712214.52947  21771215.011    21771223.0944
  21676874.062   -20272780.861 9 -15757934.84547  21676873.473    21676881.8314
  21944926.657   -16269435.156 8 -12391224.88447  21944925.904    21944934.5394
  23525740.546    -6085419.724 8  -4725985.60145  23525740.149    23525750.6914
  20618728.268   -26315736.449 9 -20488269.00547  20618727.312    20618735.3264
  22192678.011   -13575777.616 8 -10536251.22646  22192677.579    22192687.3944
  23685718.093    -6213502.901 8  -4813558.81045  23685717.189    23685727.3964
 01  4 23  0 55  0.0000000  0  9 21 17 23 03 14 09 15 29 31
  21349750.286   -23734511.655 9 -18482489.57247  21349749.496    21349757.5784
  21560623.410   -21242946.081 8 -16320893.34247  21560622.622    21560631.6194
  21779963.432   -18856721.900 9 -14676394.80047  21779962.566    21779970.6464
  21674384.320   -20285864.566 9 -15768129.92747  21674383.727    21674392.0914
  21927887.816   -16358974.160 8 -12460995.40547  21927887.080    21927895.6814
  23520438.255    -6113283.309 8  -4747697.34345  23520437.721    23520448.5374
  20624366.574   -26286106.920 9 -20465181.06447  20624365.629    20624373.5994
  22175705.030   -13664970.864 8 -10605752.30846  22175704.580    22175714.3744
  23672109.415    -6285016.886 8  -4869283.93945  23672108.619    23672118.5824
 01  4 23  0 55 30.0000000  0  9 21 17 23 03 14 09 15 29 31
  21345696.004   -23755816.907 9 -18499091.04347  21345695.223    21345703.2904
  21571007.330   -21188378.381 8 -16278373.10347  21571006.543    21571015.5824
  21788728.140   -18810663.102 9 -14640504.83847  21788727.278    21788735.3864
  21672003.436   -20298376.001 9 -15777879.08347  21672002.855    21672011.2684
  21910915.667   -16448163.000 8 -12530493.05147  21910914.929    21910923.4844
  23515228.687    -6140658.374 8  -4769028.43245  23515228.206    23515239.2834
  20630076.079   -26256103.387 9 -20441801.69047  20630075.116    20630083.0974
  22158790.429   -13753857.037 8 -10675014.10446  22158789.949    22158799.7524
  23658581.807    -6356104.974 8  -4924677.17345  23658580.966    23658590.8114
 01  4 23  0 56  0.0000000  0  9 21 17 23 03 14 09 15 29 31
  21341673.884   -23776953.159 9 -18515560.81747  21341673.097    21341681.1554
  21581456.900   -21133465.712 8 -16235584.04147  21581456.109    21581465.1464
  21797509.911   -18764514.631 9 -14604544.99847  21797509.048    21797517.1534
  21669731.606   -20310314.464 9 -15787181.76947  21669731.037    21669739.4464
  21894010.569   -16536999.022 8 -12599715.79547  21894009.892    21894018.3974
  23510112.639    -6167542.644 8  -4789977.12145  23510112.179    23510123.1634
  20635856.874   -26225725.069 9 -20418130.27547  20635855.934    20635863.9004
  22141934.675   -13842433.804 8 -10744034.81146  22141934.278    22141944.0284
  23645135.707    -6426764.454 8  -4979736.42745  23645134.835    23645144.6404
 01  4 23  0 56 30.0000000  0  9 21 17 23 03 14 09 15 29 31
  21337683.902   -23797920.641 9 -18531899.08247  21337683.119    21337691.1534
  21591972.149   -21078207.710 8 -16192525.89347  21591971.409    21591980.4424
  21806308.605   -18718277.165 9 -14568515.80747  21806307.757    21806315.8444
  21667568.908   -20321679.459 9 -15796037.59447  21667568.315    21667576.7264
  21877173.099   -16625479.812 8 -12668661.73147  21877172.439    21877180.9224
  23505090.585    -6193933.719 8  -4810541.48545  23505090.174    23505101.0074
  20641709.164   -26194971.157 9 -20394166.19047  20641708.223    20641716.1824
  22125138.302   -13930698.732 8 -10812812.52446  22125137.896    22125147.5754
  23631771.386    -6496993.116 8  -5034459.99245  23631770.676    23631780.5464
 01  4 23  0 57  0.0000000  0  9 21 17 23 03 14 09 15 29 31
  21333725.352   -23818722.812 9 -18548108.53447  21333724.570    21333732.5994
  21602552.716   -21022606.573 8 -16149200.36847  21602551.954    21602560.9794
  21815123.712   -18671953.633 9 -14532419.56047  21815122.855    21815130.9504
  21665514.972   -20332473.035 9 -15804448.16447  21665514.357    21665522.7654
  21860403.215   -16713605.550 9 -12737331.00247  21860402.558    21860410.9914
  23500162.306    -6219831.853 8  -4830721.74145  23500161.936    23500172.6424
  20647632.583   -26163843.511 9 -20369910.88747  20647631.612    20647639.6204
  22108401.257   -14018652.137 8 -10881347.49746  22108400.823    22108410.4324
  23618489.249    -6566790.618 8  -5088847.58345  23618488.470    23618498.3924
 01  4 23  0 57 30.0000000  0  9 21 17 23 03 14 09 15 29 31
  21329798.703   -23839357.415 9 -18564187.41747  21329797.918    21329805.9194
  21613198.944   -20966660.481 8 -16105606.05747  21613198.184    21613207.2074
  21823955.350   -18625542.892 9 -14496255.35547  21823954.511    21823962.6024
  21663570.158   -20342693.203 9 -15812411.92347  21663569.523    21663577.8934
  21843701.663   -16801372.389 9 -12805720.61647  21843700.991    21843709.4014
  23495328.571    -6245233.612 8  -4850515.21345  23495328.173    23495338.7284
  20653627.540   -26132339.951 9 -20345362.66647  20653626.572    20653634.5834
  22091724.091   -14106290.490 8 -10949636.98146  22091723.638    22091733.2214
  23605289.966    -6636152.974 8  -5142896.10945  23605289.208    23605299.1284
 01  4 23  0 58  0.0000000  0  9 21 17 23 03 14 09 15 29 31
  21325903.988   -23859824.190 9 -18580135.52547  21325903.175    21325911.1724
  21623911.005   -20910368.475 8 -16061742.19647  21623910.238    21623919.2934
  21832803.676   -18579044.722 9 -14460023.02147  21832802.835    21832810.9054
  21661734.688   -20352338.545 9 -15819927.76147  21661734.064    21661742.4394
  21827069.034   -16888777.116 9 -12873828.06547  21827068.335    21827076.7194
  23490589.781    -6270135.912 8  -4869919.49045  23490589.333    23490599.8404
  20659694.267   -26100459.020 9 -20320520.39147  20659693.272    20659701.3224
  22075107.500   -14193610.873 8 -11017678.68846  22075107.002    22075116.5514
  23592174.108    -6705077.258 8  -5196603.25945  23592173.278    23592183.2134
 01  4 23  0 58 30.0000000  0  9 21 17 23 03 14 09 15 29 31
  21322040.532   -23880126.760 9 -18595955.67947  21322039.719    21322047.6984
  21634688.455   -20853732.757 8 -16017610.52647  21634687.687    21634696.7484
  21841668.043   -18532462.326 9 -14423725.06047  21841667.188    21841675.2904
  21660008.102   -20361411.709 9 -15826997.75447  21660007.479    21660015.8624
  21810505.199   -16975820.141 9 -12941653.67447  21810504.492    21810512.8244
  23485945.979    -6294539.221 8  -4888934.97545  23485945.498    23485955.9524
  20665832.537   -26068202.338 9 -20295385.32347  20665831.543    20665839.5654
  22058551.299   -14280613.474 8 -11085472.78546  22058550.823    22058560.3344
  23579141.506    -6773563.621 8  -5249969.18845  23579140.651    23579150.5234
 01  4 23  0 59  0.0000000  0  9 21 17 23 03 14 09 15 29 31
  21318208.285   -23900265.240 9 -18611647.97947  21318207.482    21318215.4344
  21645531.379   -20796753.233 8 -15973210.95447  21645530.601    21645539.6094
  21850548.264   -18485796.389 9 -14387362.01347  21850547.421    21850555.5334
  21658390.432   -20369912.385 9 -15833621.65847  21658389.839    21658398.2244
  21794010.668   -17062498.870 9 -13009195.41347  21794009.971    21794018.2664
  23481397.413    -6318441.604 8  -4907560.11245  23481396.987    23481407.3234
  20672042.319   -26035569.699 9 -20269957.30647  20672041.334    20672049.3144
  22042055.929   -14367296.247 8 -11153017.65146  22042055.533    22042064.9994
  23566192.615    -6841609.627 8  -5302991.98545  23566191.845    23566201.7114
 01  4 23  0 59 30.0000000  0  9 21 17 23 03 14 09 15 29 31
  21314407.326   -23920239.144 9 -18627212.02847  21314406.523    21314414.4604
  21656439.801   -20739429.374 8 -15928543.05047  21656439.009    21656448.0474
  21859444.323   -18439047.227 9 -14350934.09847  21859443.482    21859451.6094
  21656881.871   -20377839.817 9 -15839798.86447  21656881.283    21656889.6464
  21777585.916   -17148810.841 9 -13076451.36547  21777585.252    21777593.5264
  23476944.702    -6341840.721 8  -4925793.08445  23476944.120    23476954.5214
  20678323.850   -26002560.179 9 -20244235.60247  20678322.855    20678330.8044
  22025621.912   -14453656.858 8 -11220311.48746  22025621.520    22025630.9424
  23553328.150    -6909212.690 8  -5355669.62845  23553327.301    23553337.1524
 01  4 23  1  0  0.0000000  0  9 21 17 23 03 14 09 15 29 31
  21310638.065   -23940046.722 9 -18642646.47547  21310637.253    21310645.1774
  21667414.173   -20681758.722 8 -15883604.93247  21667413.392    21667422.4894
  21868356.562   -18392212.990 9 -14314439.90547  21868355.722    21868363.8424
  21655482.895   -20385191.512 9 -15845527.45347  21655482.321    21655490.6794
  21761231.870   -17234751.474 9 -13143417.96547  21761231.163    21761239.4634
  23472588.549    -6364732.119 8  -4943630.43245  23472587.916    23472598.3004
  20684677.649   -25969170.723 9 -20218217.85047  20684676.656    20684684.6074
  22009250.096   -14539690.910 8 -11287350.87146  22009249.694    22009259.0984
  23540548.817    -6976368.349 8  -5407998.63145  23540547.908    23540557.8324
 01  4 23  1  0 30.0000000  0  9 21 17 23 03 14 09 15 29 31
  21306899.620   -23959692.080 9 -18657954.51347  21306898.831    21306906.7654
  21678453.939   -20623744.582 8 -15838399.15747  21678453.179    21678462.2854
  21877284.204   -18345297.897 9 -14277882.71547  21877283.332    21877291.4754
  21654192.825   -20391970.818 9 -15850810.02347  21654192.255    21654200.5974
  21744948.180   -17320322.288 9 -13210096.40747  21744947.476    21744955.7654
  23468328.611    -6387117.283 8  -4961073.32545  23468328.065    23468338.4014
  20691103.151   -25935404.295 9 -20191906.36147  20691102.188    20691110.1344
  21992940.181   -14625399.798 8 -11354136.87546  21992939.725    21992949.0714
  23527854.396    -7043077.647 8  -5459979.83345  23527853.536    23527863.5254
 01  4 23  1  1  0.0000000  0  9 21 17 23 03 14 09 15 29 31
  21303192.339   -23979173.901 9 -18673135.12347  21303191.557    21303199.4804
  21689559.326   -20565385.357 8 -15792924.48147  21689558.571    21689567.6684
  21886227.438   -18298301.003 9 -14241261.76747  21886226.561    21886234.7164
  21653011.998   -20398175.848 9 -15855645.11247  21653011.422    21653019.7754
  21728735.664   -17405519.317 9 -13276483.58647  21728734.930    21728743.1924
  23464165.671    -6408992.806 8  -4978119.09045  23464165.187    23464175.5854
  20697600.825   -25901258.880 9 -20165299.55447  20697599.860    20697607.8104
  21976692.759   -14710780.031 8 -11420666.79146  21976692.293    21976701.5904
  23515245.724    -7109336.826 8  -5511610.30545  23515244.805    23515254.7054
 01  4 23  1  1 30.0000000  0  9 21 17 23 03 14 09 15 29 31
  21299515.760   -23998494.431 9 -18688190.04647  21299514.943    21299522.8484
  21700730.095   -20506682.615 8 -15747182.12947  21700729.358    21700738.4684
  21895185.845   -18251224.408 9 -14204578.71647  21895184.969    21895193.1094
  21651940.183   -20403808.311 9 -15860034.03647  21651939.624    21651947.9424
  21712594.339   -17490341.961 9 -13342579.04847  21712593.624    21712601.8624
  23460099.681    -6430358.589 8  -4994767.67445  23460099.232    23460109.5614
  20704170.433   -25866735.419 9 -20138398.15947  20704169.442    20704177.4064
  21960507.907   -14795831.209 8 -11486940.29546  21960507.497    21960516.7604
  23502722.789    -7175145.387 8  -5562889.63745  23502721.804    23502731.6554
 01  4 23  1  2  0.0000000  0  9 21 17 23 03 14 09 15 29 31
  21295870.180   -24017651.997 9 -18703117.99847  21295869.367    21295877.2664
  21711966.716   -20447634.148 8 -15701170.38947  21711965.958    21711975.0234
  21904159.673   -18204066.587 9 -14167832.37647  21904158.796    21904166.9494
  21650977.696   -20408866.141 9 -15863975.19947  21650977.140    21650985.4464
  21696525.058   -17574786.096 9 -13408379.56447  21696524.349    21696532.5354
  23456131.586    -6451210.533 8  -5011015.83845  23456131.069    23456141.5554
  20710812.463   -25831831.466 9 -20111200.28047  20710811.494    20710819.4354
  21944386.553   -14880549.206 8 -11552954.19046  21944386.108    21944395.3124
  23490286.410    -7240498.835 8  -5613814.35945  23490285.374    23490295.2424
 01  4 23  1  2 30.0000000  0  9 21 17 23 03 14 09 15 29 31
  21292255.326   -24036648.124 9 -18717920.14447  21292254.519    21292262.4044
  21723268.946   -20388240.769 8 -15654889.87547  21723268.164    21723277.2394
  21913148.620   -18156829.365 9 -14131024.16347  21913147.763    21913155.9004
  21650124.415   -20413350.203 9 -15867469.26847  21650123.851    21650132.1364
  21680528.058   -17658850.361 9 -13473884.07647  21680527.353    21680535.4794
  23452261.389    -6471547.813 8  -5026862.98045  23452260.957    23452271.3644
  20717526.731   -25796547.691 9 -20083706.43747  20717525.755    20717533.6884
  21928328.746   -14964933.177 8 -11618707.80146  21928328.275    21928337.4064
  23477936.809    -7305396.029 8  -5664383.54445  23477935.803    23477945.6284
 01  4 23  1  3  0.0000000  0  9 21 17 23 03 14 09 15 29 31
  21288670.778   -24055484.768 9 -18732598.02547  21288669.981    21288677.9064
  21734636.357   -20328504.817 8 -15608342.43547  21734635.595    21734644.6144
  21922152.209   -18109515.341 9 -14094156.10247  21922151.340    21922159.4664
  21649379.951   -20417262.529 9 -15870517.83047  21649379.377    21649387.6604
  21664603.366   -17742534.893 9 -13539092.70047  21664602.648    21664610.7484
  23448489.184    -6491370.904 8  -5042309.46745  23448488.759    23448499.1224
  20724313.027   -25760885.666 9 -20055917.85347  20724312.017    20724319.9724
  21912334.455   -15048983.174 8 -11684201.18647  21912334.007    21912343.0944
  23465674.021    -7369837.259 8  -5714597.43245  23465673.023    23465682.8144
 01  4 23  1  3 30.0000000  0  9 21 17 23 03 14 09 15 29 31
  21285116.731   -24074161.308 9 -18747151.14647  21285115.931    21285123.8674
  21746069.261   -20268424.666 8 -15561526.78847  21746068.480    21746077.5044
  21931170.589   -18062123.481 9 -14057227.39447  21931169.717    21931177.8514
  21648744.528   -20420601.551 9 -15873119.66747  21648743.956    21648752.2204
  21648751.622   -17825836.133 9 -13604002.65147  21648750.862    21648758.9434
  23444815.263    -6510676.186 8  -5057352.43345  23444814.862    23444825.4874
  20731171.631   -25724843.414 9 -20027832.99547  20731170.639    20731178.5624
  21896404.389   -15132695.639 8 -11749431.54847  21896403.915    21896413.0194
  23453498.722    -7433818.876 8  -5764453.18345  23453497.761    23453507.5164
 01  4 23  1  4  0.0000000  0  9 21 17 23 03 14 09 15 29 31
  21281593.490   -24092676.039 9 -18761578.19447  21281592.690    21281600.6174
  21757567.995   -20207998.468 8 -15514441.50547  21757567.209    21757576.2804
  21940204.061   -18014652.457 9 -14020236.99247  21940203.174    21940211.3144
  21648218.594   -20423365.612 9 -15875273.47747  21648218.020    21648226.2664
  21632973.463   -17908750.242 9 -13668610.94847  21632972.745    21632980.8074
  23441240.769    -6529460.191 8  -5071989.24545  23441240.258    23441250.8324
  20738103.052   -25688418.817 9 -19999450.20947  20738102.051    20738109.9594
  21880539.260   -15216067.031 8 -11814396.14847  21880538.768    21880547.8774
  23441411.515    -7497336.921 8  -5813947.71245  23441410.619    23441420.3174
 01  4 23  1  4 30.0000000  0  9 21 17 23 03 14 09 15 29 31
  21278100.376   -24111032.286 9 -18775881.73347  21278099.578    21278107.5074
  21769132.124   -20147228.843 8 -15467088.60446  21769131.334    21769140.4084
  21949251.950   -17967105.519 9 -13983187.43847  21949251.079    21949259.2084
  21647801.466   -20425557.571 9 -15876981.49147  21647800.899    21647809.1484
  21617268.941   -17991277.621 9 -13732917.89047  21617268.217    21617276.2764
  23437765.287    -6547723.891 8  -5086220.62145  23437764.694    23437775.2624
  20745106.786   -25651614.026 9 -19970771.15947  20745105.782    20745113.6874
  21864738.852   -15299098.114 8 -11879095.57147  21864738.367    21864747.4584
  23429412.556    -7560391.958 8  -5863081.44745  23429411.636    23429421.3394
 01  4 23  1  5  0.0000000  0  9 21 17 23 03 14 09 15 29 31
  21274637.430   -24129230.209 9 -18790061.90047  21274636.636    21274644.5454
  21780761.646   -20086115.701 8 -15419468.03846  21780760.863    21780769.8764
  21958314.137   -17919483.446 9 -13946079.34247  21958313.256    21958321.3634
  21647493.233   -20427177.387 9 -15878243.68147  21647492.623    21647500.8784
  21601638.443   -18073416.069 9 -13796921.77347  21601637.718    21601645.7824
  23434389.159    -6565465.350 8  -5100045.05045  23434388.521    23434399.0974
  20752182.918   -25614428.670 9 -19941795.57447  20752181.903    20752189.8324
  21849003.644   -15381786.672 8 -11943528.10047  21849003.180    21849012.2234
  23417502.094    -7622981.759 8  -5911852.67245  23417501.162    23417510.8144
 01  4 23  1  5 30.0000000  0  9 21 17 23 03 14 09 15 29 31
  21271204.489   -24147270.402 9 -18804119.17047  21271203.692    21271211.5944
  21792456.444   -20024659.464 8 -15371580.12146  21792455.637    21792464.6514
  21967390.480   -17871786.924 9 -13908913.22147  21967389.603    21967397.7244
  21647293.798   -20428225.372 9 -15879060.28947  21647293.191    21647301.4924
  21586082.240   -18155163.780 9 -13860621.18747  21586081.547    21586089.6004
  23431112.720    -6582683.156 8  -5113461.43345  23431112.059    23431122.6484
  20759331.536   -25576862.378 9 -19912523.15647  20759330.535    20759338.4524
  21833333.875   -15464131.373 8 -12007692.68647  21833333.428    21833342.4954
  23405680.451    -7685104.382 8  -5960259.83845  23405679.545    23405689.2074
 01  4 23  1  6  0.0000000  0  9 21 17 23 03 14 09 15 29 31
  21267801.390   -24165153.719 9 -18818054.20647  21267800.578    21267808.4864
  21804216.545   -19962859.846 8 -15323424.62646  21804215.765    21804224.7614
  21976480.972   -17824016.291 9 -13871689.36447  21976480.079    21976488.1944
  21647203.264   -20428701.188 9 -15879431.05747  21647202.643    21647210.9354
  21570600.824   -18236518.808 9 -13924014.61447  21570600.124    21570608.1744
  23427936.262    -6599375.501 8  -5126468.39945  23427935.698    23427946.0994
  20766552.725   -25538914.806 9 -19882953.64247  20766551.745    20766559.6664
  21817729.912   -15546130.042 8 -12071587.64147  21817729.490    21817738.5484
  23393948.196    -7746757.798 8  -6008301.41245  23393947.328    23393956.8684
 01  4 23  1  6 30.0000000  0  9 21 17 23 03 14 09 15 29 31
  21264428.705   -24182877.106 9 -18831864.61047  21264427.893    21264435.8114
  21816042.556   -19900713.876 8 -15274999.25446  21816041.778    21816050.8014
  21985585.993   -17776168.994 9 -13834405.77047  21985585.126    21985593.2424
  21647222.061   -20428602.302 9 -15879353.99947  21647221.471    21647229.7544
  21555195.120   -18317475.937 9 -13987097.98747  21555194.410    21555202.4424
  23424860.687    -6615537.730 8  -5139062.28145  23424860.097    23424870.3814
  20773847.134   -25500582.666 9 -19853084.46047  20773846.135    20773854.0534
  21802192.806   -15627777.617 8 -12135209.02247  21802192.386    21802201.4194
  23382306.183    -7807936.908 8  -6055973.38745  23382305.377    23382314.7844
 01  4 23  1  7  0.0000000  0  9 21 17 23 03 14 09 15 29 31
  21261085.364   -24200446.280 9 -18845554.85047  21261084.558    21261092.4934
  21827933.388   -19838227.371 8 -15226308.52746  21827932.607    21827941.6284
  21994704.384   -17728251.421 9 -13797067.41247  21994703.524    21994711.6514
  21647349.188   -20427934.351 9 -15878833.51347  21647348.612    21647356.8394
  21539864.434   -18398038.922 9 -14049874.23447  21539863.733    21539871.7114
  23421885.139    -6631173.969 8  -5151246.29945  23421884.597    23421894.8764
  20781213.750   -25461871.010 9 -19822919.54847  20781212.756    20781220.6764
  21786721.761   -15709078.081 8 -12198559.92247  21786721.297    21786730.3164
  23370753.650    -7868645.389 8  -6103278.64145  23370752.894    23370762.2384
 01  4 23  1  7 30.0000000  0  9 21 17 23 03 14 09 15 29 31
  21257772.332   -24217856.209 9 -18859121.01047  21257771.541    21257779.4594
  21839890.076   -19775394.944 8 -15177348.25146  21839889.269    21839898.3314
  22003837.110   -17680258.541 9 -13759670.37047  22003836.251    22003844.4244
  21647585.592   -20426691.976 9 -15877865.43247  21647585.029    21647593.2434
  21524610.191   -18478200.098 9 -14112337.38647  21524609.483    21524617.4314
  23419011.080    -6646277.015 8  -5163014.80945  23419010.527    23419021.0454
  20788653.668   -25422773.986 9 -19792454.35247  20788652.675    20788660.6034
  21771318.175   -15790023.986 8 -12261634.53947  21771317.740    21771326.7214
  23359292.206    -7928875.669 8  -6150211.26445  23359291.479    23359300.7794
 01  4 23  1  8  0.0000000  0  9 21 17 23 03 14 09 15 29 31
  21254488.565   -24235112.240 9 -18872567.25847  21254487.794    21254495.6904
  21851911.691   -19712221.017 8 -15128121.88846  21851910.907    21851919.9934
  22012983.260   -17632195.308 9 -13722218.52047  22012982.389    22012990.5594
  21647930.434   -20424879.924 9 -15876453.44747  21647929.840    21647938.0704
  21509431.948   -18557961.729 9 -14174489.20747  21509431.261    21509439.1684
  23416237.868    -6660849.584 8  -5174369.98345  23416237.396    23416247.9434
  20796166.150   -25383295.720 9 -19761692.08447  20796165.164    20796173.1084
  21755981.567   -15870618.083 8 -12324435.02447  21755981.128    21755990.0764
  23347921.407    -7988630.117 8  -6196773.10246  23347920.531    23347929.8814
 01  4 23  1  8 30.0000000  0  9 21 17 23 03 14 09 15 29 31
  21251234.007   -24252215.014 9 -18885894.07547  21251233.218    21251241.1124
  21863998.112   -19648706.422 8 -15078630.06446  21863997.359    21864006.5104
  22022142.562   -17584062.853 9 -13684712.72047  22022141.699    22022149.8974
  21648383.417   -20422499.288 9 -15874598.40947  21648382.816    21648391.0874
  21494329.975   -18637322.964 9 -14236329.02747  21494329.256    21494337.1724
  23413565.998    -6674891.019 8  -5185311.28845  23413565.446    23413575.7934
  20803751.092   -25343436.396 9 -19730632.88647  20803750.123    20803758.0914
  21740712.079   -15950859.094 8 -12386960.37447  21740711.679    21740720.5824
  23336641.126    -8047907.501 8  -6242963.20046  23336640.340    23336649.6924
 01  4 23  1  9  0.0000000  0  9 21 17 23 03 14 09 15 29 31
  21248009.295   -24269161.043 9 -18899098.75547  21248008.510    21248016.3674
  21876150.153   -19584847.342 8 -15028869.81146  21876149.377    21876158.5294
  22031315.668   -17535857.964 8 -13647150.48847  22031314.798    22031322.9874
  21648945.283   -20419546.552 9 -15872297.58047  21648944.708    21648952.9874
  21479305.262   -18716277.723 9 -14297852.11547  21479304.557    21479312.4564
  23410996.085    -6688395.825 8  -5195834.43345  23410995.515    23411005.7114
  20811409.318   -25303192.126 9 -19699273.73247  20811408.352    20811416.3444
  21725510.895   -16030741.445 8 -12449206.25547  21725510.502    21725519.3394
  23325452.758    -8106701.998 8  -6288777.03046  23325452.026    23325461.3414
 01  4 23  1  9 30.0000000  0  9 21 17 23 03 14 09 15 29 31
  21244814.053   -24285951.985 9 -18912182.58947  21244813.262    21244821.1264
  21888367.489   -19520645.233 8 -14978842.27046  21888366.679    21888375.8984
  22040502.269   -17487582.258 8 -13609533.06447  22040501.408    22040509.5424
  21649615.680   -20416023.442 9 -15869552.30747  21649615.133    21649623.4024
  21464358.101   -18794825.324 9 -14359057.93547  21464357.395    21464365.2674
  23408528.126    -6701364.012 8  -5205939.42645  23408527.623    23408537.7174
  20819140.526   -25262564.108 9 -19667615.55147  20819139.570    20819147.5864
  21710378.079   -16110264.628 8 -12511172.25847  21710377.619    21710386.4524
  23314356.533    -8165012.912 8  -6334214.04046  23314355.767    23314365.1854
 01  4 23  1 10  0.0000000  0  9 21 17 23 03 14 09 15 29 31
  21241647.728   -24302591.159 9 -18925148.17247  21241646.934    21241654.8034
  21900649.468   -19456103.108 8 -14928549.78246  21900648.676    21900657.9564
  22049701.694   -17439238.999 8 -13571863.00247  22049700.820    22049708.9564
  21650394.105   -20411933.069 9 -15866365.01147  21650393.524    21650401.7724
  21449488.211   -18872966.745 9 -14419947.25747  21449487.519    21449495.3214
  23406162.274    -6713796.689 8  -5215627.16045  23406161.741    23406171.7184
  20826944.380   -25221554.663 9 -19635660.15647  20826943.427    20826951.4494
  21695313.348   -16189429.702 8 -12572859.22547  21695312.918    21695321.7014
  23303352.142    -8222841.278 8  -6379275.03746  23303351.356    23303360.7614
 01  4 23  1 10 30.0000000  0  9 21 17 23 03 14 09 15 29 31
  21238511.011   -24319074.494 9 -18937992.31747  21238510.235    21238518.1014
  21912997.004   -19391216.923 8 -14877989.19246  21912996.198    21913005.4694
  22058914.714   -17390824.494 8 -13534137.42547  22058913.832    22058921.9524
  21651281.179   -20407271.652 9 -15862732.74747  21651280.600    21651288.8414
  21434696.776   -18950695.903 9 -14480515.33947  21434696.069    21434703.8304
  23403899.280    -6725688.220 8  -5224893.19845  23403898.758    23403908.8164
  20834821.672   -25180159.159 9 -19603403.93947  20834820.724    20834828.7834
  21680317.902   -16268230.719 8 -12634262.50747  21680317.518    21680326.2424
  23292440.700    -8280181.031 8  -6423955.29846  23292439.899    23292449.3354
 01  4 23  1 11  0.0000000  0  9 21 17 23 03 14 09 15 29 31
  21235403.246   -24335405.938 9 -18950718.10847  21235402.477    21235410.3154
  21925409.398   -19325989.582 8 -14827162.78046  21925408.525    21925417.8794
  22068140.649   -17342342.183 8 -13496359.02247  22068139.745    22068147.8304
  21652276.279   -20402042.071 9 -15858657.76347  21652275.731    21652283.9664
  21419983.587   -19028013.734 9 -14540762.90647  21419982.884    21419990.6384
  23401739.123    -6737040.161 8  -5233738.78745  23401738.554    23401748.6534
  20842771.920   -25138380.248 9 -19570848.96247  20842770.970    20842779.0514
  21665391.565   -16346668.826 8 -12695383.00847  21665391.162    21665399.8644
  23281622.130    -8337033.059 8  -6468255.50946  23281621.259    23281630.6104
 01  4 23  1 11 30.0000000  0  9 21 17 23 03 14 09 15 29 31
  21232324.292   -24351585.933 9 -18963325.87647  21232323.498    21232331.3334
  21937886.495   -19260422.021 8 -14776071.25446  21937885.698    21937895.0904
  22077379.219   -17293793.236 8 -13458528.68547  22077378.309    22077386.4274
  21653379.273   -20396245.672 9 -15854141.10247  21653378.718    21653386.9824
  21405348.895   -19104919.046 9 -14600689.02747  21405348.196    21405355.9454
  23399681.711    -6747851.822 8  -5242163.39145  23399681.148    23399691.1844
  20850795.034   -25096218.446 9 -19537995.62147  20850794.066    20850802.1694
  21650534.547   -16424742.559 8 -12756219.57847  21650534.117    21650542.8404
  23270896.442    -8393396.159 8  -6512174.73346  23270895.625    23270905.0954
 01  4 23  1 12  0.0000000  0  9 21 17 23 03 14 09 15 29 31
  21229274.330   -24367613.422 9 -18975814.80847  21229273.530    21229281.4114
  21950428.635   -19194512.933 8 -14724713.61346  21950427.855    21950437.2724
  22086630.672   -17245176.582 8 -13420645.58947  22086629.784    22086637.8714
  21654590.362   -20389881.367 9 -15849181.91747  21654589.809    21654598.0904
  21390793.428   -19181408.308 9 -14660290.94647  21390792.703    21390800.4184
  23397727.708    -6758120.299 8  -5250164.71746  23397727.180    23397737.1684
  20858891.353   -25053672.080 9 -19504842.62047  20858890.391    20858898.4774
  21635747.372   -16502449.105 8 -12816770.03347  21635746.964    21635755.6634
  23260264.491    -8449267.145 8  -6555710.49746  23260263.595    23260273.0964
 01  4 23  1 12 30.0000000  0  9 21 17 23 03 14 09 15 29 31
  21226253.354   -24383488.494 9 -18988184.97947  21226252.571    21226260.4774
  21963035.828   -19128262.231 8 -14673089.76946  21963035.028    21963044.4504
  22095895.030   -17196492.268 8 -13382709.77647  22095894.131    22095902.1854
  21655909.557   -20382949.260 9 -15843780.29047  21655909.006    21655917.2334
  21376317.509   -19257479.617 9 -14719567.19647  21376316.754    21376324.4184
  23395877.428    -6767843.765 8  -5257741.37546  23395876.832    23395886.8514
  20867060.923   -25010740.835 9 -19471389.71947  20867059.965    20867068.0494
  21621030.517   -16579786.432 8 -12877032.78547  21621030.093    21621038.7834
  23249726.485    -8504644.004 8  -6598861.24046  23249725.690    23249735.2224
 01  4 23  1 13  0.0000000  0  9 21 17 23 03 14 09 15 29 31
  21223261.460   -24399210.799 9 -19000436.11347  21223260.702    21223268.6064
  21975708.092   -19061669.370 8 -14621199.30046  21975707.304    21975716.7204
  22105172.238   -17147740.163 8 -13344721.13847  22105171.348    22105179.4024
  21657336.852   -20375449.106 9 -15837936.03047  21657336.268    21657344.4524
  21361921.560   -19333130.326 9 -14778515.70547  21361920.800    21361928.4524
  23394131.101    -6777020.286 8  -5264891.83445  23394130.541    23394140.5574
  20875303.943   -24967423.508 9 -19437635.97747  20875302.978    20875311.0534
  21606384.323   -16656752.117 8 -12937005.95147  21606383.912    21606392.5734
  23239283.160    -8559523.943 8  -6641624.75946  23239282.359    23239291.8504
 01  4 23  1 13 30.0000000  0  9 21 17 23 03 14 09 15 29 31
  21220297.793   -24414785.131 9 -19012571.94447  21220297.024    21220304.9244
  21988444.658   -18994738.843 8 -14569045.71446  21988443.837    21988453.2614
  22114461.445   -17098925.146 8 -13306683.48047  22114460.538    22114468.5804
  21658871.241   -20367386.039 9 -15831653.13647  21658870.626    21658878.7864
  21347605.179   -19408362.999 9 -14837138.47047  21347604.421    21347612.0744
  23392488.248    -6785652.880 8  -5271618.44245  23392487.658    23392497.7824
  20883619.657   -24923724.291 9 -19403584.65447  20883618.682    20883626.7564
  21591808.388   -16733348.749 8 -12996691.53847  21591807.983    21591816.6194
  23228933.935    -8613909.574 8  -6684003.10646  23228933.054    23228942.4454
 01  4 23  1 14  0.0000000  0  9 21 17 23 03 14 09 15 29 31
  21217362.801   -24430208.497 9 -19024590.12947  21217362.026    21217369.9084
  22001246.005   -18927467.341 8 -14516626.44246  22001245.225    22001254.6524
  22123763.316   -17050043.864 8 -13268594.18947  22123762.388    22123770.4174
  21660513.328   -20358756.991 9 -15824929.22047  21660512.699    21660520.8524
  21333369.348   -19483172.008 9 -14895431.11647  21333368.626    21333376.2934
  23390949.886    -6793736.624 8  -5277917.39745  23390949.333    23390959.3964
  20892008.744   -24879639.295 9 -19369232.73047  20892007.784    20892015.8714
  21577303.762   -16809570.957 8 -13056085.36547  21577303.324    21577311.9174
  23218679.819    -8667795.073 8  -6725991.74046  23218678.913    23218688.2824
 01  4 23  1 14 30.0000000  0  9 21 17 23 03 14 09 15 29 31
  21214456.165   -24445482.956 9 -19036492.28247  21214455.378    21214463.2634
  22014111.838   -18859857.334 8 -14463943.38446  22014111.028    22014120.4424
  22133077.235   -17001098.966 8 -13230455.31747  22133076.300    22133084.3244
  21662262.475   -20349564.856 9 -15817766.53447  21662261.888    21662270.0884
  21319214.115   -19557557.949 9 -14953394.09847  21319213.376    21319220.9864
  23389515.672    -6801272.780 8  -5283789.64545  23389515.156    23389525.1344
  20900470.884   -24835170.547 9 -19334581.76647  20900469.916    20900478.0084
  21562870.184   -16885419.475 8 -13115188.00347  21562869.746    21562878.3204
  23208520.771    -8721181.149 8  -6767591.21846  23208519.886    23208529.2024
 01  4 23  1 15  0.0000000  0  9 21 17 23 03 14 09 15 29 31
  21211577.688   -24460609.554 9 -19048279.21847  21211576.861    21211584.7464
  22027041.913   -18791909.387 8 -14410997.01546  22027041.097    22027050.5664
  22142403.080   -16952091.240 8 -13192267.49647  22142402.144    22142410.1384
  21664118.766   -20339809.986 9 -15810165.35447  21664118.193    21664126.3874
  21305139.681   -19631519.347 9 -15011026.27547  21305138.940    21305146.5244
  23388186.029    -6808260.216 8  -5289234.33645  23388185.506    23388195.4094
  20909006.047   -24790318.166 9 -19299631.87647  20909005.077    20909013.1664
  21548507.994   -16960892.990 8 -13173998.43547  21548507.539    21548516.0934
  23198456.906    -8774066.576 8  -6808800.57946  23198456.054    23198465.3474
 01  4 23  1 15 30.0000000  0  9 21 17 23 03 14 09 15 29 31
  21208727.937   -24475584.985 9 -19059948.37247  21208727.124    21208734.9984
  22040036.851   -18723620.787 8 -14357785.18446  22040036.031    22040045.5314
  22151741.367   -16903018.124 8 -13154028.71747  22151740.459    22151748.4854
  21666082.548   -20329490.419 9 -15802124.15447  21666081.974    21666090.1614
  21291146.898   -19705051.448 9 -15068323.93847  21291146.166    21291153.7134
  23386961.484    -6814694.797 8  -5294248.22645  23386960.933    23386970.8444
  20917614.728   -24745079.121 9 -19264380.68347  20917613.767    20917621.8384
  21534217.996   -17035986.891 8 -13232513.05747  21534217.562    21534226.0654
  23188489.249    -8826446.996 8  -6849616.43146  23188488.344    23188497.6364
 01  4 23  1 16  0.0000000  0  9 21 17 23 03 14 09 15 29 31
  21205906.301   -24490412.767 9 -19071502.46947  21205905.477    21205913.3584
  22053096.066   -18654994.385 8 -14304310.13446  22053095.270    22053104.7484
  22161091.558   -16853882.339 8 -13115741.11347  22161090.656    22161098.6774
  21668153.228   -20318609.150 9 -15793645.25247  21668152.640    21668160.8394
  21277235.691   -19778154.936 9 -15125287.61347  21277234.967    21277242.4874
  23385841.997    -6820577.889 8  -5298832.38045  23385841.489    23385851.3354
  20926296.591   -24699455.808 9 -19228830.06547  20926295.627    20926303.6944
  21520000.148   -17110701.929 8 -13290732.46947  21519999.724    21520008.1714
  23178617.639    -8878323.026 8  -6890039.28046  23178616.668    23178625.9434
 01  4 23  1 16 30.0000000  0  9 21 17 23 03 14 09 15 29 31
  21203112.533   -24505093.997 9 -19082942.36747  21203111.711    21203119.5874
  22066219.360   -18586031.499 8 -14250572.88746  22066218.515    22066228.0734
  22170453.434   -16804685.440 8 -13077405.88347  22170452.545    22170460.5764
  21670330.442   -20307168.014 9 -15784730.09547  21670329.843    21670338.0454
  21263406.144   -19850829.355 9 -15181916.95647  21263405.411    21263412.9244
  23384827.460    -6825909.243 8  -5302986.60845  23384826.881    23384836.7694
  20935051.416   -24653448.991 9 -19192980.61647  20935050.446    20935058.5054
  21505854.431   -17185037.674 8 -13348656.32747  21505854.017    21505862.4294
  23168841.981    -8929693.990 8  -6930068.54346  23168840.975    23168850.3604
 01  4 23  1 17  0.0000000  0  9 21 17 23 03 14 09 15 29 31
  21200347.154   -24519626.022 9 -19094265.99547  21200346.356    21200354.2104
  22079407.175   -18516729.146 8 -14196571.12046  22079406.335    22079415.9254
  22179827.443   -16755424.625 8 -13039020.86047  22179826.546    22179834.5984
  21672614.623   -20295164.457 9 -15775376.68647  21672614.041    21672622.2254
  21249659.275   -19923069.446 9 -15238207.84947  21249658.528    21249666.0224
  23383918.644    -6830684.418 8  -5306707.45445  23383918.061    23383927.9944
  20943879.860   -24607055.362 9 -19156829.74947  20943878.884    20943886.9484
  21491781.880   -17258989.275 8 -13406280.84847  21491781.439    21491789.8324
  23159163.543    -8980554.758 8  -6969700.25146  23159162.466    23159171.8434
 01  4 23  1 17 30.0000000  0  9 21 17 23 03 14 09 15 29 31
  21197609.678   -24534011.294 9 -19105475.27147  21197608.891    21197616.7574
  22092659.137   -18447089.823 8 -14142306.79546  22092658.321    22092667.9524
  22189213.136   -16706102.374 8 -13000587.95347  22189212.248    22189220.3434
  21675005.284   -20282601.441 9 -15765587.33847  21675004.696    21675012.9354
  21235994.965   -19994875.716 9 -15294160.69347  21235994.207    21236001.6844
  23383115.350    -6834904.588 8  -5309995.83945  23383114.847    23383124.8504
  20952781.554   -24560276.869 9 -19120378.99647  20952780.592    20952788.6494
  21477782.308   -17332556.997 9 -13463606.25147  21477781.901    21477790.2594
  23149581.933    -9030905.771 8  -7008934.76246  23149580.899    23149590.3084
 01  4 23  1 18  0.0000000  0  9 21 17 23 03 14 09 15 29 31
  21194900.328   -24548248.951 9 -19116569.53247  21194899.527    21194907.3954
  22105975.286   -18377113.303 8 -14087779.71646  22105974.462    22105984.1194
  22198610.562   -16656718.592 8 -12962107.11747  22198609.702    22198617.7864
  21677502.373   -20269479.034 9 -15755362.09547  21677501.788    21677510.0714
  21222413.575   -20066245.999 9 -15349773.80947  21222412.810    21222420.2944
  23382418.027    -6838568.344 8  -5312850.64145  23382417.519    23382427.5834
  20961756.511   -24513113.185 9 -19083628.10247  20961755.548    20961763.5714
  21463856.152   -17405739.049 8 -13520631.12947  21463855.742    21463864.0734
  23140097.800    -9080744.990 8  -7047770.46946  23140096.774    23140106.2054
 01  4 23  1 18 30.0000000  0  9 21 17 23 03 14 09 15 29 31
  21192219.079   -24562339.001 9 -19127548.76247  21192218.293    21192226.1414
  22119355.653   -18306799.383 8 -14032989.73446  22119354.819    22119364.4604
  22208019.769   -16607273.111 8 -12923578.19647  22208018.888    22208027.0034
  21680105.918   -20255797.521 9 -15744701.18747  21680105.305    21680113.5874
  21208915.538   -20137178.073 9 -15405045.47047  21208914.814    21208922.2614
  23381826.977    -6841673.947 8  -5315270.53545  23381826.488    23381836.4914
  20970804.895   -24465563.728 9 -19046576.59347  20970803.924    20970811.9694
  21450003.769   -17478533.374 9 -13577353.87847  21450003.342    21450011.6874
  23130711.493    -9130070.115 8  -7086205.57346  23130710.503    23130719.8914
 01  4 23  1 19  0.0000000  0  9 21 17 23 03 14 09 15 29 31
  21189565.077   -24576285.759 9 -19138416.33947  21189564.280    21189572.1254
  22132799.403   -18236152.150 8 -13977940.03946  22132798.592    22132808.2624
  22217439.913   -16557769.902 8 -12885004.29747  22217439.057    22217447.1874
  21682814.965   -20241561.409 9 -15733608.12547  21682814.350    21682822.6414
  21195500.561   -20207674.056 9 -15459977.31847  21195499.831    21195507.2374
  23381341.649    -6844223.989 8  -5317257.50345  23381341.135    23381351.2024
  20979926.031   -24417631.878 9 -19009227.12547  20979925.060    20979933.1104
  21436224.733   -17550942.088 9 -13633776.15847  21436224.321    21436232.6324
  23121422.597    -9178883.284 8  -7124241.76446  23121421.613    23121431.0014
 01  4 23  1 19 30.0000000  0  9 21 17 23 03 14 09 15 29 31
  21186939.471   -24590083.462 9 -19149167.76947  21186938.678    21186946.4984
  22146307.707   -18165166.258 8 -13922626.44146  22146306.821    22146316.5574
  22226872.093   -16508203.601 8 -12846381.23047  22226871.207    22226879.3494
  21685630.509   -20226765.775 9 -15722079.07147  21685629.891    21685638.1724
  21182169.999   -20277726.359 9 -15514563.44347  21182169.269    21182176.6364
  23380963.343    -6846211.690 8  -5318806.29645  23380962.876    23380972.9054
  20989121.005   -24369312.019 9 -18971575.31747  20989120.035    20989128.0924
  21422520.539   -17622957.857 9 -13689892.24947  21422520.118    21422528.3944
  23112232.463    -9227177.206 8  -7161873.34346  23112231.535    23112240.8884
 01  4 23  1 20  0.0000000  0  9 21 17 23 03 14 09 15 29 31
  21184341.134   -24603737.740 9 -19159807.44347  21184340.326    21184348.1164
  22159879.313   -18093847.271 8 -13867053.27746  22159878.445    22159888.1274
  22236315.176   -16458579.976 8 -12807713.48747  22236314.280    22236322.4574
  21688551.330   -20211416.668 9 -15710118.73447  21688550.719    21688559.0044
  21168923.129   -20347338.887 9 -15568806.88247  21168922.400    21168929.7644
  23380691.288    -6847641.487 8  -5319920.34845  23380690.765    23380700.8484
  20998388.817   -24320609.337 9 -18933625.19647  20998387.839    20998395.9234
  21408890.385   -17694584.534 9 -13745705.15147  21408889.954    21408898.2044
  23103140.512    -9274955.844 8  -7199103.41046  23103139.589    23103148.7874
 01  4 23  1 20 30.0000000  0  9 21 17 23 03 14 09 15 29 31
  21181770.133   -24617248.387 9 -19170335.20947  21181769.336    21181777.1114
  22173514.443   -18022194.703 8 -13811220.19046  22173513.616    22173523.2524
  22245769.309   -16408898.247 8 -12769000.46947  22245768.415    22245776.6094
  21691577.460   -20195513.988 9 -15697727.05247  21691576.904    21691585.2014
  21155760.428   -20416508.797 9 -15622705.42947  21155759.712    21155767.0684
  23380525.652    -6848511.451 8  -5320598.15646  23380525.219    23380535.1914
  21007729.707   -24271522.670 9 -18895375.86747  21007728.732    21007736.8114
  21395334.732   -17765819.648 9 -13801212.93147  21395334.269    21395342.5044
  23094146.983    -9322216.671 8  -7235929.97446  23094146.105    23094155.3354
 01  4 23  1 21  0.0000000  0  9 21 17 23 03 14 09 15 29 31
  21179226.944   -24630612.854 9 -19180749.05447  21179226.147    21179233.8944
  22187213.373   -17950206.594 8 -13755125.64546  22187212.532    22187222.1924
  22255234.841   -16359156.505 8 -12730240.68547  22255233.942    22255242.1224
  21694709.235   -20179056.580 9 -15684903.11447  21694708.646    21694716.9474
  21142682.735   -20485232.501 9 -15676256.28747  21142681.986    21142689.2944
  23380467.271    -6848818.331 8  -5320837.19546  23380466.730    23380476.6874
  21017144.150   -24222049.685 9 -18856825.50947  21017143.175    21017151.2454
  21381854.328   -17836659.287 9 -13856412.55547  21381853.861    21381862.0974
  23085252.749    -9368955.956 8  -7272350.14546  23085251.923    23085261.1144
 01  4 23  1 21 30.0000000  0  9 21 17 23 03 14 09 15 29 31
  21176710.888   -24643834.788 9 -19191051.83247  21176710.089    21176717.8104
  22200975.415   -17877886.633 8 -13698772.51146  22200974.615    22200984.2914
  22264711.128   -16309358.285 8 -12691436.89747  22264710.242    22264718.4524
  21697945.758   -20162048.486 9 -15671650.06547  21697945.185    21697953.4904
  21129689.603   -20553511.653 9 -15729460.74247  21129688.841    21129696.1174
  23380515.600    -6848564.384 8  -5320639.24646  23380514.986    23380524.9624
  21026631.459   -24172193.606 9 -18817976.63747  21026630.487    21026638.5714
  21368448.757   -17907105.552 9 -13911305.65647  21368448.291    21368456.5334
  23076457.522    -9415175.444 8  -7308365.29046  23076456.622    23076465.7504
 01  4 23  1 22  0.0000000  0  9 21 17 23 03 14 09 15 29 31
  21174222.582   -24656910.973 9 -19201241.04747  21174221.761    21174229.4964
  22214801.173   -17805231.843 8 -13642158.48146  22214800.394    22214810.1004
  22274198.763   -16259500.490 8 -12652586.69147  22274197.874    22274206.0784
  21701287.603   -20144486.990 9 -15657965.80247  21701287.052    21701295.3624
  21116781.989   -20621341.225 9 -15782314.88047  21116781.247    21116788.4854
  23380671.378    -6847745.513 8  -5320001.09546  23380670.749    23380680.6934
  21036192.251   -24121951.340 9 -18778826.84347  21036191.278    21036199.3714
  21355119.053   -17977153.233 9 -13965888.17947  21355118.579    21355126.7824
  23067762.075    -9460870.092 8  -7343971.45446  23067761.181    23067770.2974
 01  4 23  1 22 30.0000000  0  9 21 17 23 03 14 09 15 29 31
  21171761.045   -24669846.319 9 -19211320.51247  21171760.225    21171767.9884
  22228689.748   -17732247.310 8 -13585287.50746  22228688.979    22228698.6524
  22283696.771   -16209588.186 8 -12613694.00147  22283695.918    22283704.1154
  21704733.648   -20126377.972 9 -15643854.89747  21704733.116    21704741.4154
  21103959.337   -20688724.265 9 -15834821.06347  21103958.604    21103965.8294
  23380933.960    -6846365.610 8  -5318925.78146  23380933.336    23380943.1744
  21045825.672   -24071327.597 9 -18739379.79647  21045824.699    21045832.7924
  21341864.507   -18046805.975 9 -14020162.95347  21341864.045    21341872.2004
  23059165.989    -9506042.997 8  -7379171.07646  23059165.033    23059174.1324
 01  4 23  1 23  0.0000000  0  9 21 17 23 03 14 09 15 29 31
  21169327.287   -24682635.697 9 -19221286.24447  21169326.470    21169334.2284
  22242641.991   -17658928.060 8 -13528155.70846  22242641.239    22242650.9314
  22293206.139   -16159616.068 8 -12574754.71347  22293205.275    22293213.5284
  21708284.734   -20107717.002 9 -15629313.90547  21708284.167    21708292.4804
  21091223.042   -20755653.674 9 -15886973.77747  21091222.311    21091229.5204
  23381304.592    -6844418.173 8  -5317408.24546  23381304.010    23381313.6644
  21055532.742   -24020316.602 9 -18699630.99647  21055531.749    21055539.8804
  21328686.534   -18116056.451 9 -14074124.28047  21328686.058    21328694.1794
  23050670.362    -9550687.477 8  -7413958.92746  23050669.454    23050678.5664
 01  4 23  1 23 30.0000000  0  9 21 17 23 03 14 09 15 29 31
  21166920.561   -24695283.265 9 -19231141.47347  21166919.746    21166927.4684
  22256657.313   -17585277.542 8 -13470765.79446  22256656.537    22256666.3244
  22302726.265   -16109587.455 8 -12535771.39747  22302725.394    22302733.6574
  21711940.085   -20088508.126 9 -15614345.96647  21711939.507    21711947.8224
  21078572.764   -20822131.076 9 -15938774.27147  21078572.028    21078579.2084
  23381782.774    -6841905.481 8  -5315450.25246  23381782.199    23381791.7144
  21065312.889   -23968921.590 9 -18659582.96247  21065311.908    21065320.0714
  21315584.729   -18184906.507 9 -14127773.59347  21315584.238    21315592.3534
  23042274.985    -9594805.149 8  -7448336.29646  23042274.105    23042283.1934
 01  4 23  1 24  0.0000000  0  9 21 17 23 03 14 09 15 29 31
  21164540.382   -24707791.119 9 -19240887.83947  21164539.574    21164547.2694
  22270735.093   -17511298.753 8 -13413120.08446  22270734.311    22270744.1644
  22312256.643   -16059505.080 8 -12496746.18347  22312255.777    22312264.0334
  21715699.058   -20068754.742 9 -15598953.73947  21715698.505    21715706.7914
  21066008.315   -20888157.422 9 -15990223.29547  21066007.576    21066014.7264
  23382368.083    -6838829.364 8  -5313053.21346  23382367.524    23382376.9534
  21075165.656   -23917145.034 9 -18619237.62547  21075164.697    21075172.8194
  21302558.941   -18253357.245 9 -14181111.75447  21302558.436    21302566.5344
  23033979.788    -9638396.823 8  -7482303.79746  23033978.889    23033987.9614
 01  4 23  1 24 30.0000000  0  9 21 17 23 03 14 09 15 29 31
  21162187.850   -24720153.808 9 -19250521.09647  21162187.043    21162194.7164
  22284876.268   -17436986.723 8 -13355214.69846  22284875.462    22284885.3574
  22321798.207   -16009363.916 8 -12457675.16747  22321797.341    22321805.6434
  21719562.480   -20048452.462 9 -15583133.80547  21719561.930    21719570.1974
  21053530.984   -20953725.953 9 -16041315.58247  21053530.245    21053537.3804
  23383061.681    -6835183.879 8  -5310212.52445  23383061.203    23383070.5394
  21085092.056   -23864981.650 9 -18578590.86747  21085091.085    21085099.1994
  21289610.396   -18321401.872 9 -14234133.47047  21289609.890    21289617.9624
  23025785.816    -9681456.028 8  -7515856.38746  23025784.990    23025793.9854
 01  4 23  1 25  0.0000000  0  9 21 17 23 03 14 09 15 29 31
  21159862.104   -24732375.475 9 -19260044.46147  21159861.303    21159868.9704
  22299079.987   -17362346.166 8 -13297053.32246  22299079.149    22299089.0044
  22331350.142   -15959168.314 8 -12418561.72947  22331349.269    22331357.5594
  21723529.323   -20027606.606 9 -15566890.30347  21723528.794    21723537.0754
  21041140.253   -21018839.297 9 -16092053.17547  21041139.512    21041146.6214
  23383863.031    -6830972.179 8  -5306930.63045  23383862.509    23383871.9454
  21095091.278   -23812435.617 9 -18537645.94347  21095090.283    21095098.3824
  21276738.637   -18389043.038 9 -14286840.79847  21276738.131    21276746.1804
  23017692.673    -9723985.355 8  -7548996.08446  23017691.873    23017700.8544
 01  4 23  1 25 30.0000000  0  9 21 17 23 03 14 09 15 29 31
  21157563.176   -24744456.234 9 -19269458.03647  21157562.364    21157570.0474
  22313346.128   -17287376.934 8 -13238635.82146  22313345.302    22313355.2914
  22340912.460   -15908918.060 8 -12379405.70647  22340911.599    22340919.8824
  21727599.517   -20006217.637 9 -15550223.59847  21727598.996    21727607.2784
  21028836.560   -21083495.554 9 -16142434.60647  21028835.800    21028842.8804
  23384772.392    -6826193.060 8  -5303206.57546  23384771.899    23384781.2704
  21105163.401   -23759506.375 9 -18496402.41347  21105162.410    21105170.5244
  21263943.956   -18456279.102 9 -14339232.47347  21263943.458    21263951.4974
  23009700.672    -9765983.018 8  -7581721.50346  23009699.866    23009708.8694
 01  4 23  1 26  0.0000000  0  9 21 17 23 03 14 09 15 29 31
  21155291.459   -24756394.337 9 -19278760.44847  21155290.637    21155298.3184
  22327675.161   -17212077.755 8 -13179961.22846  22327674.323    22327684.2784
  22350485.543   -15858611.269 8 -12340205.62447  22350484.652    22350492.9584
  21731773.213   -19984284.976 9 -15533133.23947  21731772.657    21731780.9504
  21016620.487   -21147691.260 9 -16192457.15947  21016619.727    21016626.7884
  23385790.236    -6820843.916 8  -5299038.36346  23385789.704    23385799.0854
  21115308.709   -23706192.457 9 -18454859.13347  21115307.707    21115315.8514
  21251226.988   -18523106.754 9 -14391305.89547  21251226.542    21251234.5444
  23001810.627    -9807445.776 8  -7614030.10846  23001809.759    23001818.7504
 01  4 23  1 26 30.0000000  0  9 21 17 23 03 14 09 15 29 31
  21153046.277   -24768192.882 9 -19287954.10647  21153045.451    21153053.1154
  22342066.422   -17136451.518 8 -13121031.78646  22342065.580    22342075.5114
  22360068.867   -15808250.689 8 -12300963.62647  22360067.967    22360076.2744
  21736049.641   -19961812.214 9 -15515622.01647  21736049.076    21736057.3894
  21004491.826   -21211427.457 9 -16242121.65347  21004491.054    21004498.0874
  23386916.281    -6814926.617 8  -5294427.42645  23386915.735    23386925.1044
  21125526.751   -23652496.350 9 -18413018.04347  21125525.773    21125533.9284
  21238587.618   -18589526.916 9 -14443061.78647  21238587.162    21238595.1334
  22994021.893    -9848374.876 8  -7645922.86446  22994021.091    22994030.2204
 01  4 23  1 27  0.0000000  0  9 21 17 23 03 14 09 15 29 31
  21150827.422   -24779853.095 9 -19297039.97647  21150826.597    21150834.2424
  22356519.654   -17060499.916 8 -13061848.81946  22356518.814    22356528.7344
  22369662.143   -15757837.662 8 -12261680.74846  22369661.256    22369669.5524
  21740428.456   -19938801.646 9 -15497691.71747  21740427.875    21740436.1764
  20992450.696   -21274703.753 9 -16291427.77747  20992449.949    20992456.9344
  23388150.169    -6808441.708 8  -5289374.19345  23388149.591    23388159.1664
  21135817.376   -23598419.023 9 -18370879.88447  21135816.399    21135824.5564
  21226025.770   -18655539.674 9 -14494500.21147  21226025.288    21226033.2464
  22986334.984    -9888770.209 8  -7677399.70746  22986334.102    22986343.1594
 01  4 23  1 27 30.0000000  0  9 21 17 23 03 14 09 15 29 31
  21148635.586   -24791371.043 9 -19306014.98847  21148634.785    21148642.4364
  22371035.389   -16984219.944 8 -13002409.96146  22371034.535    22371044.4524
  22379266.050   -15707368.860 8 -12222354.41547  22379265.157    22379273.4534
  21744910.119   -19915250.438 9 -15479340.14947  21744909.522    21744917.8114
  20980498.010   -21337515.371 9 -16340371.81847  20980497.234    20980504.1964
  23389492.779    -6801384.908 8  -5283875.33745  23389492.203    23389502.0644
  21146181.181   -23543957.060 9 -18328442.01947  21146180.174    21146188.3404
  21213542.398   -18721139.909 9 -14545617.18847  21213541.941    21213549.8654
  22978750.456    -9928626.749 8  -7708456.72346  22978749.623    22978758.6524
 01  4 23  1 28  0.0000000  0  9 21 17 23 03 14 09 15 29 31
  21146470.364   -24802749.334 9 -19314881.16547  21146469.574    21146477.2284
  22385612.984   -16907614.277 8 -12942717.32646  22385612.173    22385622.1254
  22388880.099   -15656846.682 8 -12182986.49446  22388879.221    22388887.5224
  21749493.872   -19891162.655 9 -15460570.46747  21749493.279    21749501.6104
  20968633.541   -21399863.232 9 -16388954.49247  20968632.788    20968639.7484
  23390943.824    -6793758.001 8  -5277932.22945  23390943.387    23390953.3874
  21156617.683   -23489112.984 9 -18285706.39847  21156616.659    21156624.8554
  21201137.323   -18786328.781 9 -14596413.61847  21201136.878    21201144.7754
  22971268.351    -9967945.815 8  -7739094.90746  22971267.423    22971276.4774
 01  4 23  1 28 30.0000000  0  9 21 17 23 03 14 09 15 29 31
  21144331.572   -24813988.633 9 -19323639.05347  21144330.774    21144338.4344
  22400252.438   -16830683.866 8 -12882771.64946  22400251.608    22400261.6264
  22398504.251   -15606271.614 8 -12143577.36446  22398503.369    22398511.6484
  21754179.475   -19866539.511 9 -15441383.62547  21754178.905    21754187.2334
  20956857.553   -21461746.098 9 -16437174.83047  20956856.790    20956863.7704
  23392503.799    -6785560.747 8  -5271544.70245  23392503.277    23392513.1704
  21167126.845   -23433887.109 9 -18242673.28047  21167125.844    21167134.0404
  21188810.804   -18851104.992 9 -14646888.50247  21188810.352    21188818.1894
  22963888.690   -10006726.262 8  -7769313.40046  22963887.801    22963896.8074
 01  4 23  1 29  0.0000000  0  9 21 17 23 03 14 09 15 29 31
  21142219.390   -24825088.218 9 -19332288.06247  21142218.597    21142226.2714
  22414953.807   -16753428.064 8 -12822572.41046  22414953.011    22414962.9804
  22408138.634   -15555642.837 8 -12104126.37646  22408137.759    22408145.9804
  21758966.977   -19841381.060 9 -15421779.65647  21758966.391    21758974.7514
  20945170.537   -21523161.523 9 -16485030.93447  20945169.771    20945176.7204
  23394172.761    -6776791.367 8  -5264711.35645  23394172.132    23394181.8284
  21177708.858   -23378278.400 9 -18199341.85247  21177707.828    21177716.0374
  21176563.128   -18915466.435 9 -14697040.19647  21176562.691    21176570.5034
  22956611.953   -10044965.614 8  -7799110.24146  22956611.059    22956620.0824
 01  4 23  1 29 30.0000000  0  9 21 17 23 03 14 09 15 29 31
  21140133.512   -24836049.552 9 -19340829.33747  21140132.691    21140140.3754
  22429716.662   -16675849.352 8 -12762121.56246  22429715.831    22429725.8394
  22417782.849   -15504962.261 8 -12064635.03746  22417781.953    22417790.2254
  21763855.750   -19815690.527 9 -15401761.08247  21763855.166    21763863.5104
  20933572.318   -21584110.238 9 -16532523.37047  20933571.550    20933578.4434
  23395950.021    -6767451.306 8  -5257433.34245  23395949.511    23395959.1034
  21188363.324   -23322288.819 9 -18155713.63347  21188362.322    21188370.5524
  21164394.335   -18979413.536 9 -14746869.02347  21164393.895    21164401.6944
  22949438.088   -10082664.758 8  -7828486.17646  22949437.105    22949446.0734
 01  4 23  1 30  0.0000000  0  9 21 17 23 03 14 09 15 29 31
  21138073.886   -24846872.845 9 -19349263.03947  21138073.077    21138080.7684
  22444540.768   -16597948.201 8 -12701419.46246  22444539.948    22444550.0524
  22427436.891   -15454229.867 8 -12025103.31146  22427436.039    22427444.2824
  21768845.539   -19789469.019 9 -15381328.75847  21768844.942    21768853.3034
  20922063.255   -21644590.494 9 -16579650.77147  20922062.498    20922069.3604
  23397836.158    -6757539.945 8  -5249710.15245  23397835.625    23397845.0674
  21199090.233   -23265918.588 9 -18111788.80447  21199089.246    21199097.4654
  21152304.601   -19042945.117 9 -14796374.07047  21152304.175    21152311.9624
  22942367.105   -10119822.540 8  -7857440.25946  22942366.110    22942375.1724
 01  4 23  1 30 30.0000000  0  9 21 17 23 03 14 09 15 29 31
  21136040.802   -24857556.681 9 -19357588.07947  21136039.984    21136047.6684
  22459426.461   -16519723.346 8 -12640465.13246  22459425.623    22459435.8424
  22437101.159   -15403444.030 8 -11985529.94546  22437100.259    22437108.5024
  21773936.482   -19762716.033 9 -15360482.30147  21773935.888    21773944.2694
  20910643.904   -21704599.310 9 -16626410.81847  20910643.153    20910649.9894
  23399831.424    -6747054.897 8  -5241539.92145  23399830.814    23399840.0954
  21209889.862   -23209166.172 9 -18067566.17047  21209888.889    21209897.1214
  21140294.554   -19106058.073 9 -14845552.92447  21140294.129    21140301.8984
  22935399.593   -10156435.887 8  -7885970.09446  22935398.714    22935407.7964
 01  4 23  1 31  0.0000000  0  9 21 17 23 03 14 09 15 29 31
  21134034.358   -24868100.643 9 -19365804.12247  21134033.533    21134041.1864
  22474373.825   -16441175.001 8 -12579258.70646  22474373.015    22474383.1104
  22446775.628   -15352604.364 8 -11945914.62346  22446774.711    22446782.9554
  21779128.359   -19735432.446 9 -15339222.38547  21779127.784    21779136.1514
  20899314.576   -21764135.097 9 -16672802.27047  20899313.826    20899320.6154
  23401935.792    -6735995.457 8  -5232922.12245  23401935.248    23401944.4134
  21220762.286   -23152031.248 9 -18023045.47347  21220761.323    21220769.5674
  21128364.532   -19168750.514 9 -14894404.09447  21128364.108    21128371.8624
  22928536.211   -10192503.082 8  -7914074.36846  22928535.316    22928544.3784
 01  4 23  1 31 30.0000000  0  9 21 17 23 03 14 09 15 29 31
  21132054.078   -24878506.970 9 -19373912.93047  21132053.254    21132060.9004
  22489382.122   -16362306.049 8 -12517802.48646  22489381.265    22489391.4494
  22456459.880   -15301713.360 8 -11906259.31646  22456458.957    22456467.2034
  21784420.512   -19707621.935 9 -15317551.88547  21784419.910    21784428.3134
  20888075.088   -21823198.786 9 -16718825.86447  20888074.317    20888081.0944
  23404149.120    -6724363.510 8  -5223858.21745  23404148.575    23404157.7934
  21231707.010   -23094516.497 9 -17978228.81847  21231706.026    21231714.2634
  21116514.223   -19231023.914 9 -14942928.73947  21116513.782    21116521.5544
  22921776.573   -10228025.341 8  -7941754.02946  22921775.685    22921784.7054
 01  4 23  1 32  0.0000000  0  9 21 17 23 03 14 09 15 29 31
  21130099.461   -24888778.590 9 -19381916.76447  21130098.627    21130106.2344
  22504450.922   -16283119.531 8 -12456098.80746  22504450.073    22504460.2914
  22466153.387   -15250773.652 8 -11866566.04446  22466152.476    22466160.7564
  21789812.270   -19679288.192 9 -15295473.65847  21789811.667    21789820.0814
  20876925.204   -21881791.427 9 -16764482.39647  20876924.456    20876931.2274
  23406471.117    -6712160.985 8  -5214349.70945  23406470.548    23406479.8084
  21242723.592   -23036624.198 9 -17933117.96647  21242722.589    21242730.8344
  21104743.443   -19292879.453 9 -14991127.78347  21104742.991    21104750.7394
  22915120.433   -10263004.130 8  -7969010.19946  22915119.513    22915128.4794
 01  4 23  1 32 30.0000000  0  9 21 17 23 03 14 09 15 29 31
  21128171.504   -24898909.953 9 -19389811.30747  21128170.662    21128178.2534
  22519581.061   -16203610.583 8 -12394143.87946  22519580.209    22519590.3894
  22475857.148   -15199779.959 8 -11826830.70846  22475856.259    22475864.5164
  21795304.409   -19650427.139 9 -15272984.55347  21795303.785    21795312.1804
  20865866.251   -21939906.472 9 -16809766.77447  20865865.482    20865872.2724
  23408902.883    -6699382.220 8  -5204392.17945  23408902.244    23408911.5104
  21253813.047   -22978348.995 9 -17887708.75147  21253812.032    21253820.2804
  21093053.478   -19354310.359 9 -15038995.94147  21093053.033    21093060.7434
  22908568.718   -10297432.853 8  -7995837.73046  22908567.889    22908576.8114
 01  4 23  1 33  0.0000000  0  9 21 17 23 03 14 09 15 29 31
  21126269.211   -24908906.400 9 -19397600.72747  21126268.379    21126275.9624
  22534771.287   -16123785.407 8 -12331942.55246  22534770.482    22534780.6694
  22485570.131   -15148737.778 8 -11787057.59246  22485569.264    22485577.5384
  21800895.437   -19621045.941 9 -15250090.13747  21800894.824    21800903.2304
  20854897.361   -21997547.940 9 -16854682.14147  20854896.586    20854903.3854
  23411443.286    -6686032.413 8  -5193989.69545  23411442.735    23411451.9944
  21264974.153   -22919696.970 9 -17842005.90947  21264973.145    21264981.4154
  21081443.472   -19415320.903 9 -15086536.55447  21081443.031    21081450.7124
  22902120.957   -10331316.182 8  -8022240.29746  22902120.072    22902129.0334
 01  4 23  1 33 30.0000000  0  9 21 17 23 03 14 09 15 29 31
  21124392.976   -24918766.014 9 -19405283.52547  21124392.158    21124399.7094
  22550022.115   -16043642.286 8 -12269493.47146  22550021.335    22550031.5034
  22495292.848   -15097644.714 8 -11747244.81846  22495291.944    22495300.2384
  21806585.759   -19591143.429 9 -15226789.50447  21806585.125    21806593.5244
  20844019.238   -22054712.563 9 -16899225.93347  20844018.466    20844025.2424
  23414092.810    -6672108.808 8  -5183140.09445  23414092.271    23414101.6424
  21276207.403   -22860665.922 9 -17796007.72147  21276206.409    21276214.6804
  21069914.152   -19475907.698 9 -15133746.96647  21069913.692    21069921.3414
  22895777.631   -10364650.379 8  -8048214.94546  22895776.724    22895785.6954
 01  4 23  1 34  0.0000000  0  9 21 17 23 03 14 09 15 29 31
  21122542.882   -24928488.084 9 -19412859.14347  21122542.068    21122549.6264
  22565333.447   -15963181.198 8 -12206796.61946  22565332.625    22565342.8994
  22505025.272   -15046500.386 8 -11707392.11446  22505024.405    22505032.6944
  21812375.077   -19560720.457 9 -15203083.32547  21812374.407    21812382.8274
  20833232.178   -22111398.480 9 -16943396.71347  20833231.434    20833238.2024
  23416851.627    -6657610.332 8  -5171842.55345  23416851.072    23416860.6124
  21287512.896   -22801255.298 9 -17749713.76347  21287511.902    21287520.1774
  21058465.798   -19536068.874 9 -15180625.73147  21058465.338    21058472.9654
  22889539.132   -10397433.669 8  -8073760.33146  22889538.273    22889547.2004
 01  4 23  1 34 30.0000000  0  9 21 17 23 03 14 09 15 29 31
  21120718.936   -24938072.902 9 -19420327.81047  21120718.121    21120725.6764
  22580705.259   -15882402.624 8 -12143852.36446  22580704.424    22580714.6514
  22514767.588   -14995304.571 8 -11667499.28146  22514766.701    22514774.9964
  21818263.227   -19529778.468 9 -15178972.71247  21818262.531    21818270.9594
  20822536.493   -22167604.344 9 -16987193.42747  20822535.748    20822542.5144
  23419719.817    -6642536.744 8  -5160096.88145  23419719.345    23419728.9134
  21298890.628   -22741465.194 9 -17703124.10247  21298889.626    21298897.8654
  21047098.649   -19595803.273 9 -15227171.93147  21047098.197    21047105.8164
  22883405.616   -10429665.436 8  -8098875.95746  22883404.769    22883413.6174
 01  4 23  1 35  0.0000000  0  9 21 17 23 03 14 09 15 29 31
  21118920.786   -24947522.207 9 -19427690.88047  21118919.956    21118927.5104
  22596136.847   -15801309.253 8 -12080662.83146  22596136.040    22596146.3014
  22524519.269   -14944059.189 8 -11627567.82546  22524518.360    22524526.6344
  21824249.458   -19498320.695 9 -15154460.19247  21824248.777    21824257.1904
  20811932.067   -22223330.845 9 -17030616.61147  20811931.310    20811938.0364
  23422697.511    -6626889.904 8  -5147904.48945  23422696.915    23422706.3254
  21310340.076   -22681297.944 9 -17656240.56447  21310339.079    21310347.3244
  21035812.587   -19655111.637 9 -15273386.16147  21035812.140    21035819.7264
  22877376.912   -10461346.424 8  -8123562.40946  22877376.062    22877384.9014
 01  4 23  1 35 30.0000000  0  9 21 17 23 03 14 09 15 29 31
  21117148.321   -24956836.407 9 -19434948.68147  21117147.483    21117155.0414
  22611628.228   -15719901.950 8 -12017228.66646  22611627.376    22611637.7014
  22534280.306   -14892764.489 8 -11587597.93946  22534279.423    22534287.6954
  21830333.547   -19466348.769 9 -15129547.03747  21830332.875    21830341.3024
  20801419.021   -22278577.008 9 -17073665.50547  20801418.258    20801424.9804
  23425783.919    -6610669.498 8  -5135265.18545  23425783.477    23425792.7904
  21321861.250   -22620753.920 9 -17609063.44147  21321860.243    21321868.5024
  21024607.734   -19713993.194 9 -15319267.82147  21024607.297    21024614.8574
  22871453.181   -10492475.977 8  -8147819.17246  22871452.333    22871461.0794
 01  4 23  1 36  0.0000000  0  9 21 17 23 03 14 09 15 29 31
  21115401.820   -24966014.234 9 -19442100.22247  21115400.992    21115408.5534
  22627179.492   -15638180.211 8 -11953549.47946  22627178.640    22627188.9174
  22544050.949   -14841419.519 8 -11547588.88446  22544050.059    22544058.3724
  21836515.344   -19433863.253 9 -15104233.68347  21836514.656    21836523.0834
  20790997.728   -22333340.747 9 -17116338.48347  20790996.992    20791003.7104
  23428980.061    -6593874.405 8  -5122178.06145  23428979.605    23428988.7184
  21333454.194   -22559832.481 9 -17561592.22747  21333453.198    21333461.4614
  21013484.551   -19772445.630 9 -15364815.10047  21013484.128    21013491.6784
  22865634.833   -10523051.808 8  -8171644.46246  22865633.971    22865642.7134
 01  4 23  1 36 30.0000000  0  9 21 17 23 03 14 09 15 29 31
  21113682.333   -24975050.173 9 -19449141.19447  21113681.512    21113689.0684
  22642791.334   -15556139.596 8 -11889621.83846  22642790.462    22642800.7674
  22553832.157   -14790019.036 8 -11507536.57946  22553831.248    22553839.5204
  21842795.585   -19400860.335 9 -15078517.16047  21842794.938    21842803.3564
  20780669.535   -22387615.556 9 -17158630.47947  20780668.793    20780675.4874
  23432286.598    -6576499.173 8  -5108638.87345  23432286.086    23432294.9804
  21345119.936   -22498528.732 9 -17513823.11147  21345118.931    21345127.2214
  21002444.208   -19830462.753 9 -15410023.17947  21002443.771    21002451.3044
  22859922.858   -10553068.180 8  -8195033.79946  22859922.016    22859930.7874
 01  4 23  1 37  0.0000000  0  9 21 17 23 03 14 09 15 29 31
  21111987.493   -24983956.438 9 -19456081.11647  21111986.656    21111994.2124
  22658461.545   -15473792.572 8 -11825455.40746  22658460.674    22658470.9104
  22563621.626   -14738574.992 8 -11467450.33646  22563620.721    22563629.0114
  21849171.829   -19367353.249 9 -15052407.77547  21849171.173    21849179.5704
  20770432.331   -22441412.227 9 -17200549.90147  20770431.590    20770438.2574
  23435701.264    -6558555.174 8  -5094656.51645  23435700.812    23435709.5844
  21356856.151   -22436854.651 9 -17465765.43247  21356855.157    21356863.4544
  20991484.653   -19888055.291 9 -15454900.42147  20991484.218    20991491.7214
  22854315.281   -10582535.730 8  -8217995.49446  22854314.448    22854323.2144
 01  4 23  1 37 30.0000000  0  9 21 17 23 03 14 09 15 29 31
  21110318.344   -24992727.782 9 -19462915.91547  21110317.521    21110325.0604
  22674190.986   -15391134.250 8 -11761046.42746  22674190.154    22674200.3654
  22573420.552   -14687081.652 8 -11427325.68246  22573419.666    22573427.9004
  21855644.720   -19333338.250 9 -15025902.62647  21855644.062    21855652.4444
  20760287.389   -22494724.093 9 -17242091.55947  20760286.643    20760293.2754
  23439225.273    -6540037.035 8  -5080226.75845  23439224.722    23439233.5044
  21368663.830   -22374805.054 9 -17417415.15147  21368662.833    21368671.1404
  20980607.214   -19945216.519 9 -15499441.57547  20980606.748    20980614.2374
  22848813.493   -10611447.874 8  -8240524.41846  22848812.576    22848821.3804
 01  4 23  1 38  0.0000000  0  9 21 17 23 03 14 09 15 29 31
  21108674.819   -25001364.512 9 -19469645.81247  21108673.979    21108681.5124
  22689979.409   -15308165.678 8 -11696395.69346  22689978.634    22689988.8434
  22583228.702   -14635539.377 8 -11387162.88746  22583227.877    22583236.0754
  21862213.874   -19298817.152 9 -14999003.10747  21862213.235    21862221.6304
  20750234.774   -22547550.594 9 -17283255.00447  20750234.012    20750240.6524
  23442858.483    -6520945.031 8  -5065349.84745  23442857.917    23442866.6214
  21380542.896   -22312380.538 9 -17368772.71547  21380541.889    21380550.1794
  20969811.928   -20001945.733 9 -15543646.08047  20969811.452    20969818.9074
  22843417.390   -10639804.289 8  -8262620.28046  22843416.472    22843425.2834
 01  4 23  1 38 30.0000000  0  9 21 17 23 03 14 09 15 29 31
  21107056.892   -25009866.702 9 -19476270.88347  21107056.059    21107063.5874
  22705826.736   -15224887.811 8 -11631503.94346  22705825.913    22705836.2064
  22593046.160   -14583948.411 8 -11346962.16246  22593045.300    22593053.5014
  21868878.955   -19263791.756 8 -14971710.63747  21868878.340    21868886.7714
  20740274.713   -22599890.717 9 -17324039.45847  20740273.967    20740280.5984
  23446600.827    -6501279.253 8  -5050025.83945  23446600.157    23446608.9644
  21392493.176   -22249581.725 9 -17319838.62047  21392492.156    21392500.4144
  20959099.007   -20058242.269 9 -15587513.44347  20959098.528    20959105.9554
  22838127.224   -10667604.212 8  -8284282.52846  22838126.335    22838135.0744
 01  4 23  1 39  0.0000000  0  9 21 17 23 03 14 09 15 29 31
  21105464.580   -25018234.190 9 -19482790.98847  21105463.752    21105471.3264
  22721732.715   -15141301.918 8 -11566372.17746  22721731.862    22721742.1754
  22602872.824   -14532309.098 8 -11306723.76046  22602871.967    22602880.1774
  21875639.631   -19228264.185 9 -14944026.85347  21875639.040    21875647.4784
  20730407.367   -22651743.763 9 -17364444.36847  20730406.618    20730413.2424
  23450451.931    -6481040.128 8  -5034255.06545  23450451.421    23450460.4274
  21404514.538   -22186409.161 9 -17270613.28247  21404513.543    21404521.7884
  20948468.573   -20114105.409 9 -15631043.09147  20948468.078    20948475.4914
  22832943.010   -10694847.617 8  -8305511.12746  22832942.093    22832950.7454
 01  4 23  1 39 30.0000000  0  9 21 17 23 03 14 09 15 29 31
  21103898.167   -25026465.519 9 -19489204.99347  21103897.346    21103904.9494
  22737697.560   -15057406.566 8 -11500999.27946  22737696.700    22737707.0824
  22612709.113   -14480619.321 8 -11266446.03946  22612708.228    22612716.4244
  21882496.074   -19192233.639 9 -14915951.14547  21882495.434    21882503.8834
  20720633.295   -22703106.623 9 -17404467.31747  20720632.545    20720639.1364
  23454412.723    -6460225.338 8  -5018035.74145  23454412.218    23454421.4474
  21416607.377   -22122861.056 9 -17221095.32147  21416606.362    21416614.6164
  20937921.181   -20169532.108 9 -15674232.65647  20937920.659    20937928.0734
  22827865.226   -10721531.544 8  -8326303.76446  22827864.228    22827872.9394
 01  4 23  1 40  0.0000000  0  9 21 17 23 03 14 09 15 29 31
  21102357.210   -25034563.042 9 -19495514.73447  21102356.393    21102364.0224
  22753720.632   -14973205.492 8 -11435388.16046  22753719.708    22753730.1464
  22622554.413   -14428882.024 8 -11226131.28846  22622553.512    22622561.7034
  21889447.290   -19155704.911 8 -14887487.24747  21889446.631    21889455.0604
  20710952.136   -22753981.411 9 -17444109.94047  20710951.367    20710957.9414
  23458482.536    -6438838.168 8  -5001370.39645  23458482.011    23458491.2384
  21428770.956   -22058940.933 9 -17171287.47947  21428769.961    21428778.2444
  20927456.397   -20224524.453 9 -15717083.76247  20927455.904    20927463.2964
  22822893.395   -10747658.318 8  -8346662.26246  22822892.440    22822901.1444
 01  4 23  1 40 30.0000000  0  9 21 17 23 03 14 09 15 29 31
  21100841.824   -25042526.229 9 -19501719.80547  21100841.022    21100848.6514
  22769801.935   -14888698.336 8 -11369538.52046  22769800.995    22769811.3814
  22632408.961   -14377096.077 8 -11185778.63646  22632408.060    22632416.2454
  21896493.162   -19118678.613 8 -14858635.62447  21896492.544    21896500.9844
  20701364.220   -22804365.995 9 -17483370.59047  20701363.445    20701369.9864
  23462661.616    -6416877.325 8  -4984258.01045  23462661.008    23462670.0824
  21441005.525   -21994648.034 9 -17121189.16647  21441004.541    21441012.8534
  20917074.701   -20279080.343 9 -15759594.78247  20917074.231    20917081.5924
  22818027.955   -10773225.906 8  -8366585.03646  22818027.029    22818035.7444
 01  4 23  1 41  0.0000000  0  9 21 17 23 03 14 09 15 29 31
  21099352.037   -25050355.207 9 -19507820.29947  21099351.233    21099358.8574
  22785941.253   -14803886.068 8 -11303451.15946  22785940.321    22785950.7804
  22642272.812   -14325261.452 8 -11145388.05746  22642271.872    22642280.0754
  21903633.441   -19081156.472 8 -14829397.64447  21903632.810    21903641.2484
  20691869.740   -22854259.534 9 -17522248.62147  20691868.967    20691875.4924
  23466949.554    -6394342.913 8  -4966698.70745  23466949.009    23466958.2824
  21453310.860   -21929982.962 9 -17070800.85247  21453309.863    21453318.2364
  20906776.235   -20333199.025 9 -15801765.12447  20906775.760    20906783.0794
  22813269.146   -10798233.649 8  -8386071.57146  22813268.223    22813276.9414
 01  4 23  1 41 30.0000000  0  9 21 17 23 03 14 09 15 29 31
  21097887.579   -25058051.014 9 -19513817.02347  21097886.777    21097894.3714
  22802138.304   -14718770.616 8 -11237127.52746  22802137.349    22802147.8264
  22652145.668   -14273379.183 8 -11104960.35046  22652144.727    22652152.9304
  21910867.437   -19043141.614 8 -14799775.71447  21910866.793    21910875.2684
  20682468.670   -22903662.293 9 -17560744.22047  20682467.906    20682474.4124
  23471346.731    -6371236.142 8  -4948693.38945  23471346.165    23471355.4344
  21465686.765   -21864947.163 9 -17020123.65447  21465685.775    21465694.1904
  20896560.907   -20386880.554 9 -15843594.81847  20896560.453    20896567.7594
  22808616.723   -10822682.003 8  -8405122.20946  22808615.804    22808624.5464
 01  4 23  1 42  0.0000000  0  9 21 17 23 03 14 09 15 29 31
  21096448.701   -25065612.282 9 -19519708.90247  21096447.903    21096455.4774
  22818393.138   -14633351.136 8 -11170567.01846  22818392.216    22818402.7184
  22662027.907   -14221447.702 8 -11064494.29146  22662026.946    22662035.1634
  21918195.255   -19004633.833 8 -14769769.69547  21918194.610    21918203.0964
  20673161.475   -22952571.555 9 -17598855.27147  20673160.739    20673167.2304
  23475853.226    -6347555.771 8  -4930241.11945  23475852.565    23475861.5954
  21478133.492   -21799539.598 9 -16969156.77147  21478132.488    21478140.9064
  20886429.234   -20440122.528 9 -15885081.99847  20886428.786    20886436.0914
  22804071.092   -10846568.998 8  -8423735.42446  22804070.221    22804078.9614
 01  4 23  1 42 30.0000000  0  9 21 17 23 03 14 09 15 29 31
  21095035.101   -25073040.852 9 -19525497.39847  21095034.272    21095041.8474
  22834705.153   -14547630.612 8 -11103771.89646  22834704.273    22834714.9174
  22671919.131   -14169468.837 8 -11023991.31146  22671918.168    22671926.4674
  21925616.071   -18965637.383 8 -14739382.89447  21925615.452    21925623.9384
  20663947.955   -23000988.696 9 -17636582.84848  20663947.207    20663953.7004
  23480468.098    -6323303.793 8  -4911343.43945  23480467.431    23480476.5534
  21490650.492   -21733762.536 9 -16917901.96747  21490649.463    21490657.8954
  20876381.008   -20492926.188 9 -15926227.63547  20876380.533    20876387.8174
  22799632.110   -10869895.767 8  -8441912.09946  22799631.204    22799640.0524
 01  4 23  1 43  0.0000000  0  9 21 17 23 03 14 09 15 29 31
  21093646.925   -25080335.745 9 -19531181.72047  21093646.103    21093653.6654
  22851074.466   -14461609.036 8 -11036742.21546  22851073.671    22851084.3494
  22681819.500   -14117442.004 8 -10983450.95246  22681818.564    22681826.8914
  21933129.691   -18926153.030 9 -14708615.90847  21933129.091    21933137.5874
  20654828.359   -23048912.101 9 -17673925.70348  20654827.630    20654834.1404
  23485191.705    -6298479.727 8  -4891999.99445  23485191.170    23485200.2744
  21503237.855   -21667615.727 9 -16866359.05847  21503236.839    21503245.2834
  20866416.438   -20545289.894 9 -15967030.46147  20866415.981    20866423.2594
  22795299.981   -10892661.149 8  -8459651.33446  22795299.033    22795307.9414
 01  4 23  1 43 30.0000000  0  9 21 17 23 03 14 09 15 29 31
  21092284.216   -25087497.058 9 -19536761.95247  21092283.366    21092290.9404
  22867500.948   -14375287.762 8 -10969478.99946  22867500.149    22867510.8774
  22691728.944   -14065367.705 8 -10942873.61346  22691727.984    22691736.3424
  21940735.798   -18886183.096 8 -14677470.54747  21940735.195    21940743.6814
  20645802.838   -23096341.283 9 -17710883.45748  20645802.099    20645808.6144
  23490024.417    -6273084.085 8  -4872211.15145  23490023.954    23490032.8744
  21515895.311   -21601100.341 9 -16814528.95547  21515894.326    21515902.7744
  20856535.727   -20597213.227 9 -16007490.13947  20856535.271    20856542.5224
  22791074.680   -10914864.920 8  -8476952.95646  22791073.738    22791082.6894
 01  4 23  1 44  0.0000000  0  9 21 17 23 03 14 09 15 29 31
  21090946.998   -25094524.146 9 -19542237.59247  21090946.142    21090953.7054
  22883984.486   -14288666.879 8 -10901982.32946  22883983.668    22883994.3664
  22701647.563   -14013244.933 8 -10902258.50546  22701646.657    22701655.0964
  21948434.019   -18845728.692 8 -14645947.67547  21948433.386    21948441.9044
  20636871.670   -23143274.698 9 -17747454.90048  20636870.902    20636877.4294
  23494965.911    -6247116.544 8  -4851976.65845  23494965.413    23494974.1884
  21528623.099   -21534215.883 9 -16762411.25647  21528622.095    21528630.5504
  20846739.074   -20648694.618 9 -16047605.45747  20846738.633    20846745.8884
  22786956.564   -10936505.758 8  -8493815.92346  22786955.639    22786964.5284
 01  4 23  1 44 30.0000000  0  9 21 17 23 03 14 09 15 29 31
  21089634.980   -25101418.766 9 -19547610.02047  21089634.160    21089641.7084
  22900524.431   -14201748.683 8 -10834253.98846  22900523.627    22900534.4394
  22711575.164   -13961075.118 8 -10861606.73546  22711574.244    22711582.6934
  21956223.815   -18804792.989 8 -14614049.76847  21956223.203    21956231.7774
  20628034.707   -23189713.010 9 -17783640.55248  20628033.949    20628040.4574
  23500015.810    -6220578.675 8  -4831297.77145  23500015.228    23500024.1294
  21541420.632   -21466964.616 9 -16710007.72947  21541419.655    21541428.1254
  20837026.358   -20699734.881 9 -16087377.03547  20837025.917    20837033.1914
  22782945.425   -10957584.867 8  -8510241.18946  22782944.476    22782953.2924
 01  4 23  1 45  0.0000000  0  9 21 17 23 03 14 09 15 29 31
  21088348.699   -25108178.165 9 -19552877.07247  21088347.861    21088355.4074
  22917121.348   -14114532.077 8 -10766293.08446  22917120.547    22917131.2864
  22721512.225   -13908855.830 8 -10820916.41246  22721511.275    22721519.7594
  21964105.237   -18763375.808 8 -14581776.68447  21964104.647    21964113.2404
  20619292.521   -23235653.175 9 -17819438.03248  20619291.771    20619298.2724
  23505174.531    -6193468.526 8  -4810172.95145  23505173.987    23505183.0994
  21554288.310   -21399344.744 9 -16657316.97447  21554287.317    21554295.8004
  20827398.220   -20750330.756 9 -16126802.33647  20827397.793    20827405.0324
  22779041.602   -10978099.435 8  -8526226.53946  22779040.678    22779049.4924
 01  4 23  1 45 30.0000000  0  9 21 17 23 03 14 09 15 29 31
  21087087.765   -25114804.506 9 -19558040.44447  21087086.914    21087094.4574
  22933774.480   -14027019.293 8 -10698101.45546  22933773.648    22933784.5874
  22731458.351   -13856588.683 8 -10780188.80246  22731457.389    22731465.9174
  21972077.721   -18721480.486 9 -14549131.02347  21972077.098    21972085.7154
  20610645.011   -23281096.142 9 -17854848.08748  20610644.238    20610650.6944
  23510441.840    -6165788.147 8  -4788603.79045  23510441.321    23510450.5984
  21567225.773   -21331358.363 9 -16604340.62847  21567224.751    21567233.2774
  20817854.477   -20800483.163 9 -16165882.07147  20817854.050    20817861.2634
  22775244.990   -10998050.541 8  -8541772.82946  22775244.097    22775252.9044
 01  4 23  1 46  0.0000000  0  9 21 17 23 03 14 09 15 29 31
  21085851.251   -25121302.270 9 -19563103.62547  21085850.400    21085857.9364
  22950483.128   -13939215.780 8 -10629683.22845  22950482.271    22950493.1314
  22741412.813   -13804277.830 8 -10739427.13046  22741411.848    22741420.3624
  21980139.962   -18679113.238 8 -14516117.63047  21980139.376    21980148.0044
  20602091.402   -23326045.596 9 -17889873.59348  20602090.629    20602097.0484
  23515816.900    -6137542.086 8  -4766593.84245  23515816.409    23515825.6134
  21580232.099   -21263009.971 9 -16551082.19447  21580231.057    21580239.5724
  20808394.480   -20850195.808 9 -16204619.12947  20808394.019    20808401.2174
  22771554.941   -11017441.749 8  -8556882.86046  22771554.071    22771562.8144
 01  4 23  1 46 30.0000000  0  9 21 17 23 03 14 09 15 29 31
  21084640.606   -25127664.362 9 -19568061.10047  21084639.768    21084647.2864
  22967248.003   -13851115.978 8 -10561034.14745  22967247.185    22967258.0324
  22751376.769   -13751916.811 8 -10698626.37046  22751375.840    22751384.2994
  21988292.888   -18636269.683 8 -14482733.08147  21988292.282    21988300.9124
  20593633.113   -23370494.164 9 -17924508.79448  20593632.325    20593638.7064
  23521300.902    -6108724.395 8  -4744138.45745  23521300.312    23521309.4344
  21593308.338   -21194293.899 9 -16497537.24847  21593307.304    21593315.8274
  20799019.482   -20899461.528 9 -16243007.93847  20799019.039    20799026.2024
  22767972.711   -11036266.633 8  -8571551.59046  22767971.811    22767980.5554
 01  4 23  1 47  0.0000000  0  9 21 17 23 03 14 09 15 29 31
  21083455.214   -25133893.691 9 -19572915.11547  21083454.358    21083461.8544
  22984068.513   -13762723.877 8 -10492157.30745  22984067.740    22984078.5824
  22761349.733   -13699508.639 8 -10657788.86446  22761348.816    22761357.3024
  21996535.427   -18592954.845 8 -14448981.30747  21996534.846    21996543.4594
  20585269.664   -23414444.313 9 -17958755.60948  20585268.885    20585275.2304
  23526892.845    -6079338.705 8  -4721240.46545  23526892.232    23526901.2094
  21606453.846   -21125213.898 9 -16443708.73047  21606452.834    21606461.3374
  20789729.123   -20948282.513 9 -16281050.20447  20789728.680    20789735.8464
  22764497.723   -11054527.883 8  -8585781.12246  22764496.757    22764505.5404
 01  4 23  1 47 30.0000000  0  9 21 17 23 03 14 09 15 29 31
  21082294.866   -25139991.267 9 -19577666.46147  21082294.012    21082301.4824
  23000944.394   -13674041.498 8 -10423054.27645  23000943.557    23000954.4004
  22771331.519   -13647054.224 8 -10616915.32346  22771330.606    22771339.0344
  22004867.148   -18549171.679 8 -14414864.59847  22004866.538    22004875.1294
  20577000.941   -23457896.482 9 -17992614.39148  20577000.169    20577006.4944
  23532592.587    -6049386.353 8  -4697900.91645  23532591.966    23532600.9024
  21619668.325   -21055771.575 9 -16389597.88347  21619667.316    21619675.8314
  20780523.295   -20996659.319 9 -16318746.36247  20780522.844    20780529.9594
  22761129.823   -11072226.067 8  -8599571.90046  22761128.899    22761137.6604
 01  4 23  1 48  0.0000000  0  9 21 17 23 03 14 09 15 29 31
  21081160.132   -25145954.434 9 -19582313.06947  21081159.267    21081166.7234
  23017875.871   -13585066.680 8 -10353723.34345  23017875.037    23017885.7784
  22781322.720   -13594550.357 8 -10576003.25246  22781321.799    22781330.2094
  22013288.194   -18504919.163 8 -14380382.16847  22013287.558    22013296.2014
  20568827.709   -23500846.852 9 -18026082.16348  20568826.937    20568833.2404
  23538400.577    -6018864.783 8  -4674117.82845  23538399.975    23538408.8644
  21632952.221   -20985964.312 8 -16335202.66747  21632951.209    21632959.7524
  20771402.670   -21044588.302 9 -16356093.56647  20771402.218    20771409.3404
  22757869.661   -11089358.082 8  -8612921.50446  22757868.795    22757877.5514
 01  4 23  1 48 30.0000000  0  9 21 17 23 03 14 09 15 29 31
  21080050.670   -25151784.614 9 -19586856.05447  21080049.815    21080057.2624
  23034862.353   -13495802.413 8 -10284166.89445  23034861.537    23034872.2914
  22791323.010   -13541998.628 8 -10535053.87246  22791322.086    22791330.4864
  22021797.796   -18460201.181 8 -14345537.03347  22021797.177    22021805.7774
  20560749.716   -23543296.770 9 -18059159.97748  20560748.950    20560755.2404
  23544316.204    -5987776.355 8  -4649893.05045  23544315.720    23544324.6904
  21646305.089   -20915794.706 8 -16280525.10647  21646304.065    21646312.6354
  20762367.053   -21092070.427 9 -16393092.56547  20762366.613    20762373.7194
  22754717.034   -11105925.339 8  -8625831.02646  22754716.138    22754724.9054
 01  4 23  1 49  0.0000000  0  9 21 17 23 03 14 09 15 29 31
  21078966.149   -25157483.712 9 -19591296.90247  21078965.306    21078972.7494
  23051903.198   -13406251.999 8 -10214387.48645  23051902.340    23051913.2014
  22801331.904   -13489401.506 8 -10494069.12146  22801330.987    22801339.3984
  22030395.180   -18415022.093 8 -14310332.59247  22030394.515    22030403.1114
  20552766.672   -23585247.806 9 -18091849.05448  20552765.906    20552772.1734
  23550339.083    -5956123.903 8  -4625228.77545  23550338.671    23550347.7714
  21659726.290   -20845266.080 8 -16225567.78447  21659725.264    21659733.8174
  20753416.177   -21139107.500 9 -16429744.77347  20753415.749    20753422.8064
  22751671.439   -11121929.894 8  -8638302.09446  22751670.566    22751679.3194
 01  4 23  1 49 30.0000000  0  9 21 17 23 03 14 09 15 29 31
  21077907.503   -25163046.898 9 -19595631.84547  21077906.659    21077914.0804
  23068999.402   -13316411.145 8 -10144381.71645  23068998.644    23069009.4674
  22811350.460   -13436753.483 8 -10453044.72346  22811349.561    22811357.9534
  22039080.858   -18369378.510 8 -14274766.20847  22039080.232    22039088.8424
  20544879.690   -23626694.109 9 -18124144.83248  20544878.926    20544885.1684
  23556470.762    -5923902.541 8  -4600121.18945  23556470.224    23556479.1444
  21673216.728   -20774373.481 8 -16170326.85547  21673215.735    21673224.2854
  20744551.112   -21185693.648 9 -16466045.61747  20744550.666    20744557.6984
  22748734.023   -11137365.977 8  -8650330.19346  22748733.111    22748741.8914
 01  4 23  1 50  0.0000000  0  9 21 17 23 03 14 09 15 29 31
  21076873.840   -25168478.769 9 -19599864.46447  21076872.994    21076880.4244
  23086149.890   -13226285.734 8 -10074154.23945  23086149.072    23086159.8484
  22821377.854   -13384059.313 8 -10411984.35446  22821376.969    22821385.4294
  22047853.624   -18323277.525 8 -14238843.40447  22047852.959    22047861.6204
  20537087.838   -23667640.332 9 -18156050.93148  20537087.061    20537093.3064
  23562709.667    -5891117.617 8  -4574574.45745  23562709.135    23562717.8154
  21686775.377   -20703122.516 9 -16114806.67347  21686774.378    21686782.9274
  20735771.013   -21231833.275 9 -16501998.52047  20735770.545    20735777.5154
  22745903.864   -11152238.519 8  -8661919.17746  22745902.949    22745911.7554
 01  4 23  1 50 30.0000000  0  9 21 17 23 03 14 09 15 29 31
  21075865.166   -25173779.353 9 -19603994.78447  21075864.323    21075871.7484
  23103354.219   -13135877.083 8 -10003706.05845  23103353.352    23103364.1684
  22831413.951   -13331319.124 8 -10370888.13146  22831413.082    22831421.5584
  22056712.954   -18276721.366 8 -14202565.91847  22056712.326    22056721.0144
  20529391.302   -23708085.701 9 -18187566.75748  20529390.529    20529396.7674
  23569055.372    -5857770.052 8  -4548589.32145  23569054.953    23569063.7084
  21700402.104   -20631514.025 9 -16059007.90447  21700401.085    21700409.6484
  20727075.931   -21277525.935 9 -16537603.13047  20727075.474    20727082.4244
  22743180.888   -11166547.585 8  -8673069.07446  22743179.944    22743188.8064
 01  4 23  1 51  0.0000000  0  9 21 17 23 03 14 09 15 29 31
  21074882.033   -25178945.741 9 -19608020.51947  21074881.183    21074888.6184
  23120612.759   -13045183.428 8  -9933035.80245  23120611.913    23120622.7714
  22841459.421   -13278529.944 8 -10329753.72846  22841458.537    22841467.0554
  22065659.085   -18229709.245 8 -14165933.14347  22065658.463    22065667.1634
  20521790.625   -23748027.330 9 -18218690.05948  20521789.851    20521796.0864
  23575508.616    -5823857.535 8  -4522163.94245  23575508.265    23575517.0344
  21714097.258   -20559545.696 9 -16002928.73947  21714096.264    21714104.8304
  20718466.526   -21322768.345 9 -16572856.89247  20718466.085    20718473.0344
  22740565.729   -11180290.160 8  -8683777.55046  22740564.815    22740573.7174
 01  4 23  1 51 30.0000000  0  9 21 17 23 03 14 09 15 29 31
  21073924.138   -25183979.365 9 -19611942.81047  21073923.306    21073930.7114
  23137925.108   -12954206.941 8  -9862145.15545  23137924.238    23137935.0774
  22851514.039   -13225692.826 8 -10288581.95646  22851513.136    22851521.6724
  22074691.338   -18182244.766 8 -14128947.87847  22074690.739    22074699.4134
  20514285.701   -23787465.680 9 -18249421.20348  20514284.936    20514291.1634
  23582069.136    -5789382.209 8  -4495300.03045  23582068.684    23582077.3144
  21727860.440   -20487219.644 8 -15946570.82047  21727859.476    21727868.0614
  20709942.723   -21367561.059 9 -16607760.25447  20709942.265    20709949.2224
  22738058.176   -11193467.294 8  -8694045.43646  22738057.301    22738066.1774
 01  4 23  1 52  0.0000000  0  9 21 17 23 03 14 09 15 29 31
  21072990.852   -25188883.755 9 -19615764.40247  21072990.042    21072997.4564
  23155290.391   -12862952.374 8  -9791037.82145  23155289.476    23155300.4494
  22861577.133   -13172811.170 8 -10247375.49146  22861576.210    22861584.7004
  22083808.596   -18134333.656 8 -14091614.58647  22083807.968    22083816.6354
  20506875.989   -23826403.853 9 -18279762.58748  20506875.216    20506881.4554
  23588735.967    -5754348.192 8  -4468000.74145  23588735.399    23588743.9564
  21741690.929   -20414540.223 8 -15889937.55547  21741689.931    21741698.5334
  20701503.856   -21411907.258 9 -16642315.68247  20701503.407    20701510.3634
  22735657.658   -11206082.266 8  -8703875.25946  22735656.793    22735665.6404
 01  4 23  1 52 30.0000000  0  9 21 17 23 03 14 09 15 29 31
  21072083.642   -25193651.218 9 -19619479.29447  21072082.811    21072090.2104
  23172709.746   -12771413.466 8  -9719708.91745  23172708.917    23172719.8574
  22871650.055   -13119877.796 8 -10206128.72746  22871649.117    22871657.6214
  22093011.824   -18085970.690 8 -14053929.20247  22093011.217    22093019.8544
  20499562.928   -23864834.028 9 -18309708.13548  20499562.159    20499568.3854
  23595510.198    -5718748.982 8  -4440261.08645  23595509.629    23595518.2564
  21755589.872   -20341500.957 8 -15833023.89847  21755588.869    21755597.4794
  20693151.463   -21455799.142 9 -16676517.10247  20693151.010    20693157.9464
  22733365.385   -11218128.033 8  -8713261.55346  22733364.529    22733373.3664
 01  4 23  1 53  0.0000000  0  9 21 17 23 03 14 09 15 29 31
  21071201.002   -25198289.467 9 -19623093.49747  21071200.162    21071207.5804
  23190181.562   -12679598.985 8  -9648165.30245  23190180.652    23190191.8094
  22881731.379   -13066900.067 8 -10164847.40346  22881730.467    22881738.9424
  22102299.169   -18037165.683 8 -14015899.37247  22102298.487    22102307.1764
  20492345.158   -23902763.651 9 -18339263.64448  20492344.375    20492350.5864
  23602390.418    -5682592.940 8  -4412087.50945  23602389.905    23602398.5364
  21769555.762   -20268109.951 8 -15775836.15147  21769554.751    21769563.3614
  20684884.160   -21499243.872 9 -16710370.09047  20684883.713    20684890.6364
  22731180.121   -11229611.915 8  -8722210.01646  22731179.252    22731188.0164
 01  4 23  1 53 30.0000000  0  9 21 17 23 03 14 09 15 29 31
  21070343.843   -25202793.818 9 -19626603.36347  21070342.995    21070350.4014
  23207706.468   -12587505.530 8  -9576404.30645  23207705.510    23207716.7654
  22891822.073   -13013873.247 8 -10123527.82446  22891821.142    22891829.6164
  22111671.048   -17987916.148 8 -13977523.15847  22111670.409    22111679.0594
  20485223.552   -23940187.736 9 -18368425.21448  20485222.746    20485228.9584
  23609377.472    -5645876.054 8  -4383476.92845  23609376.849    23609385.5604
  21783589.292   -20194363.621 8 -15718371.53247  21783588.276    21783596.9064
  20676702.934   -21542236.277 9 -16743870.60547  20676702.477    20676709.3734
  22729102.636   -11240529.261 8  -8730717.03346  22729101.730    22729110.4804
 01  4 23  1 54  0.0000000  0  9 21 17 23 03 14 09 15 29 31
  21069512.042   -25207164.924 9 -19630009.40347  21069511.191    21069518.6124
  23225284.069   -12495135.217 8  -9504427.57045  23225283.061    23225294.4254
  22901921.947   -12960798.303 8 -10082170.74246  22901921.020    22901929.4324
  22121126.942   -17938225.518 8 -13938803.23247  22121126.283    22121134.9214
  20478198.054   -23977106.844 9 -18397193.30848  20478197.269    20478203.4604
  23616470.723    -5608600.547 8  -4354431.04145  23616470.108    23616478.7494
  21797690.021   -20120263.909 8 -15660631.54947  21797688.994    21797697.6384
  20668607.627   -21584777.308 9 -16777019.41047  20668607.141    20668614.0104
  22727132.622   -11250881.476 8  -8738783.68046  22727131.684    22727140.4414
 01  4 23  1 54 30.0000000  0  9 21 17 23 03 14 09 15 29 31
  21068705.436   -25211403.608 9 -19633312.25647  21068704.559    21068711.9924
  23242913.643   -12402490.949 8  -9432237.37345  23242912.736    23242924.1824
  22912030.632   -12907676.605 8 -10040777.24546  22912029.732    22912038.1724
  22130665.989   -17888097.528 8 -13899742.50347  22130665.339    22130673.9864
  20471268.393   -24013522.352 9 -18425568.98948  20471267.596    20471273.7684
  23623669.909    -5570768.874 8  -4324951.78745  23623669.314    23623677.7914
  21811857.607   -20045813.229 8 -15602618.08447  21811856.566    21811865.2264
  20660597.986   -21626868.034 9 -16809817.32647  20660597.506    20660604.3854
  22725269.864   -11260670.155 8  -8746411.21146  22725268.974    22725277.6784
 01  4 23  1 55  0.0000000  0  9 21 17 23 03 14 09 15 29 31
  21067924.215   -25215508.942 9 -19636511.20547  21067923.350    21067930.7724
  23260595.733   -12309571.681 8  -9359832.87145  23260594.836    23260606.1734
  22922148.735   -12854505.867 8  -9999345.53046  22922147.837    22922156.2384
  22140288.200   -17837532.341 8 -13860341.10647  22140287.588    22140296.2784
  20464435.053   -24049431.588 9 -18453550.18148  20464434.267    20464440.4504
  23630975.148    -5532379.612 8  -4295038.04345  23630974.517    23630983.0674
  21826092.251   -19971009.894 8 -15544329.83247  21826091.221    21826099.8704
  20652674.462   -21668505.918 9 -16842262.38547  20652673.991    20652680.8824
  22723514.885   -11269892.792 8  -8753597.67846  22723513.969    22723522.6094
 01  4 23  1 55 30.0000000  0  9 21 17 23 03 14 09 15 29 31
  21067168.142   -25219481.959 9 -19639607.04847  21067167.294    21067174.7114
  23278329.558   -12216380.509 8  -9287216.51545  23278328.588    23278340.0574
  22932275.829   -12801287.847 8  -9957876.96446  22932274.916    22932283.3434
  22149992.864   -17786534.128 8 -13820602.28446  22149992.239    22150000.9474
  20457697.679   -24084836.460 9 -18481138.35048  20457696.911    20457703.0704
  23638385.836    -5493435.456 8  -4264691.90445  23638385.267    23638393.8224
  21840393.490   -19895856.979 8 -15485769.18747  21840392.441    21840401.0814
  20644836.867   -21709692.576 9 -16874355.83347  20644836.397    20644843.2874
  22721867.059   -11278551.947 8  -8760345.06946  22721866.190    22721874.8134
 01  4 23  1 56  0.0000000  0  9 21 17 23 03 14 09 15 29 31
  21066437.597   -25223320.952 9 -19642598.45947  21066436.739    21066444.1644
  23296115.269   -12122916.277 8  -9214387.39145  23296114.365    23296125.7994
  22942412.362   -12748020.038 8  -9916369.62246  22942411.438    22942419.9364
  22159779.893   -17735103.038 8 -13780526.16146  22159779.264    22159788.0214
  20451056.804   -24119734.295 9 -18508331.43148  20451056.029    20451062.1794
  23645902.547    -5453934.906 8  -4233912.21345  23645901.903    23645910.4714
  21854761.482   -19820352.862 8 -15426934.87347  21854760.444    21854769.1094
  20637085.646   -21750425.340 9 -16906095.60447  20637085.163    20637092.0484
  22720326.987   -11286645.322 8  -8766651.59946  22720326.075    22720334.7264
 01  4 23  1 56 30.0000000  0  9 21 17 23 03 14 09 15 29 31
  21065731.835   -25227029.540 9 -19645488.25947  21065730.988    21065738.4234
  23313951.867   -12029184.395 8  -9141349.67645  23313951.037    23313962.5224
  22952557.541   -12694706.532 8  -9874826.64946  22952556.626    22952565.1254
  22169648.055   -17683245.527 8 -13740117.75946  22169647.422    22169656.2194
  20444511.702   -24154128.944 9 -18535132.42048  20444510.910    20444517.0474
  23653524.132    -5413883.230 8  -4202703.09845  23653523.496    23653531.9684
  21869195.334   -19744502.598 8 -15367830.83147  21869194.312    21869202.9534
  20629420.090   -21790708.050 9 -16937484.68247  20629419.590    20629426.4744
  22718893.804   -11294177.109 8  -8772520.53346  22718892.848    22718901.4884
 01  4 23  1 57  0.0000000  0  9 21 17 23 03 14 09 15 29 31
  21065051.719   -25230603.601 9 -19648273.23147  21065050.879    21065058.2894
  23331839.974   -11935182.487 8  -9068101.57345  23331839.243    23331850.5944
  22962712.151   -12641343.619 8  -9833245.17746  22962711.256    22962719.8444
  22179597.601   -17630960.359 8 -13699376.11346  22179596.954    22179605.7374
  20438063.065   -24188016.630 9 -18561538.37048  20438062.274    20438068.4084
  23661251.123    -5373277.721 8  -4171062.42545  23661250.448    23661258.9174
  21883695.628   -19668303.471 8 -15308454.95247  21883694.583    21883703.2464
  20621840.895   -21830536.824 9 -16968520.03847  20621840.407    20621847.2734
  22717567.996   -11301144.130 8  -8777949.38046  22717567.076    22717575.7264
 01  4 23  1 57 30.0000000  0  9 21 17 23 03 14 09 15 29 31
  21064396.937   -25234044.495 9 -19650954.43347  21064396.082    21064403.4884
  23349778.922   -11840912.996 8  -8994644.94345  23349778.124    23349789.5514
  22972876.025   -12587932.321 8  -9791626.01646  22972875.109    22972883.7594
  22189627.986   -17578250.815 8 -13658303.78646  22189627.311    22189636.0964
  20431710.719   -24221398.231 9 -18587549.95748  20431709.932    20431716.0504
  23669083.116    -5332120.437 8  -4138991.78245  23669082.446    23669090.7354
  21898261.866   -19591757.596 8 -15248808.87447  21898260.819    21898269.5204
  20614347.923   -21869912.540 9 -16999202.36547  20614347.434    20614354.2604
  22716349.452   -11307547.484 8  -8782939.00146  22716348.549    22716357.1554
 01  4 23  1 58  0.0000000  0  9 21 17 23 03 14 09 15 29 31
  21063767.510   -25237352.106 9 -19653531.78847  21063766.668    21063774.0644
  23367768.629   -11746377.172 8  -8920980.78545  23367767.871    23367779.1384
  22983049.128   -12534472.541 8  -9749969.07646  22983048.206    22983056.8334
  22199738.585   -17525119.390 8 -13616902.72146  22199737.911    22199746.6924
  20425454.710   -24254273.729 9 -18613167.19848  20425453.903    20425460.0084
  23677019.824    -5290412.531 8  -4106492.06245  23677019.200    23677027.4384
  21912893.877   -19514866.001 8 -15188893.40947  21912892.840    21912901.5454
  20606941.184   -21908835.161 9 -17029531.64947  20606940.682    20606947.5004
  22715238.115   -11313387.632 8  -8787489.76146  22715237.188    22715245.7894
 01  4 23  1 58 30.0000000  0  9 21 17 23 03 14 09 15 29 31
  21063163.484   -25240526.362 9 -19656005.22547  21063162.626    21063170.0024
  23385808.801   -11651576.447 8  -8847110.21145  23385807.952    23385819.2094
  22993231.483   -12480964.206 8  -9708274.29146  22993230.558    22993239.1574
  22209928.912   -17471568.815 8 -13575175.05346  22209928.297    22209937.0764
  20419295.018   -24286643.039 9 -18638390.00248  20419294.207    20419300.3074
  23685060.974    -5248155.354 8  -4073564.36645  23685060.453    23685068.8184
  21927591.517   -19437629.764 8 -15128709.38747  21927590.455    21927599.1404
  20599620.699   -21947304.347 9 -17059507.58747  20599620.200    20599627.0344
  22714233.959   -11318664.909 8  -8791601.91946  22714232.974    22714241.5684
 01  4 23  1 59  0.0000000  0  9 21 17 23 03 14 09 15 29 31
  21062584.840   -25243567.017 9 -19658374.56047  21062583.977    21062591.3534
  23403899.107   -11556511.593 8  -8773033.83345  23403898.367    23403909.4964
  23003423.231   -12427406.614 8  -9666541.12846  23003422.312    23003430.8074
  22220198.692   -17417600.973 8 -13533122.23546  22220198.067    22220206.8804
  20413231.733   -24318505.632 9 -18663217.95948  20413230.924    20413237.0184
  23693206.658    -5205349.518 8  -4040209.15245  23693206.075    23693214.7484
  21942354.585   -19360049.422 8 -15068257.23047  21942353.535    21942362.2414
  20592386.568   -21985319.529 9 -17089129.75647  20592386.088    20592392.9244
  22713336.902   -11323379.181 8  -8795275.37346  22713335.905    22713344.4664
 01  4 23  1 59 30.0000000  0  9 21 17 23 03 14 09 15 29 31
  21062031.299   -25246475.821 9 -19660641.15447  21062030.450    21062037.8334
  23422039.089   -11461185.999 8  -8698754.27245  23422038.230    23422049.5274
  23013623.982   -12373801.784 8  -9624771.15646  23013623.000    23013631.5124
  22230547.058   -17363220.353 8 -13490747.77146  22230546.403    22230555.1994
  20407264.508   -24349863.438 9 -18687652.57648  20407263.715    20407269.7984
  23701455.931    -5161998.103 8  -4006428.81245  23701455.424    23701464.4284
  21957182.628   -19282127.858 8 -15007539.19147  21957181.539    21957190.2634
  20585238.479   -22022882.734 9 -17118399.73447  20585237.996    20585244.8384
  22712546.421   -11327532.977 8  -8798512.08046  22712545.442    22712554.0574
 01  4 23  2  0  0.0000000  0  9 21 17 23 03 14 09 15 29 31
  21061503.496   -25249249.346 9 -19662802.33047  21061502.635    21061510.0354
  23440229.068   -11365597.955 8  -8624270.20645  23440228.227    23440239.4934
  23023834.281   -12320146.462 8  -9582961.84146  23023833.312    23023841.7554
  22240974.097   -17308426.258 8 -13448051.12146  22240973.404    22240982.2424
  20401393.941   -24380713.174 9 -18711691.29148  20401393.159    20401399.2114
  23709809.538    -5118099.028 8  -3972221.72145  23709809.001    23709818.1154
  21972075.886   -19203863.182 8 -14946553.78847  21972074.829    21972083.5894
  20578177.059   -22059990.595 9 -17147314.90747  20578176.575    20578183.4064
  22711863.156   -11331123.439 8  -8801309.83646  22711862.185    22711870.7774
 01  4 23  2  0 30.0000000  0  9 21 17 23 03 14 09 15 29 31
  21061000.776   -25251891.027 9 -19664860.77347  21060999.913    21061007.3244
  23458468.121   -11269751.830 8  -8549585.03445  23458467.241    23458478.6094
  23034053.703   -12266443.659 8  -9541115.51646  23034052.677    23034061.1274
  22251478.658   -17253224.425 8 -13405036.74146  22251477.992    22251486.8654
  20395619.465   -24411058.188 9 -18735336.71448  20395618.677    20395624.7074
  23718266.575    -5073657.048 8  -3937591.58845  23718266.076    23718275.1614
  21987033.706   -19125259.445 8 -14885304.18847  21987032.654    21987041.4724
  20571201.687   -22096646.188 9 -17175877.66647  20571201.214    20571208.0374
  22711286.360   -11334154.271 8  -8803671.51446  22711285.444    22711294.0464
 01  4 23  2  1  0.0000000  0  9 21 17 23 03 14 09 15 29 31
  21060524.107   -25254395.891 9 -19666812.60647  21060523.243    21060530.6504
  23476756.750   -11173644.863 8  -8474696.62445  23476755.930    23476767.3924
  23044282.915   -12212688.862 8  -9499228.68546  23044281.906    23044290.4184
  22262061.112   -17197613.229 8 -13361703.38246  22262060.446    22262069.4094
  20389941.844   -24440894.204 9 -18758585.52548  20389941.058    20389947.0614
  23726827.659    -5028668.881 8  -3902535.87045  23726827.139    23726835.9794
  22002056.646   -19046313.305 8 -14823787.78147  22002055.624    22002064.4614
  20564313.206   -22132845.196 9 -17204084.63547  20564312.733    20564319.5394
  22710816.892   -11336621.652 8  -8805594.14046  22710815.889    22710824.4824
 01  4 23  2  1 30.0000000  0  9 21 17 23 03 14 09 15 29 31
  21060072.477   -25256769.108 9 -19668661.85647  21060071.616    21060079.0374
  23495093.836   -11077283.434 8  -8399609.91445  23495093.015    23495104.4334
  23054521.018   -12158887.211 8  -9457305.34946  23054519.998    23054528.5794
  22272720.028   -17141600.356 8 -13318057.02946  22272719.338    22272728.3084
  20384360.122   -24470226.242 9 -18781441.63348  20384359.322    20384365.2954
  23735491.498    -4983140.877 8  -3867059.48445  23735490.882    23735499.6054
  22017143.612   -18967031.060 8 -14762009.46747  22017142.559    22017151.4034
  20557510.663   -22168592.524 9 -17231939.65547  20557510.192    20557516.9794
  22710453.525   -11338531.236 8  -8807082.10946  22710452.541    22710461.0484
 01  4 23  2  2  0.0000000  0  9 21 17 23 03 14 09 15 29 31
  21059646.620   -25259006.889 9 -19670405.57147  21059645.761    21059653.1634
  23513479.691   -10980665.203 8  -8324323.11645  23513478.877    23513490.4224
  23064768.721   -12105034.649 8  -9415342.34046  23064767.744    23064776.3674
  22283455.714   -17085184.337 8 -13274096.53846  22283454.975    22283463.9664
  20378875.044   -24499050.466 9 -18803902.03648  20378874.249    20378880.2014
  23744258.296    -4937070.372 8  -3831160.37445  23744257.743    23744266.4734
  22032295.077   -18887409.807 8 -14699966.99047  22032294.070    22032302.9374
  20550794.775   -22203884.429 9 -17259439.80348  20550794.321    20550801.0914
  22710196.876   -11339879.739 8  -8808132.88546  22710195.918    22710204.4344
 01  4 23  2  2 30.0000000  0  9 21 17 23 03 14 09 15 29 31
  21059246.525   -25261109.348 9 -19672043.83447  21059245.678    21059253.0574
  23531914.077   -10883792.005 7  -8248837.64445  23531913.285    23531924.9094
  23075026.146   -12051131.513 8  -9373339.92346  23075025.152    23075033.8494
  22294267.432   -17028368.188 8 -13229824.25046  22294266.780    22294275.7534
  20373486.432   -24527367.685 9 -18825967.36548  20373485.639    20373491.5724
  23753128.108    -4890459.308 8  -3794840.02445  23753127.562    23753136.2174
  22047510.821   -18807451.043 8 -14637661.52247  22047509.757    22047518.6744
  20544165.519   -22238721.433 9 -17286585.47048  20544165.051    20544171.8094
  22710046.923   -11340667.936 8  -8808747.05546  22710045.972    22710054.4294
 01  4 23  2  3  0.0000000  0  9 21 17 23 03 14 09 15 29 31
  21058871.771   -25263078.537 9 -19673578.26247  21058870.937    21058878.3034
  23550396.344   -10786666.907 7  -8173155.90045  23550395.660    23550407.3874
  23085292.903   -11997179.344 8  -9331299.28646  23085291.945    23085300.6344
  22305154.619   -16971155.955 8 -13185243.33346  22305153.943    22305162.8914
  20368194.010   -24555179.494 9 -18847638.86948  20368193.213    20368199.1284
  23762100.250    -4843310.491 8  -3758100.65345  23762099.700    23762108.4364
  22062790.157   -18727157.815 8 -14575095.42447  22062789.109    22062798.0024
  20537622.483   -22273104.953 9 -17313377.78448  20537622.020    20537628.7844
  22710003.169   -11340897.908 8  -8808926.24246  22710002.233    22710010.6484
 01  4 23  2  3 30.0000000  0  9 21 17 23 03 14 09 15 29 31
  21058522.765   -25264912.460 9 -19675007.29247  21058521.959    21058529.3244
  23568926.644   -10689289.832 7  -8097277.78945  23568925.861    23568937.9004
  23095569.349   -11943176.438 8  -9289219.12746  23095568.410    23095577.0334
  22316116.894   -16913549.058 8 -13140354.88346  22316116.224    22316125.1924
  20362998.049   -24582484.505 9 -18868915.47548  20362997.230    20363003.1424
  23771174.759    -4795623.711 8  -3720942.11545  23771174.209    23771182.9914
  22078133.185   -18646529.648 8 -14512268.33747  22078132.167    22078141.1084
  20531166.029   -22307033.706 9 -17339815.72748  20531165.580    20531172.3264
  22710065.684   -11340568.900 8  -8808669.86446  22710064.779    22710073.2114
 01  4 23  2  4  0.0000000  0 10 21 17 25 23 03 14 09 15 29 31
  21058198.534   -25266616.625 9 -19676335.20247  21058197.673    21058205.0404
  23587503.612   -10591667.462 7  -8021208.54645  23587502.881    23587514.9644
  24611298.853    -5675056.091 7  -3977604.77445  24611298.374    24611314.6754
  23105854.443   -11889127.999 8  -9247103.46346  23105853.560    23105862.1124
  22327152.752   -16855555.312 8 -13095164.99146  22327152.124    22327161.1294
  20357897.484   -24609287.942 9 -18889801.22848  20357896.691    20357902.5914
  23780350.249    -4747405.789 8  -3683369.67545  23780349.696    23780358.5374
  22093538.840   -18565572.790 8 -14449185.11447  22093537.782    22093546.7564
  20524795.141   -22340512.861 9 -17365903.33548  20524794.670    20524801.4084
  22710233.393   -11339687.012 8  -8807982.66946  22710232.533    22710241.0304
 01  4 23  2  4 30.0000000  0 10 21 17 25 23 03 14 09 15 29 31
  21057900.203   -25268184.566 9 -19677556.96647  21057899.340    21057906.6764
  23606128.117   -10493795.657 7  -7944944.93045  23606127.378    23606139.4814
  24592617.682    -5773224.516 7  -4054099.12345  24592617.177    24592633.2794
  23116149.363   -11835028.189 8  -9204947.79246  23116148.433    23116156.9184
  22338262.864   -16797171.560 8 -13049671.20146  22338262.213    22338271.2064
  20352893.438   -24635584.354 9 -18910291.90648  20352892.646    20352898.5074
  23789627.765    -4698652.323 8  -3645379.94645  23789627.224    23789635.9734
  22109007.866   -18484282.806 8 -14385842.32746  22109006.793    22109015.7554
  20518510.847   -22373536.909 9 -17391636.31948  20518510.361    20518517.0904
  22710507.352   -11338247.287 8  -8806860.80146  22710506.493    22710514.9524
 01  4 23  2  5  0.0000000  0 10 21 17 25 23 03 14 09 15 29 31
  21057627.965   -25269615.269 9 -19678671.78647  21057627.098    21057634.4074
  23624799.972   -10395674.450 7  -7868486.97145  23624799.202    23624811.5654
  24573924.409    -5871456.782 7  -4130643.22045  24573923.828    24573939.8084
  23126454.277   -11780875.705 8  -9162751.04646  23126453.330    23126461.8034
  22349446.864   -16738399.332 8 -13003874.70846  22349446.240    22349455.2024
  20347986.000   -24661372.953 9 -18930386.88348  20347985.203    20347991.0484
  23799007.060    -4649363.501 8  -3606973.03645  23799006.441    23799015.2084
  22124540.237   -18402659.760 8 -14322240.00146  22124539.170    22124548.1614
  20512313.408   -22406104.552 9 -17417013.66348  20512312.921    20512319.6284
  22710887.593   -11336249.106 8  -8805303.77346  22710886.720    22710895.2594
 01  4 23  2  5 30.0000000  0 10 21 17 25 23 03 14 09 15 29 31
  21057381.292   -25270911.469 9 -19679681.79947  21057380.419    21057387.7284
  23643518.505   -10297308.274 7  -7791838.14345  23643517.803    23643530.2004
  24555218.937    -5969752.755 7  -4207236.97145  24555218.307    24555234.0214
  23136768.648   -11726672.943 8  -9120515.14546  23136767.759    23136776.2524
  22360703.847   -16679243.919 8 -12957779.62546  22360703.197    22360712.1474
  20343174.695   -24686656.394 9 -18950088.23248  20343173.904    20343179.7284
  23808487.464    -4599543.371 8  -3568152.13045  23808486.857    23808495.5744
  22140135.327   -18320707.421 8 -14258381.08846  22140134.234    22140143.2684
  20506202.242   -22438218.587 9 -17442037.54548  20506201.772    20506208.4454
  22711373.509   -11333695.648 8  -8803314.06446  22711372.624    22711381.1394
 01  4 23  2  6  0.0000000  0 10 21 17 25 23 03 14 09 15 29 31
  21057160.572   -25272071.197 9 -19680585.47547  21057159.692    21057167.0224
  23662283.775   -10198696.959 7  -7714998.28145  23662283.012    23662295.3834
  24536502.084    -6068108.615 7  -4283877.39545  24536501.364    24536517.0434
  23147092.969   -11672418.518 8  -9078238.99946  23147092.012    23147100.5454
  22372033.539   -16619706.522 8 -12911386.89646  22372032.874    22372041.8004
  20338459.773   -24711433.301 9 -18969394.88648  20338458.988    20338464.7954
  23818069.156    -4549192.100 8  -3528917.33945  23818068.464    23818077.2034
  22155793.048   -18238425.558 8 -14194265.40746  22155791.974    22155801.0054
  20500177.696   -22469877.824 9 -17466707.04348  20500177.203    20500183.8594
  22711965.346   -11330586.167 8  -8800891.10146  22711964.394    22711972.8654
 01  4 23  2  6 30.0000000  0 10 21 17 25 23 03 14 09 15 29 31
  21056965.776   -25273094.663 9 -19681382.96647  21056964.907    21056972.2384
  23681095.211   -10099842.864 7  -7637969.25445  23681094.449    23681106.8564
  24517773.992    -6166522.481 7  -4360563.03845  24517773.469    24517789.0684
  23157426.995   -11618112.698 8  -9035922.77346  23157426.107    23157434.5664
  22383435.116   -16559790.746 8 -12864699.31546  22383434.471    22383443.3944
  20333841.033   -24735704.734 9 -18988307.65548  20333840.265    20333846.0854
  23827751.244    -4498311.863 8  -3489270.37745  23827750.601    23827759.4534
  22171513.174   -18155815.982 8 -14129894.35346  22171512.092    22171521.1514
  20494239.543   -22501082.977 9 -17491022.70348  20494239.024    20494245.6664
  22712662.710   -11326921.917 8  -8798035.84146  22712661.731    22712670.1294
 01  4 23  2  7  0.0000000  0 10 21 17 25 23 03 14 09 15 29 31
  21056796.860   -25273982.209 9 -19682074.55647  21056795.994    21056803.3174
  23699952.679   -10000747.245 7  -7560752.01645  23699951.884    23699964.2324
  24499035.427    -6264992.243 7  -4437292.23245  24499035.001    24499050.2964
  23167770.827   -11563755.421 8  -8993566.49846  23167769.937    23167778.4484
  22394908.276   -16499499.081 8 -12817718.84346  22394907.628    22394916.5544
  20329318.414   -24759471.053 9 -19006826.84048  20329317.646    20329323.4724
  23837533.786    -4446904.128 8  -3449212.39745  23837533.099    23837542.0034
  22187295.425   -18072879.861 8 -14065268.86346  22187294.385    22187303.3764
  20488387.754   -22531834.102 9 -17514984.58948  20488387.245    20488393.8644
  22713465.324   -11322704.070 8  -8794749.21946  22713464.335    22713472.7424
 01  4 23  2  7 30.0000000  0 10 21 17 25 23 03 14 09 15 29 31
  21056653.994   -25274732.909 9 -19682659.50647  21056653.132    21056660.4734
  23718855.792    -9901411.078 7  -7483347.33345  23718855.039    23718867.2284
  24480286.751    -6363515.018 7  -4514062.74745  24480286.252    24480301.6714
  23178124.665   -11509345.856 8  -8951169.44946  23178123.779    23178132.2574
  22406452.555   -16438833.607 8 -12770447.08846  22406451.916    22406460.8424
  20324891.997   -24782731.909 9 -19024952.15248  20324891.221    20324897.0594
  23847416.462    -4394969.647 8  -3408743.95845  23847415.738    23847424.6934
  22203139.792   -17989617.589 8 -14000389.22046  22203138.716    22203147.6904
  20482622.493   -22562130.650 9 -17538592.23848  20482621.986    20482628.6154
  22714373.265   -11317932.788 8  -8791031.34346  22714372.307    22714380.6994
 01  4 23  2  8  0.0000000  0 10 21 17 25 23 03 14 09 15 29 31
  21056536.898   -25275348.128 9 -19683138.90047  21056536.033    21056543.3664
  23737804.055    -9801837.386 8  -7405757.55845  23737803.430    23737815.6214
  24461528.267    -6462089.368 8  -4590873.46045  24461527.807    24461543.2004
  23188488.126   -11454885.524 8  -8908732.85546  23188487.184    23188495.7234
  22418067.235   -16377798.402 8 -12722887.22446  22418066.585    22418075.5234
  20320561.437   -24805489.069 9 -19042684.97248  20320560.659    20320566.5084
  23857398.829    -4342511.719 8  -3367867.63245  23857398.137    23857407.0584
  22219045.613   -17906032.115 8 -13935257.73446  22219044.575    22219053.5444
  20476943.320   -22591974.555 9 -17561847.18848  20476942.837    20476949.4674
  22715386.048   -11312610.441 8  -8786884.07746  22715385.106    22715393.4874
 01  4 23  2  8 30.0000000  0 10 21 17 25 23 03 14 09 15 29 31
  21056445.677   -25275827.656 9 -19683512.55447  21056444.817    21056452.1454
  23756797.353    -9702028.121 8  -7327984.22745  23756796.632    23756808.7744
  24442760.533    -6560713.342 8  -4667722.85645  24442760.040    24442775.2234
  23198861.244   -11400374.432 8  -8866256.70046  23198860.363    23198868.8744
  22429751.620   -16316396.584 8 -12675041.69346  22429750.977    22429759.9424
  20316326.596   -24827742.988 9 -19060025.65548  20316325.830    20316331.6804
  23867480.559    -4289532.336 8  -3326584.94045  23867479.828    23867488.5944
  22235012.644   -17822125.187 8 -13869875.76546  22235011.592    22235020.5594
  20471350.274   -22621366.207 9 -17584749.73148  20471349.809    20471356.4174
  22716503.533   -11306738.288 8  -8782308.38546  22716502.553    22716510.9664
 01  4 23  2  9  0.0000000  0 10 21 17 25 23 03 14 09 15 29 31
  21056381.002   -25276167.464 9 -19683777.32947  21056380.141    21056387.4564
  23775835.985    -9601980.770 7  -7250025.33845  23775835.162    23775847.1094
  24423984.501    -6659380.601 8  -4744605.99645  24423983.918    24423998.9934
  23209244.845   -11345808.545 8  -8823737.87046  23209243.895    23209252.4554
  22441506.004   -16254626.841 8 -12626909.46546  22441505.429    22441514.3614
  20312188.198   -24849490.315 9 -19076971.59348  20312187.425    20312193.2664
  23877661.865    -4236028.953 8  -3284893.96945  23877661.159    23877669.9064
  22251041.393   -17737893.910 8 -13804241.06346  22251040.325    22251049.3074
  20465843.935   -22650302.080 9 -17607297.12648  20465843.441    20465850.0244
  22717726.152   -11300313.260 8  -8777301.89546  22717725.215    22717733.6514
 01  4 23  2  9 30.0000000  0 10 21 17 25 23 03 14 09 15 29 31
  21056341.778   -25276373.478 9 -19683937.84947  21056340.919    21056348.2174
  23794918.270    -9501702.775 7  -7171886.74045  23794917.491    23794929.4634
  24405199.596    -6758094.213 8  -4821525.27045  24405199.003    24405213.7724
  23219637.748   -11291193.366 8  -8781180.62246  23219636.860    23219645.4604
  22453328.759   -16192497.994 8 -12578497.42146  22453328.144    22453337.0994
  20308145.010   -24870737.296 9 -19093527.65048  20308144.244    20308150.0784
  23887941.356    -4182008.970 8  -3242800.45945  23887940.712    23887949.6314
  22267130.519   -17653345.354 8 -13738359.12946  22267129.427    22267138.4304
  20460423.238   -22678787.975 9 -17629493.88848  20460422.764    20460429.3034
  22719052.829   -11293341.813 8  -8771869.62346  22719051.887    22719060.3334
 01  4 23  2 10  0.0000000  0 10 21 17 25 23 03 14 09 15 29 31
  21056329.064   -25276440.412 9 -19683989.99947  21056328.207    21056335.4904
  23814045.151    -9401190.327 7  -7093565.48845  23814044.370    23814056.4314
  24386407.233    -6856846.466 8  -4898474.61845  24386406.693    24386421.3884
  23230041.044   -11236523.490 8  -8738580.75246  23230040.188    23230048.8434
  22465220.329   -16130007.536 8 -12529803.59846  22465219.722    22465228.6924
  20304198.023   -24891478.779 9 -19109689.81248  20304197.247    20304203.0784
  23898320.009    -4127468.635 8  -3200301.48545  23898319.338    23898328.4154
  22283280.737   -17568475.600 8 -13672226.91446  22283279.646    22283288.6614
  20455089.106   -22706818.935 9 -17651336.16348  20455088.607    20455095.1334
  22720484.271   -11285819.683 8  -8766008.23246  22720483.297    22720491.7214
 01  4 23  2 10 30.0000000  0 10 21 17 25 23 03 14 09 15 29 31
  21056342.433   -25276370.277 9 -19683935.33747  21056341.578    21056348.8464
  23833215.972    -9300447.803 7  -7015064.89145  23833215.118    23833227.1114
  24367607.645    -6955637.878 8  -4975454.50945  24367606.968    24367621.5244
  23240454.396   -11181801.368 8  -8695940.18246  23240453.519    23240462.1824
  22477179.731   -16067160.703 8 -12480832.08146  22477179.143    22477188.0904
  20300346.621   -24911717.979 9 -19125460.59548  20300345.843    20300351.6394
  23908796.873    -4072412.459 8  -3157400.54545  23908796.265    23908805.1534
  22299491.348   -17483288.516 8 -13605847.43346  22299490.254    22299499.2404
  20449840.955   -22734398.024 9 -17672826.32148  20449840.460    20449846.9754
  22722019.773   -11277750.376 8  -8759720.48046  22722018.804    22722027.2864
 01  4 23  2 11  0.0000000  0 10 21 17 25 23 03 14 09 15 29 31
  21056382.228   -25276161.072 9 -19683772.31847  21056381.361    21056388.6574
  23852430.546    -9199475.097 7  -6936384.95145  23852429.716    23852441.5884
  24348801.389    -7054464.025 8  -5052461.47545  24348800.686    24348815.0424
  23250877.997   -11127025.210 8  -8653257.50046  23250877.063    23250885.6744
  22489206.723   -16003958.693 8 -12431583.80646  22489206.106    22489215.0954
  20296591.081   -24931453.546 9 -19140838.93848  20296590.293    20296596.0514
  23919371.893    -4016840.484 8  -3114097.68945  23919371.234    23919380.1304
  22315762.381   -17397783.770 8 -13539220.42446  22315761.270    22315770.3174
  20444679.078   -22761523.765 9 -17693963.23648  20444678.594    20444685.0874
  22723659.501   -11269133.366 8  -8753005.93746  22723658.528    22723667.0434
 01  4 23  2 11 30.0000000  0 10 21 17 25 23 03 14 09 15 29 31
  21056448.423   -25275813.104 9 -19683501.15547  21056447.545    21056454.8714
  23871688.457    -9098274.045 7  -6857527.12945  23871687.555    23871699.7064
  24329988.929    -7153322.749 8  -5129493.81945  24329988.260    24330002.4414
  23261311.793   -11072195.065 8  -8610532.76046  23261310.879    23261319.5744
  22501300.666   -15940404.698 8 -12382061.24846  22501300.054    22501309.0844
  20292931.198   -24950686.390 9 -19155825.54848  20292930.387    20292936.1444
  23930044.624    -3960754.871 8  -3070394.57545  23930043.956    23930052.7674
  22332093.541   -17311963.034 8 -13472347.18646  22332092.454    22332101.5404
  20439603.344   -22788196.870 9 -17714747.42748  20439602.837    20439609.3464
  22725403.234   -11259970.113 8  -8745865.74846  22725402.281    22725410.7474
 01  4 23  2 12  0.0000000  0 10 21 17 25 23 03 14 09 15 29 31
  21056540.695   -25275328.080 9 -19683123.20147  21056539.841    21056547.1774
  23890989.410    -8996847.933 7  -6778493.90845  23890988.424    23891000.6594
  24311170.263    -7252213.587 8  -5206551.19845  24311169.658    24311183.6964
  23271755.712   -11017312.240 8  -8567766.96946  23271754.769    23271763.4644
  22513460.774   -15876503.036 8 -12332267.79146  22513460.146    22513469.1884
  20289366.561   -24969418.470 9 -19170421.95348  20289365.754    20289371.4984
  23940814.348    -3904158.716 8  -3026293.63345  23940813.829    23940822.6574
  22348484.348   -17225829.073 8 -13405229.87546  22348483.257    22348492.3274
  20434613.365   -22814419.105 9 -17735180.30548  20434612.862    20434619.3674
  22727250.491   -11250263.054 8  -8738301.81746  22727249.493    22727257.9054
 01  4 23  2 12 30.0000000  0 10 21 17 25 23 03 14 09 15 29 31
  21056659.157   -25274705.549 9 -19682638.10247  21056658.289    21056665.6384
  23910332.790    -8895198.505 7  -6699286.69845  23910331.661    23910343.9574
  24292345.977    -7351133.914 7  -5283631.52445  24292345.330    24292359.3164
  23282209.563   -10962377.136 8  -8524960.44446  23282208.661    23282217.2944
  22525686.472   -15812256.915 8 -12282205.92546  22525685.842    22525694.8464
  20285897.077   -24987650.805 9 -19184628.94448  20285896.266    20285901.9784
  23951680.956    -3847054.269 8  -2981796.65845  23951680.467    23951689.2994
  22364934.355   -17139383.797 8 -13337869.98446  22364933.239    22364942.3534
  20429709.084   -22840191.227 9 -17755262.44848  20429708.577    20429715.0874
  22729200.806   -11240013.698 8  -8730315.31346  22729199.823    22729208.2604
 01  4 23  2 13  0.0000000  0 10 21 17 25 23 03 14 09 15 29 31
  21056804.354   -25273942.490 9 -19682043.49747  21056803.488    21056810.8224
  23929718.904    -8793324.135 7  -6619904.21345  23929717.920    23929730.0424
  24273517.274    -7450077.813 7  -5360730.26845  24273516.595    24273530.5004
  23292674.087   -10907385.986 8  -8482110.24146  23292673.158    23292681.8504
  22537977.798   -15747665.992 8 -12231875.38046  22537977.133    22537986.1214
  20282523.285   -25005380.054 9 -19198443.91148  20282522.492    20282528.1684
  23962644.553    -3789439.780 8  -2936902.22345  23962644.027    23962652.9014
  22381443.985   -17052625.102 8 -13270265.87146  22381442.939    22381452.0544
  20424891.047   -22865510.008 9 -17774991.33048  20424890.562    20424897.0364
  22731254.868   -11229219.562 8  -8721904.29046  22731253.920    22731262.3614
 01  4 23  2 13 30.0000000  0 10 21 17 25 23 03 14 09 15 29 31
  21056975.573   -25273042.646 9 -19681342.30147  21056974.700    21056982.0254
  23949146.679    -8691230.706 7  -6540351.00845  23949145.711    23949158.0144
  24254683.478    -7549047.073 7  -5437848.74345  24254682.934    24254696.9324
  23303148.472   -10852342.789 8  -8439219.50046  23303147.567    23303156.2704
  22550333.424   -15682736.808 8 -12181281.26346  22550332.769    22550341.7484
  20279244.289   -25022611.288 9 -19211870.82348  20279243.472    20279249.1564
  23973704.212    -3731321.151 8  -2891614.94545  23973703.719    23973712.5814
  22398012.218   -16965558.512 8 -13202421.84146  22398011.179    22398020.3464
  20420158.381   -22890380.275 9 -17794370.73148  20420157.889    20420164.3444
  22733411.602   -11217885.979 8  -8713072.93046  22733410.597    22733419.0264
 01  4 23  2 14  0.0000000  0 10 21 17 25 23 03 14 09 15 29 31
  21057173.957   -25272000.201 9 -19680529.99247  21057173.082    21057180.3834
  23968616.884    -8588914.504 7  -6460624.24945  23968616.141    23968628.4284
  24235846.415    -7648033.998 7  -5514980.98045  24235845.884    24235859.8724
  23313633.859   -10797242.136 8  -8396283.96446  23313632.908    23313641.6404
  22562753.861   -15617467.257 8 -12130421.90946  22562753.161    22562762.2134
  20276060.935   -25039339.865 9 -19224906.05648  20276060.136    20276065.7824
  23984860.599    -3672695.041 8  -2845932.22445  23984860.028    23984868.8734
  22414639.804   -16878180.181 8 -13134334.89446  22414638.738    22414647.9494
  20415511.982   -22914797.117 9 -17813396.81548  20415511.486    20415517.9334
  22735671.662   -11206009.014 8  -8703818.14846  22735670.693    22735679.2074
 01  4 23  2 14 30.0000000  0 10 21 17 25 23 03 14 09 15 29 31
  21057398.538   -25270819.967 9 -19679610.31547  21057397.677    21057404.9404
  23988128.340    -8486382.045 8  -6380728.95745  23988127.454    23988139.8134
  24217005.496    -7747041.380 7  -5592129.17145  24217005.057    24217018.9394
  23324129.266   -10742088.486 8  -8353307.13746  23324128.382    23324136.9844
  22575237.490   -15551865.047 8 -12079303.34846  22575236.859    22575245.9514
  20272972.264   -25055570.836 9 -19237553.54248  20272971.464    20272977.1014
  23996111.952    -3613568.059 7  -2799859.19545  23996111.288    23996120.1494
  22431325.551   -16790496.074 8 -13066009.66546  22431324.517    22431333.7684
  20410950.851   -22938765.729 9 -17832073.62048  20410950.373    20410956.8084
  22738034.114   -11193594.536 8  -8694144.53046  22738033.087    22738041.5834
 01  4 23  2 15  0.0000000  0 10 21 17 25 23 03 14 09 15 29 31
  21057649.996   -25269498.672 9 -19678580.72847  21057649.123    21057656.3744
  24007681.153    -8383631.889 8  -6300663.98545  24007680.319    24007692.6044
  24198162.015    -7846063.204 7  -5669288.61945  24198161.482    24198175.3264
  23334635.433   -10686878.654 8  -8310286.52346  23334634.518    23334643.0564
  22587784.604   -15485929.677 8 -12027925.18246  22587783.953    22587793.1064
  20269978.717   -25071302.018 9 -19249811.58048  20269977.906    20269983.5344
  24007458.901    -3553938.866 8  -2753394.85745  24007458.313    24007467.0664
  22448069.936   -16702504.621 8 -12997444.95446  22448068.845    22448078.0224
  20406475.577   -22962283.469 9 -17850399.10048  20406475.081    20406481.5174
  22740499.228   -11180640.683 8  -8684050.62146  22740498.121    22740506.6034
 01  4 23  2 15 30.0000000  0 10 21 17 25 23 03 14 09 15 29 31
  21057927.976   -25268038.011 9 -19677442.53847  21057927.100    21057934.3274
  24027274.675    -8280667.926 7  -6220432.46345  24027273.804    24027286.1444
  24179315.883    -7945098.753 8  -5746458.78745  24179315.389    24179329.1094
  23345151.835   -10631614.785 8  -8267223.82246  23345150.958    23345159.6064
  22600394.113   -15419666.491 8 -11976291.57546  22600393.453    22600402.5814
  20267079.730   -25086536.245 9 -19261682.38548  20267078.913    20267084.5264
  24018900.766    -3493811.559 7  -2706542.36445  24018900.131    24018908.7724
  22464872.031   -16614209.545 8 -12928643.65346  22464870.933    22464880.0404
  20402085.561   -22985353.056 9 -17868375.36548  20402085.061    20402091.4924
  22743066.258   -11167150.917 8  -8673539.11446  22743065.163    22743073.5944
 01  4 23  2 16  0.0000000  0 10 21 17 25 23 03 14 09 15 29 31
  21058233.081   -25266434.709 9 -19676193.20147  21058232.179    21058239.3874
  24046909.040    -8177489.290 7  -6140033.65645  24046908.112    24046920.4264
  24160467.955    -8044143.885 8  -5823636.40845  24160467.477    24160481.0434
  23355679.164   -10576293.902 8  -8224116.69346  23355678.250    23355686.8024
  22613065.929   -15353075.926 8 -11924402.86846  22613065.291    22613074.3674
  20264275.707   -25101271.383 9 -19273164.28648  20264274.894    20264280.5104
  24030437.516    -3433185.729 8  -2659301.41645  24030436.845    24030445.3924
  22481731.996   -16525609.828 8 -12859604.96946  22481730.932    22481740.1054
  20397781.271   -23007972.231 9 -17886000.67748  20397780.750    20397787.1774
  22745735.461   -11153123.883 8  -8662608.94846  22745734.366    22745742.8034
 01  4 23  2 16 30.0000000  0 10 21 17 25 23 03 14 09 15 29 31
  21058564.907   -25264690.786 9 -19674834.28747  21058564.010    21058571.2384
  24066583.449    -8074099.106 7  -6059470.00545  24066582.691    24066594.9934
  24141618.569    -8143196.863 8  -5900820.14545  24141618.146    24141631.4764
  23366217.055   -10520917.239 8  -8180966.07946  23366216.085    23366224.5644
  22625799.319   -15286162.070 8 -11872262.24246  22625798.615    22625807.6824
  20261566.207   -25115509.727 9 -19284259.07348  20261565.400    20261571.0304
  24042068.391    -3372064.948 8  -2611674.77645  24042067.793    24042076.2984
  22498649.449   -16436708.217 8 -12790331.05246  22498648.390    22498657.5234
  20393562.284   -23030143.080 9 -17903276.63948  20393561.771    20393568.1784
  22748506.352   -11138562.540 8  -8651262.45246  22748505.297    22748513.7674
 01  4 23  2 17  0.0000000  0 10 21 17 25 23 03 14 09 15 29 31
  21058923.617   -25262805.773 9 -19673365.44047  21058922.711    21058929.9414
  24086297.961    -7970498.838 7  -5978742.63745  24086297.274    24086309.5494
  24122768.208    -8242255.060 8  -5978007.97545  24122767.746    24122780.9854
  23376765.594   -10465484.393 8  -8137771.69046  23376764.662    23376773.1824
  22638593.651   -15218927.728 8 -11819871.90046  22638592.898    22638601.9814
  20258951.206   -25129251.484 9 -19294966.91448  20258950.401    20258956.0224
  24053793.139    -3310450.590 8  -2563663.52145  24053792.595    24053801.1834
  22515624.089   -16347505.910 8 -12720822.82746  22515623.069    22515632.2534
  20389428.547   -23051865.981 9 -17920203.54748  20389428.023    20389434.4244
  22751378.729   -11123467.851 8  -8639500.36746  22751377.749    22751386.1874
 01  4 23  2 17 30.0000000  0 10 21 17 25 23 03 14 09 15 29 31
  21059309.295   -25260779.023 9 -19671786.13547  21059308.394    21059315.6254
  24106052.329    -7866690.258 7  -5897852.96745  24106051.497    24106063.7014
  24103917.260    -8341316.129 8  -6055198.04445  24103916.766    24103929.8194
  23387324.890   -10409995.163 8  -8094533.35746  23387323.953    23387332.5404
  22651448.365   -15151375.674 8 -11767233.97346  22651447.659    22651456.7584
  20256430.534   -25142497.532 9 -19305288.48248  20256429.755    20256435.3764
  24065611.622    -3248344.544 8  -2515269.15745  24065611.074    24065619.4624
  22532655.656   -16258004.387 8 -12651081.44346  22532654.688    22532663.8724
  20385379.998   -23073140.991 9 -17936781.43848  20385379.476    20385385.8664
  22754352.400   -11107841.074 8  -8627323.64946  22754351.420    22754359.8434
 01  4 23  2 18  0.0000000  0 10 21 17 25 23 03 14 09 15 29 31
  21059722.210   -25258609.076 9 -19670095.25747  21059721.318    21059728.5584
  24125846.107    -7762673.479 7  -5816801.07745  24125845.304    24125857.4684
  24085066.601    -8440375.854 8  -6132387.06945  24085066.027    24085078.9864
  23397895.109   -10354447.795 8  -8051249.74246  23397894.195    23397902.8234
  22664363.244   -15083507.478 8 -11714349.71246  22664362.518    22664371.6544
  20254004.381   -25155246.918 9 -19315223.04548  20254003.595    20254009.1934
  24077523.484    -3185747.454 8  -2466492.17245  24077522.937    24077531.3924
  22549744.237   -16168203.664 8 -12581106.90746  22549743.217    22549752.4364
  20381416.778   -23093967.657 9 -17953009.97748  20381416.249    20381422.6444
  22757427.339   -11091681.909 8  -8614732.10746  22757426.372    22757434.8404
 01  4 23  2 18 30.0000000  0 10 21 17 25 23 03 14 09 15 29 31
  21060162.174   -25256296.929 9 -19668293.57647  21060161.284    21060168.5094
  24145678.716    -7658452.107 7  -5735589.78145  24145677.855    24145690.4994
  24066216.126    -8539433.689 8  -6209574.61745  24066215.566    24066228.4774
  23408476.230   -10298844.047 8  -8007922.16846  23408475.320    23408483.8614
  22677337.405   -15015327.941 8 -11661222.84146  22677336.706    22677345.8594
  20251672.267   -25167502.242 9 -19324772.62248  20251671.480    20251677.0694
  24089527.934    -3122663.189 7  -2417335.54145  24089527.289    24089535.7234
  22566889.141   -16078107.104 8 -12510901.85046  22566888.078    22566897.2884
  20377538.482   -23114348.143 9 -17968890.85048  20377537.954    20377544.3144
  22760602.913   -11074993.618 8  -8601728.24746  22760602.013    22760610.5054
 01  4 23  2 19  0.0000000  0 10 21 17 25 23 03 14 09 15 29 31
  21060629.102   -25253843.056 9 -19666381.45947  21060628.220    21060635.4654
  24165550.134    -7554028.143 7  -5654220.55645  24165549.358    24165561.8114
  24047366.457    -8638487.539 8  -6286759.05445  24047365.955    24047378.7404
  23419068.105   -10243183.969 8  -7964550.69546  23419067.138    23419075.5834
  22690370.194   -14946840.262 8 -11607855.87146  22690369.504    22690378.6924
  20249433.955   -25179264.584 9 -19333938.06048  20249433.159    20249438.7424
  24101624.697    -3059093.867 8  -2367800.94545  24101624.102    24101632.5494
  22584089.973   -15987716.368 8 -12440467.58046  22584088.891    22584098.0634
  20373744.938   -23134283.424 9 -17984424.81348  20373744.400    20373750.7464
  22763879.050   -11057777.848 8  -8588313.37546  22763878.105    22763886.5954
 01  4 23  2 19 30.0000000  0 10 21 17 25 23 03 14 09 15 29 31
  21061123.459   -25251244.998 9 -19664356.99247  21061122.588    21061129.8484
  24185459.914    -7449401.031 7  -5572693.11545  24185459.085    24185471.9244
  24028518.540    -8737532.315 8  -6363936.45745  24028518.064    24028530.5684
  23429670.967   -10187465.056 8  -7921133.40546  23429670.047    23429678.6524
  22703461.484   -14878045.085 8 -11554249.28846  22703460.761    22703470.0364
  20247289.696   -25190532.420 9 -19342718.16648  20247288.924    20247294.5124
  24113814.014    -2995039.131 8  -2317888.09645  24113813.404    24113821.6214
  22601346.902   -15897030.787 8 -12369803.55246  22601345.784    22601354.9874
  20370036.407   -23153771.678 9 -17999610.42948  20370035.888    20370042.2294
  22767255.644   -11040033.880 8  -8574486.91946  22767254.737    22767263.1754
 01  4 23  2 20  0.0000000  0 10 21 17 25 23 03 14 09 15 29 31
  21061645.202   -25248503.120 9 -19662220.45547  21061644.317    21061651.6004
  24205408.048    -7344573.696 7  -5491009.58845  24205407.036    24205419.9534
  24009672.654    -8836566.701 8  -6441105.74945  24009672.150    24009684.5044
  23440284.918   -10131688.320 8  -7877671.02646  23440284.039    23440292.5814
  22716610.435   -14808946.846 8 -11500406.54546  22716609.779    22716619.0824
  20245239.189   -25201307.771 9 -19351114.51948  20245238.393    20245243.9844
  24126094.891    -2930502.342 8  -2267599.59545  24126094.273    24126102.3624
  22618659.411   -15806052.932 8 -12298911.76946  22618658.339    22618667.6254
  20366412.614   -23172814.771 9 -18014449.15948  20366412.086    20366418.4144
  22770732.236   -11021764.393 8  -8560250.95746  22770731.360    22770739.7574
 01  4 23  2 20 30.0000000  0 10 21 17 25 23 03 14 09 15 29 31
  21062194.602   -25245615.979 9 -19659970.72747  21062193.717    21062200.9934
  24225394.206    -7239546.320 7  -5409170.20745  24225393.309    24225406.1264
  23990829.469    -8935586.741 8  -6518263.87245  23990829.036    23990841.2654
  23450910.289   -10075851.642 8  -7834161.95246  23450909.373    23450917.9574
  22729816.861   -14739546.440 8 -11446328.35746  22729816.235    22729825.5214
  20243282.630   -25211589.635 9 -19359126.34348  20243281.818    20243287.3924
  24138467.470    -2865483.835 8  -2216935.77245  24138466.957    24138474.9984
  22636027.593   -15714782.770 8 -12227792.21646  22636026.535    22636035.8344
  20362873.714   -23191411.508 9 -18028940.09248  20362873.186    20362879.5144
  22774308.933   -11002969.138 8  -8545605.31946  22774308.035    22774316.3744
 01  4 23  2 21  0.0000000  0 10 21 17 25 23 03 14 09 15 29 31
  21062770.950   -25242587.275 9 -19657610.68847  21062770.068    21062777.3444
  24245417.337    -7134324.603 7  -5327179.38545  24245416.557    24245429.5824
  23971988.924    -9034593.863 8  -6595411.92345  23971988.408    23972000.4924
  23461546.348   -10019958.861 8  -7790609.14746  23461545.399    23461554.0364
  22743079.594   -14669850.817 8 -11392020.12646  22743078.924    22743088.2164
  20241418.988   -25221383.065 9 -19366757.56748  20241418.178    20241423.7334
  24150930.609    -2799989.771 8  -2165901.37045  24150930.069    24150938.1624
  22653450.345   -15623225.830 8 -12156449.21146  22653449.293    22653458.5764
  20359418.814   -23209566.918 9 -18043087.14148  20359418.298    20359424.6184
  22777984.639   -10983653.318 8  -8530554.03446  22777983.710    22777992.0514
 01  4 23  2 21 30.0000000  0 10 21 17 25 23 03 14 09 15 29 31
  21063375.580   -25239410.003 9 -19655134.88047  21063374.689    21063381.9364
  24265478.391    -7028903.982 7  -5245033.58845  24265477.639    24265490.4004
  23953152.522    -9133578.529 7  -6672542.49345  23953151.969    23953163.9794
  23472194.345    -9964003.419 8  -7747007.53546  23472193.428    23472202.1864
  22756399.066   -14599856.695 8 -11337479.30846  22756398.393    22756407.7084
  20239649.337   -25230682.569 9 -19374003.91948  20239648.523    20239654.0714
  24163485.006    -2734015.903 8  -2114493.11345  24163484.438    24163492.3984
  22670928.629   -15531377.377 8 -12084879.04746  22670927.563    22670936.8714
  20356049.095   -23227274.810 9 -18056885.47348  20356048.591    20356054.8824
  22781760.332   -10963812.089 8  -8515093.34446  22781759.396    22781767.7464
 01  4 23  2 22  0.0000000  0 10 21 17 25 23 03 14 09 15 29 31
  21064007.184   -25236090.866 9 -19652548.52447  21064006.292    21064013.5434
  24285575.788    -6923292.889 7  -5162739.31845  24285574.917    24285587.3664
  23934319.576    -9232545.378 7  -6749659.16645  23934319.037    23934330.8214
  23482852.973    -9907991.800 8  -7703362.14146  23482852.039    23482860.8684
  22769773.541   -14529573.817 8 -11282713.47746  22769772.784    22769782.1134
  20237972.289   -25239495.454 9 -19380871.07848  20237971.474    20237977.0134
  24176128.995    -2667571.008 7  -2062717.79645  24176128.256    24176136.5424
  22688460.754   -15439245.473 8 -12013088.00946  22688459.716    22688469.0114
  20352763.080   -23244542.830 9 -18070341.04548  20352762.546    20352768.8414
  22785634.423   -10943453.651 8  -8499229.63746  22785633.464    22785641.8814
 01  4 23  2 22 30.0000000  0 10 21 17 25 23 03 14 09 15 29 31
  21064666.771   -25232624.613 9 -19649847.53647  21064665.875    21064673.1284
  24305709.769    -6817489.087 7  -5080294.96145  24305708.758    24305721.3244
  23915490.987    -9331488.296 7  -6826757.20445  23915490.561    23915502.3644
  23493523.123    -9851919.756 8  -7659669.67146  23493522.263    23493531.0654
  22783203.033   -14459001.125 8 -11227721.83046  22783202.318    22783211.7154
  20236388.448   -25247818.512 9 -19387356.55748  20236387.610    20236393.1404
  24188862.769    -2600653.046 7  -2010573.87345  24188862.140    24188870.5914
  22706047.315   -15346827.891 8 -11941074.37446  22706046.271    22706055.5614
  20349561.431   -23261367.542 9 -18083451.18648  20349560.902    20349567.1884
  22789607.423   -10922575.636 8  -8482961.07446  22789606.424    22789614.8094
 01  4 23  2 23  0.0000000  0 10 21 17 25 23 03 14 09 15 29 31
  21065353.643   -25229015.102 9 -19647034.91847  21065352.740    21065360.0014
  24325879.391    -6711497.474 7  -4997704.23545  24325878.444    24325891.1064
  23896666.770    -9430407.157 7  -6903836.48145  23896666.463    23896678.4034
  23504204.381    -9795790.081 8  -7615932.29146  23504203.429    23504212.2444
  22796686.579   -14388144.774 8 -11172509.13946  22796685.873    22796695.2954
  20234897.078   -25255655.684 9 -19393463.41848  20234896.243    20234901.7624
  24201685.868    -2533267.391 8  -1958065.50245  24201685.163    24201693.5754
  22723687.407   -15254129.161 8 -11868841.65546  22723686.289    22723695.5694
  20346443.415   -23277752.670 9 -18096218.78048  20346442.891    20346449.1664
  22793678.302   -10901182.702 8  -8466291.27246  22793677.365    22793685.7244
 01  4 23  2 23 30.0000000  0 10 21 17 25 23 03 14 09 15 29 31
  21066068.965   -25225255.760 9 -19644105.55347  21066068.075    21066075.3494
  24346085.504    -6605314.308 7  -4914964.17645  24346084.396    24346096.9894
  23877848.900    -9529294.131 8  -6980890.92745  23877848.650    23877860.5604
  23514897.495    -9739596.964 8  -7572145.46146  23514896.556    23514905.4544
  22810224.612   -14317002.342 8 -11117073.53146  22810223.900    22810233.2754
  20233499.000   -25263002.591 9 -19399188.25348  20233498.161    20233503.6654
  24214598.565    -2465410.800 8  -1905190.12245  24214597.873    24214606.1244
  22741381.645   -15161145.434 8 -11796386.85646  22741380.550    22741389.8704
  20343410.005   -23293693.392 9 -18108640.09148  20343409.471    20343415.7424
  22797848.003   -10879271.065 8  -8449217.28446  22797847.039    22797855.3564
 01  4 23  2 24  0.0000000  0 11 21 17 25 23 03 14 09 11 15 29 31
  21066811.745   -25221352.464 9 -19641064.00847  21066810.840    21066818.1134
  24366326.700    -6498947.068 7  -4832080.73645  24366325.444    24366338.3254
  23859036.742    -9628152.129 8  -7057922.79845  23859036.323    23859048.1654
  23525601.778    -9683345.854 8  -7528313.44246  23525600.866    23525609.6984
  22823815.463   -14245582.326 8 -11061421.62046  22823814.742    22823824.0634
  20232192.950   -25269865.810 9 -19404536.19448  20232192.115    20232197.6184
  24227599.359    -2397091.067 7  -1851953.89445  24227598.713    24227606.8274
  24713959.289    -5612758.582 7  -4357287.07145  24713958.713    24713968.3774
  22759128.804   -15067883.547 8 -11723715.31646  22759127.684    22759137.0184
  20340459.875   -23309196.354 9 -18120720.29148  20340459.343    20340465.6064
  22802115.058   -10856847.895 8  -8431744.70546  22802114.055    22802122.3714
 01  4 23  2 24 30.0000000  0 10 21 25 23 03 14 09 11 15 29 31
  21067582.267   -25217303.266 9 -19637908.76947  21067581.367    21067588.6204
  23840230.638    -9726978.242 8  -7134929.84345  23840230.123    23840241.8034
  23536317.325    -9627035.383 8  -7484435.18346  23536316.417    23536325.1744
  22837458.580   -14173886.985 8 -11005555.16646  22837457.937    22837467.2924
  20230978.971   -25276245.163 9 -19409507.09148  20230978.135    20230983.6324
  24240688.040    -2328309.354 8  -1798357.68745  24240687.461    24240695.5324
  24694557.337    -5714715.497 7  -4436733.93345  24694556.854    24694566.4554
  22776928.702   -14974344.358 8 -11650827.70146  22776927.601    22776937.0374
  20337593.085   -23324261.124 9 -18132459.04948  20337592.578    20337598.8244
  22806479.177   -10833913.988 8  -8413874.14746  22806478.214    22806486.5214
 01  4 23  2 25  0.0000000  0 10 21 25 23 03 14 09 11 15 29 31
  21068381.205   -25213104.795 9 -19634637.22147  21068380.294    21068387.5444
  23821431.736    -9825765.790 8  -7211906.83645  23821431.217    23821442.8494
  23547044.807    -9570661.939 8  -7440507.85646  23547043.920    23547052.7164
  22851154.269   -14101915.562 8 -10949473.59046  22851153.665    22851163.0334
  20229857.599   -25282138.131 9 -19414099.00348  20229856.762    20229862.2234
  24253864.837    -2259064.320 7  -1744400.44445  24253864.249    24253872.4274
  24675167.560    -5816609.429 7  -4516131.71445  24675167.027    24675176.6594
  22794781.835   -14880525.923 8 -11577722.49246  22794780.732    22794790.1274
  20334810.261   -23338884.974 9 -18143854.23648  20334809.754    20334815.9784
  22810940.938   -10810467.364 8  -8395604.08446  22810939.955    22810948.2634
 01  4 23  2 25 30.0000000  0 10 21 25 23 03 14 09 11 15 29 31
  21069208.509   -25208757.305 9 -19631249.55247  21069207.611    21069214.8314
  23802640.525    -9924513.257 8  -7288852.61046  23802640.036    23802651.5044
  23557784.347    -9514226.135 8  -7396531.93346  23557783.406    23557792.0204
  22864901.821   -14029672.002 8 -10893179.96246  22864901.158    22864910.5474
  20228828.391   -25287546.571 9 -19418313.35348  20228827.554    20228833.0104
  24267129.159    -2189358.969 7  -1690084.50945  24267128.657    24267136.8604
  24655789.988    -5918439.293 7  -4595479.55345  24655789.322    24655799.0084
  22812687.533   -14786430.923 8 -11504401.76646  22812686.486    22812695.8874
  20332111.017   -23353069.446 9 -18154907.03848  20332110.503    20332116.7574
  22815499.795   -10786510.413 8  -8376936.36246  22815498.858    22815507.1574
 01  4 23  2 26  0.0000000  0 10 21 25 23 03 14 09 11 15 29 31
  21070064.028   -25204261.307 9 -19627746.16147  21070063.149    21070070.3554
  23783857.217   -10023218.760 8  -7365765.69646  23783856.759    23783868.1414
  23568535.362    -9457728.529 8  -7352507.84946  23568534.463    23568543.2034
  22878700.454   -13957160.237 8 -10836677.33846  22878699.746    22878709.1524
  20227891.034   -25292472.333 9 -19422151.58848  20227890.213    20227895.6514
  24280480.515    -2119196.558 7  -1635412.42345  24280479.964    24280488.0554
  24636424.744    -6020204.121 7  -4674776.74945  24636423.959    24636433.7634
  22830645.386   -14692061.836 8 -11430867.46846  22830644.364    22830653.7864
  20329495.076   -23366816.271 9 -18165618.82348  20329494.564    20329500.7824
  22820155.189   -10762045.986 8  -8357873.20446  22820154.265    22820162.6334
 01  4 23  2 26 30.0000000  0 10 21 25 23 03 14 09 11 15 29 31
  21070948.437   -25199613.850 9 -19624124.75247  21070947.556    21070954.7454
  23765082.861   -10121877.298 8  -7442642.19246  23765082.486    23765093.8174
  23579298.926    -9401166.517 8  -7308433.57846  23579297.992    23579306.5964
  22892549.865   -13884381.039 8 -10779966.32046  22892549.248    22892558.6194
  20227045.821   -25296913.999 9 -19425612.60948  20227044.988    20227050.4274
  24293918.953    -2048577.029 7  -1580384.15745  24293918.430    24293926.4824
  24617072.488    -6121899.459 7  -4754019.77245  24617071.766    24617081.7724
  22848655.608   -14597417.769 8 -11357118.90546  22848654.595    22848663.9944
  20326962.668   -23380123.914 9 -18175988.38848  20326962.167    20326968.3664
  22824907.385   -10737073.375 8  -8338414.05446  22824906.386    22824914.7864
 01  4 23  2 27  0.0000000  0 10 21 25 23 03 14 09 11 15 29 31
  21071861.363   -25194816.441 9 -19620386.49247  21071860.464    21071867.6384
  23746317.595   -10220488.173 8  -7519481.55046  23746317.227    23746328.4664
  23590074.285    -9344541.508 8  -7264310.21445  23590073.322    23590082.0044
  22906449.405   -13811338.870 8 -10723050.38846  22906448.755    22906458.1334
  20226292.160   -25300874.321 9 -19428698.55748  20226291.340    20226296.7834
  24307443.506    -1977504.383 7  -1525002.81745  24307442.858    24307451.0524
  24597733.659    -6223525.087 7  -4833208.50945  24597733.014    24597743.0234
  22866717.491   -14502502.049 8 -11283158.66446  22866716.511    22866725.9264
  20324513.458   -23392994.716 9 -18186017.55248  20324512.932    20324519.1034
  22829755.605   -10711595.987 8  -8318561.58946  22829754.629    22829763.0334
 01  4 23  2 27 30.0000000  0 10 21 25 23 03 14 09 11 15 29 31
  21072802.683   -25189869.837 9 -19616531.98147  21072801.793    21072808.9564
  23727561.857   -10319049.581 8  -7596282.37746  23727561.421    23727572.5474
  23600861.664    -9287853.896 8  -7220138.06146  23600860.694    23600869.3144
  22920398.249   -13738037.686 8 -10665932.63346  22920397.568    22920406.8944
  20225629.762   -25304355.038 9 -19431410.78048  20225628.938    20225634.3964
  24321053.758    -1905981.498 7  -1469270.66045  24321053.165    24321061.4034
  24578408.488    -6325079.665 7  -4912341.86245  24578407.913    24578417.7514
  22884830.663   -14407317.134 8 -11208988.67146  22884829.652    22884839.0474
  20322146.965   -23405430.453 9 -18195707.70948  20322146.451    20322152.6384
  22834699.397   -10685616.252 8  -8298317.67246  22834698.407    22834706.7994
 01  4 23  2 28  0.0000000  0 10 21 25 23 03 14 09 11 15 29 31
  21073772.945   -25184771.139 9 -19612558.95247  21073772.031    21073779.1864
  23708816.393   -10417556.716 8  -7673040.92846  23708815.918    23708826.9354
  23611661.219    -9231101.321 8  -7175915.31945  23611660.277    23611668.9814
  22934396.172   -13664478.405 8 -10608613.77346  22934395.528    22934404.8014
  20225058.818   -25307355.275 9 -19433748.60248  20225058.004    20225063.4644
  24334749.794    -1834008.618 8  -1413187.80245  24334749.153    24334757.1714
  24559097.500    -6426559.181 7  -4991416.75245  24559096.971    24559106.5634
  22902995.103   -14311862.627 8 -11134608.59446  22902994.097    22903003.4294
  20319863.585   -23417429.646 9 -18205057.70348  20319863.062    20319869.2714
  22839738.780   -10659133.932 8  -8277682.14446  22839737.838    22839746.2604
 01  4 23  2 28 30.0000000  0 10 21 25 23 03 14 09 11 15 29 31
  21074771.454   -25179523.898 9 -19608470.17247  21074770.550    21074777.6924
  23690081.066   -10516010.787 8  -7749758.10645  23690080.520    23690091.4624
  23622472.530    -9174287.432 8  -7131644.78246  23622471.553    23622480.3974
  22948441.927   -13590667.967 8 -10551099.19046  22948441.255    22948450.5064
  20224578.419   -25309879.771 9 -19435715.72148  20224577.596    20224583.0394
  24348530.146    -1761591.928 7  -1356759.18445  24348529.374    24348537.5994
  24539800.423    -6527965.589 7  -5070434.63545  24539799.802    24539809.5824
  22921209.839   -14216144.017 8 -11060022.72346  22921208.788    22921218.1774
  20317662.284   -23428997.286 9 -18214071.41848  20317661.755    20317667.9784
  22844872.827   -10632154.634 8  -8256659.34546  22844871.854    22844880.2744
 01  4 23  2 29  0.0000000  0 10 21 25 23 03 14 09 11 15 29 31
  21075799.314   -25174122.312 9 -19604261.12847  21075798.408    21075805.5504
  23671357.159   -10614404.677 8  -7826428.41645  23671356.462    23671367.4454
  23633296.541    -9117406.939 8  -7087322.34445  23633295.570    23633304.3884
  22962535.790   -13516604.365 8 -10493387.33646  22962535.098    22962544.3574
  20224189.283   -25311924.632 9 -19437309.09648  20224188.436    20224193.8844
  24362395.481    -1688728.657 7  -1299982.56045  24362394.795    24362403.0454
  24520518.739    -6629291.560 7  -5149389.85345  24520518.129    24520527.7744
  22939475.454   -14120157.966 8 -10985228.46246  22939474.392    22939483.8284
  20315543.970   -23440129.104 9 -18222745.53548  20315543.442    20315549.6544
  22850102.050   -10604674.995 8  -8235246.68146  22850101.085    22850109.4554
 01  4 23  2 29 30.0000000  0 10 21 25 23 03 14 09 11 15 29 31
  21076855.837   -25168570.122 9 -19599934.73647  21076854.947    21076862.0684
  23652644.359   -10712739.342 8  -7903052.57245  23652643.756    23652654.6864
  23644132.560    -9060463.568 8  -7042950.91445  23644131.578    23644140.3254
  22976676.495   -13442294.605 8 -10435483.68546  22976675.818    22976685.0814
  20223890.483   -25313494.821 9 -19438532.59548  20223889.652    20223895.0694
  24376344.765    -1615425.279 7  -1242862.94645  24376344.138    24376352.0954
  24501251.941    -6730539.383 7  -5228284.18945  24501251.216    24501260.6314
  22957790.910   -14023910.026 8 -10910230.14146  22957789.753    22957799.2754
  20313507.640   -23450829.918 9 -18231083.81048  20313507.122    20313513.3234
  22855425.336   -10576700.920 8  -8213448.74246  22855424.399    22855432.7604
 01  4 23  2 30  0.0000000  0 10 21 25 23 03 14 09 11 15 29 31
  21077941.649   -25162864.021 9 -19595488.41047  21077940.755    21077947.8694
  23633944.078   -10811009.181 8  -7979626.20345  23633943.362    23633954.1914
  23654981.332    -9003453.764 8  -6998527.71946  23654980.258    23654989.0454
  22990864.150   -13367738.558 8 -10377388.11946  22990863.397    22990872.6394
  20223682.333   -25314588.475 9 -19439384.77048  20223681.507    20223686.9324
  24390377.804    -1541680.433 7  -1185399.39145  24390377.214    24390385.2654
  24482000.976    -6831703.626 8  -5307113.39645  24482000.553    24482009.6144
  22976156.531   -13927398.565 8 -10835026.47146  22976155.339    22976164.9114
  20311553.783   -23461097.396 9 -18239084.42248  20311553.254    20311559.4524
  22860842.963   -10548231.288 8  -8191264.65346  22860842.038    22860850.3434
 01  4 23  2 30 30.0000000  0 10 21 25 23 03 14 09 11 15 29 31
  21079056.353   -25157006.223 9 -19590923.87847  21079055.464    21079062.5664
  23615255.924   -10909214.496 8  -8056149.57845  23615255.289    23615266.0634
  23665841.913    -8946380.322 8  -6954054.91745  23665840.889    23665849.7934
  23005097.475   -13292942.364 8 -10319105.42446  23005096.713    23005105.9644
  20223564.090   -25315209.692 9 -19439868.80848  20223563.279    20223568.7174
  24404493.575    -1467499.872 7  -1127596.33845  24404493.052    24404501.3184
  24462765.870    -6932785.184 7  -5385878.16845  24462765.320    24462774.4224
  22994571.334   -13830628.342 8 -10759621.16946  22994570.181    22994579.7194
  20309681.665   -23470935.392 9 -18246750.36348  20309681.140    20309687.3204
  22866354.018   -10519270.936 8  -8168698.16646  22866353.043    22866361.4104
 01  4 23  2 31  0.0000000  0 10 21 25 23 03 14 09 11 15 29 31
  21080200.704   -25150992.483 9 -19586237.83547  21080199.811    21080206.9254
  23596581.554   -11007348.272 8  -8132617.19945  23596580.878    23596591.5544
  23676715.643    -8889238.726 8  -6909529.01645  23676714.651    23676723.4924
  23019376.652   -13217904.960 8 -10260634.77346  23019375.878    23019385.1434
  20223536.337   -25315355.455 9 -19439982.36948  20223535.508    20223540.9454
  24418692.914    -1392881.895 7  -1069452.42145  24418692.411    24418700.7974
  24443547.618    -7033777.986 7  -5464573.76645  24443547.055    24443556.1944
  23013035.777   -13733597.156 8 -10684012.52346  23013034.588    23013044.2404
  20307891.821   -23480340.852 9 -18254079.26548  20307891.300    20307897.4864
  22871958.814   -10489817.490 8  -8145747.46346  22871957.863    22871966.3214
 01  4 23  2 31 30.0000000  0 10 21 25 23 03 14 09 11 15 29 31
  21081373.948   -25144827.071 9 -19581433.60147  21081373.029    21081380.1514
  23577920.333   -11105412.872 8  -8209030.92045  23577919.646    23577930.2054
  23687601.407    -8832033.573 8  -6864953.57745  23687600.465    23687609.2554
  23033700.236   -13142634.089 8 -10201982.19446  23033699.481    23033708.7894
  20223597.976   -25315031.605 9 -19439729.99148  20223597.135    20223602.5624
  24432974.258    -1317833.580 8  -1010973.11345  24432973.615    24432981.8044
  24424345.721    -7134684.788 7  -5543202.35345  24424345.098    24424354.2164
  23031548.623   -13636311.581 8 -10608205.65946  23031547.471    23031557.1864
  20306183.215   -23489319.491 9 -18261075.57348  20306182.682    20306188.8774
  22877656.212   -10459877.744 8  -8122417.81646  22877655.249    22877663.7594
 01  4 23  2 32  0.0000000  0 10 21 25 23 03 14 09 11 15 29 31
  21082576.849   -25138505.729 9 -19576507.86847  21082575.926    21082583.0584
  23559273.406   -11203402.079 8  -8285385.91045  23559272.785    23559283.1834
  23698500.129    -8774760.779 8  -6820325.45745  23698499.200    23698508.0104
  23048068.349   -13067129.136 8 -10143147.20946  23048067.675    23048076.9904
  20223749.413   -25314235.587 9 -19439109.69648  20223748.580    20223754.0164
  24447337.584    -1242353.494 8   -952157.45545  24447336.921    24447345.2444
  24405161.196    -7235499.557 8  -5621759.19645  24405160.500    24405169.5944
  23050110.195   -13538769.363 8 -10532198.79946  23050109.121    23050118.8784
  20304556.367   -23497868.297 9 -18267736.95548  20304555.869    20304562.0734
  22883446.424   -10429450.034 8  -8098707.93946  22883445.450    22883453.9114
 01  4 23  2 32 30.0000000  0 10 21 25 23 03 14 09 11 15 29 31
  21083808.983   -25132030.799 9 -19571462.45447  21083808.053    21083815.1774
  23540640.961   -11301315.154 8  -8361681.58646  23540640.355    23540650.6664
  23709411.334    -8717422.273 8  -6775646.13946  23709410.397    23709419.2254
  23062480.009   -12991395.492 8 -10084134.04346  23062479.357    23062488.6624
  20223990.046   -25312970.782 9 -19438124.11348  20223989.224    20223994.6624
  24461782.029    -1166446.519 7   -893009.02045  24461781.401    24461789.4114
  24385994.173    -7336222.762 8  -5700244.70845  24385993.449    24386002.6324
  23068720.010   -13440974.553 8 -10455995.12746  23068718.938    23068728.7044
  20303010.693   -23505990.776 9 -18274066.13548  20303010.199    20303016.3984
  22889328.657   -10398538.343 8  -8074620.92846  22889327.728    22889336.2544
 01  4 23  2 33  0.0000000  0  9 21 25 23 03 14 11 15 29 31
  21085070.969   -25125399.028 9 -19566294.82347  21085070.030    21085077.1544
  23522023.853   -11399147.658 8  -8437914.46046  23522023.222    23522033.5554
  23720335.476    -8660015.527 8  -6730913.60545  23720334.584    23720343.3234
  23076935.029   -12915434.071 8 -10024943.36746  23076934.371    23076943.6744
  20224320.126   -25311236.209 9 -19436772.47448  20224319.295    20224324.7184
  24366845.538    -7436849.761 8  -5778655.23645  24366844.634    24366853.8494
  23087377.963   -13342926.458 8 -10379594.08046  23087376.942    23087386.6594
  20301546.441   -23513685.472 9 -18280061.97348  20301545.952    20301552.1304
  22895303.124   -10367142.406 8  -8050156.58446  22895302.182    22895310.7534
 01  4 23  2 33 30.0000000  0  9 21 25 23 03 14 11 15 29 31
  21086362.720   -25118610.654 9 -19561005.16847  21086361.796    21086368.9054
  23503422.458   -11496897.750 8  -8514083.13846  23503421.800    23503432.1104
  23731272.565    -8602541.058 8  -6686128.34545  23731271.662    23731280.4484
  23091432.645   -12839248.673 8  -9965578.17046  23091432.005    23091441.3154
  20224739.211   -25309033.898 9 -19435056.36948  20224738.375    20224743.7764
  24347715.394    -7537379.530 8  -5856990.00745  24347714.587    24347723.5754
  23106083.654   -13244627.953 8 -10302997.91246  23106082.582    23106092.2704
  20300163.235   -23520954.202 9 -18285725.89248  20300162.750    20300168.9134
  22901369.213   -10335265.129 8  -8025317.17346  22901368.263    22901376.8704
 01  4 23  2 34  0.0000000  0  9 21 25 23 03 14 11 15 29 31
  21087683.852   -25111667.876 9 -19555595.19647  21087682.921    21087690.0254
  23484836.746   -11594564.955 8  -8590187.20946  23484836.146    23484846.4254
  23742222.096    -8545000.542 8  -6641291.61545  23742221.182    23742230.0164
  23105971.886   -12762844.581 8  -9906042.57846  23105971.199    23105980.5734
  20225246.621   -25306367.106 9 -19432978.32348  20225245.774    20225251.1944
  24328603.744    -7637812.061 8  -5935248.97845  24328602.808    24328611.8344
  23124836.223   -13146082.878 8 -10226209.60746  23124835.120    23124844.8444
  20298860.468   -23527800.085 9 -18291060.31748  20298859.962    20298866.1234
  22907526.128   -10302910.439 8  -8000105.75946  22907525.190    22907533.7684
 01  4 23  2 34 30.0000000  0  9 21 25 23 03 14 11 15 29 31
  21089035.392   -25104565.391 9 -19550060.78247  21089034.465    21089041.5694
  23466268.216   -11692142.276 8  -8666221.26946  23466267.631    23466277.8724
  23753185.205    -8487389.701 8  -6596400.09045  23753184.253    23753193.1354
  23120552.958   -12686220.430 8  -9846335.50046  23120552.294    23120561.7924
  20225842.970   -25303233.163 9 -19430536.27348  20225842.131    20225847.5394
  24309511.596    -7738141.163 8  -6013427.36745  24309510.775    24309519.6834
  23143636.128   -13047288.711 8 -10149227.20046  23143635.075    23143644.7834
  20297638.806   -23534219.887 9 -18296062.73648  20297638.297    20297644.4444
  22913774.334   -10270076.227 8  -7974520.67546  22913773.415    22913781.9684
 01  4 23  2 35  0.0000000  0  9 21 25 23 03 14 11 15 29 31
  21090417.196   -25097303.786 9 -19544402.37747  21090416.269    21090423.3824
  23447717.131   -11789628.226 8  -8742184.12846  23447716.514    23447726.6614
  23764161.433    -8429709.377 8  -6551454.42045  23764160.434    23764169.3674
  23135175.170   -12609380.520 8  -9786460.31246  23135174.462    23135184.0004
  20226527.824   -25299634.207 9 -19427731.86148  20226526.977    20226532.3674
  24290439.384    -7838365.678 8  -6091524.27445  24290438.579    24290447.3384
  23162482.898   -12948248.542 8 -10072053.11446  23162481.847    23162491.5424
  20296497.834   -23540215.837 9 -18300734.88548  20296497.307    20296503.4364
  22920113.159   -10236765.750 8  -7948564.47546  22920112.207    22920120.7474
 01  4 23  2 35 30.0000000  0  9 21 25 23 03 14 11 15 29 31
  21091829.181   -25089883.494 9 -19538620.31747  21091828.271    21091835.3924
  23429183.712   -11887020.877 8  -8818074.28946  23429183.114    23429193.2364
  23775150.755    -8371959.878 8  -6506454.82245  23775149.826    23775158.7494
  23149837.702   -12532328.861 8  -9726420.09546  23149836.951    23149846.4934
  20227300.724   -25295572.376 9 -19424566.77548  20227299.892    20227305.2764
  24271387.351    -7938484.293 8  -6169538.64545  24271386.598    24271395.4834
  23181376.094   -12848964.649 8  -9994689.10146  23181375.027    23181384.7424
  20295437.122   -23545789.824 9 -18305078.21448  20295436.592    20295442.7054
  22926542.020   -10202981.928 8  -7922239.45246  22926541.076    22926549.6284
 01  4 23  2 36  0.0000000  0  9 21 25 23 03 14 11 15 29 31
  21093271.022   -25082306.584 9 -19532716.21647  21093270.103    21093277.2394
  23410668.045   -11984319.807 8  -8893891.42946  23410667.523    23410677.5424
  23786152.995    -8314142.787 8  -6461402.59745  23786151.960    23786160.9904
  23164539.435   -12455070.391 8  -9666218.72846  23164538.804    23164548.3044
  20228161.152   -25291050.768 9 -19421043.41748  20228160.306    20228165.6784
  24252355.511    -8038496.866 8  -6247470.36945  24252354.614    24252363.5814
  23200314.879   -12749440.701 8  -9917138.03746  23200313.827    23200323.5744
  20294456.173   -23550944.605 9 -18309094.89248  20294455.641    20294461.7464
  22933060.123   -10168728.626 8  -7895548.59446  22933059.213    22933067.7764
 01  4 23  2 36 30.0000000  0  9 21 25 23 03 14 11 15 29 31
  21094743.464   -25074568.730 9 -19526686.70047  21094742.564    21094749.6824
  23392171.546   -12081518.127 8  -8969630.16546  23392171.117    23392181.0984
  23797168.825    -8256254.152 8  -6416294.57645  23797167.834    23797176.8194
  23179280.808   -12377604.310 8  -9605855.58246  23179280.138    23179289.6524
  20229109.485   -25286067.168 9 -19417160.06648  20229108.630    20229113.9944
  24233345.117    -8138397.236 8  -6325314.69145  24233344.165    24233353.1124
  23219299.752   -12649674.664 8  -9839398.32146  23219298.704    23219308.4304
  20293555.551   -23555677.376 9 -18312782.73848  20293555.004    20293561.1154
  22939667.925   -10134004.315 8  -7868490.70846  22939667.029    22939675.6284
 01  4 23  2 37  0.0000000  0  9 21 25 23 03 14 11 15 29 31
  21096246.556   -25066669.753 9 -19520531.64447  21096245.643    21096252.7744
  23373694.605   -12178614.566 8  -9045289.52746  23373694.089    23373704.0534
  23808198.230    -8198294.597 8  -6371131.32145  23808197.198    23808206.2454
  23194060.902   -12299934.874 8  -9545333.99946  23194060.196    23194069.6904
  20230145.315   -25280623.701 9 -19412918.38248  20230144.482    20230149.8254
  24214356.036    -8238184.770 8  -6403071.08245  24214355.170    24214364.0524
  23238330.173   -12549669.612 8  -9761472.36346  23238329.099    23238338.8364
  20292734.758   -23559990.598 9 -18316143.67048  20292734.222    20292740.2954
  22946364.763   -10098812.023 8  -7841068.16846  22946363.873    22946372.4964
 01  4 23  2 37 30.0000000  0  9 21 25 23 03 14 11 15 29 31
  21097780.269   -25058610.106 9 -19514251.38947  21097779.371    21097786.4834
  23355237.303   -12275607.434 8  -9120868.18046  23355236.776    23355246.7104
  23819240.988    -8140264.746 8  -6325913.25645  23819239.983    23819248.7984
  23208878.888   -12222066.002 8  -9484657.00846  23208878.158    23208887.6684
  20231268.260   -25274722.505 9 -19408320.02048  20231267.415    20231272.7694
  24195388.717    -8337858.042 8  -6480738.44445  24195387.882    24195396.7374
  23257405.643   -12449428.100 8  -9683362.14446  23257404.474    23257414.1794
  20291993.454   -23563886.147 9 -18319179.14248  20291992.916    20291998.9774
  22953150.150   -10063154.826 8  -7813283.35346  22953149.226    22953157.7974
 01  4 23  2 38  0.0000000  0  9 21 25 23 03 14 11 15 29 31
  21099344.739   -25050388.797 9 -19507845.15947  21099343.818    21099350.9184
  23336800.254   -12372493.557 8  -9196363.67146  23336799.700    23336809.6444
  23830297.158    -8082163.729 8  -6280639.78545  23830296.169    23830305.1664
  23223734.294   -12144000.298 8  -9423826.64046  23223733.654    23223743.1484
  20232478.159   -25268364.334 9 -19403365.57348  20232477.307    20232482.6784
  24176443.711    -8437414.280 8  -6558314.62445  24176442.847    24176451.6904
  23276525.753   -12348951.416 8  -9605068.67246  23276524.667    23276534.3074
  20291331.545   -23567364.468 9 -18321889.49448  20291331.004    20291337.0394
  22960023.591   -10027034.425 8  -7785137.61646  22960022.677    22960031.3064
 01  4 23  2 38 30.0000000  0  9 21 25 23 03 14 11 15 29 31
  21100939.947   -25042005.699 9 -19501312.86747  21100939.024    21100946.1184
  23318384.103   -12469270.420 8  -9271774.02546  23318383.560    23318393.4144
  23841367.020    -8023991.495 8  -6235310.79545  23841366.096    23841374.9684
  23238626.644   -12065741.069 8  -9362845.48746  23238625.925    23238635.4054
  20233774.634   -25261551.025 9 -19398056.47748  20233773.800    20233779.1644
  24157521.319    -8536851.607 8  -6635798.14145  24157520.477    24157529.2704
  23295690.265   -12248241.791 8  -9526593.69446  23295689.110    23295698.7934
  20290748.745   -23570426.969 9 -18324275.82648  20290748.207    20290754.2404
  22966984.885    -9990453.122 8  -7756632.72646  22966983.928    22966992.4814
 01  4 23  2 39  0.0000000  0  9 21 25 23 03 14 11 15 29 31
  21102566.316   -25033459.116 9 -19494653.17847  21102565.418    21102572.4954
  23299989.505   -12565934.006 8  -9347096.12846  23299988.963    23299998.7094
  23852450.830    -7965746.200 8  -6189924.89145  23852449.823    23852458.6174
  23253555.444   -11987289.796 8  -9301714.66746  23253554.699    23253564.2554
  20235157.779   -25254282.424 9 -19392392.60248  20235156.952    20235162.3144
  24138622.184    -8636166.432 8  -6713186.20445  24138621.341    24138630.1344
  23314898.947   -12147299.319 8  -9447937.26746  23314897.882    23314907.5274
  20290245.145   -23573073.224 9 -18326337.82348  20290244.596    20290250.6284
  22974033.655    -9953411.697 8  -7727769.29846  22974032.698    22974041.2364
 01  4 23  2 39 30.0000000  0  9 21 25 23 03 14 11 15 29 31
  21104223.357   -25024751.335 9 -19487867.88147  21104222.461    21104229.5154
  23281616.493   -12662484.670 8  -9422330.23346  23281615.913    23281625.5724
  23863547.771    -7907430.523 8  -6144484.14645  23863546.770    23863555.7444
  23268519.669   -11908652.523 8  -9240438.92146  23268518.969    23268528.4784
  20236626.763   -25246562.792 9 -19386377.28048  20236625.935    20236631.2814
  24119746.204    -8735359.462 8  -6790479.35445  24119745.448    24119754.2984
  23334151.204   -12046128.761 8  -9369103.12946  23334150.034    23334159.7304
  20289819.938   -23575307.501 9 -18328078.78848  20289819.390    20289825.4374
  22981168.981    -9915915.338 8  -7698551.36746  22981168.029    22981176.5734
 01  4 23  2 40  0.0000000  0  9 21 25 23 03 14 11 15 29 31
  21105911.862   -25015877.973 9 -19480953.56247  21105910.972    21105918.0464
  23263265.938   -12758916.446 8  -9497471.71546  23263265.447    23263274.9694
  23874658.916    -7849040.520 8  -6098985.49745  23874657.908    23874666.8994
  23283519.288   -11829829.065 8  -9179018.10846  23283518.585    23283528.0834
  20238182.012   -25238389.845 9 -19380008.72948  20238181.169    20238186.5024
  24100894.517    -8834424.922 8  -6867673.12845  24100893.908    24100902.7444
  23353447.158   -11944728.302 8  -9290089.83746  23353445.976    23353455.7164
  20289473.663   -23577127.100 9 -18329496.63148  20289473.140    20289479.1694
  22988391.198    -9877962.557 8  -7668977.79746  22988390.189    22988398.7824
 01  4 23  2 40 30.0000000  0  9 21 25 23 03 14 11 15 29 31
  21107631.617   -25006840.525 9 -19473911.37747  21107630.731    21107637.8234
  23244938.287   -12855227.845 8  -9572519.39446  23244937.825    23244947.3604
  23885784.220    -7790577.501 8  -6053429.90745  23885783.306    23885792.1204
  23298553.455   -11750824.176 8  -9117455.90946  23298552.658    23298562.2524
  20239822.919   -25229766.756 9 -19373289.41548  20239822.073    20239827.3904
  24082067.199    -8933362.234 8  -6944767.04845  24082066.663    24082075.4544
  23372786.150   -11843101.558 8  -9210900.23246  23372784.947    23372794.6624
  20289205.746   -23578534.925 9 -18330593.60948  20289205.235    20289211.2494
  22995699.516    -9839557.232 8  -7639051.58646  22995698.489    22995707.0554
 01  4 23  2 41  0.0000000  0  9 21 25 23 03 14 11 15 29 31
  21109382.784   -24997638.089 9 -19466740.63347  21109381.899    21109388.9714
  23226634.065   -12951416.530 8  -9647471.44846  23226633.616    23226643.0874
  23896923.430    -7732041.374 8  -6007817.38045  23896922.485    23896931.2754
  23313621.503   -11671641.047 8  -9055754.81846  23313620.716    23313630.3624
  20241549.195   -25220695.115 9 -19366220.58048  20241548.348    20241553.6584
  24063264.774    -9032169.592 8  -7021759.70845  24063264.119    24063272.8114
  23392167.694   -11741250.797 8  -9131536.06646  23392166.570    23392176.3014
  20289015.909   -23579532.385 9 -18331370.82348  20289015.377    20289021.4084
  23003093.491    -9800702.077 8  -7608774.85546  23003092.461    23003101.0234
 01  4 23  2 41 30.0000000  0  9 21 25 23 03 14 11 15 29 31
  21111165.549   -24988269.547 9 -19459440.45747  21111164.635    21111171.7194
  23208353.846   -13047478.923 8  -9722325.10046  23208353.421    23208362.8224
  23908076.689    -7673430.726 8  -5962146.79845  23908075.753    23908084.6174
  23328723.093   -11592281.788 8  -8993916.49646  23328722.321    23328731.9784
  20243360.729   -25211175.336 9 -19358802.55248  20243359.884    20243365.1824
  24044487.585    -9130843.811 8  -7098648.61445  24044486.908    24044495.6674
  23411591.725   -11639176.678 8  -9051997.86146  23411590.664    23411600.4444
  20288904.121   -23580119.637 9 -18331828.40048  20288903.594    20288909.6194
  23010572.727    -9761398.367 8  -7578148.61746  23010571.753    23010580.2724
 01  4 23  2 42  0.0000000  0  9 21 25 23 03 14 11 15 29 31
  21112980.055   -24978734.278 9 -19452010.36547  21112979.149    21112986.2464
  23190098.229   -13143412.343 8  -9797078.23946  23190097.770    23190107.1324
  23919244.280    -7614745.329 8  -5916417.92445  23919243.282    23919251.9964
  23343857.668   -11512749.486 8  -8931943.33746  23343856.864    23343866.5004
  20245257.232   -25201209.058 9 -19351036.59748  20245256.381    20245261.6834
  24025736.226    -9229382.495 8  -7175431.91845  24025735.510    24025744.2384
  23431057.865   -11536881.075 8  -8972287.06746  23431056.837    23431066.7194
  20288870.217   -23580297.817 9 -18331967.21448  20288869.688    20288875.7024
  23018136.836    -9721648.190 8  -7547174.47646  23018135.906    23018144.5704
 01  4 23  2 42 30.0000000  0  9 21 25 23 03 14 11 15 29 31
  21114826.080   -24969033.392 9 -19444451.22347  21114825.171    21114832.2414
  23171867.255   -13239215.986 8  -9871730.26146  23171866.771    23171876.1184
  23930425.690    -7555986.329 8  -5870631.75345  23930424.771    23930433.5974
  23359024.293   -11433048.753 8  -8869838.91446  23359023.464    23359033.1094
  20247238.147   -25190799.197 9 -19342924.99248  20247237.289    20247242.5824
  24007010.760    -9327785.230 8  -7252109.27645  24007010.024    24007018.7804
  23450565.600   -11434367.410 8  -8892406.36746  23450564.532    23450574.4074
  20288913.557   -23580069.875 9 -18331789.57348  20288913.038    20288919.0314
  23025785.189    -9681455.493 8  -7515855.52246  23025784.321    23025792.9824
 01  4 23  2 43  0.0000000  0  9 21 25 23 03 14 11 15 29 31
  21116704.285   -24959163.365 9 -19436760.28447  21116703.370    21116710.4294
  23153662.149   -13334884.122 8  -9946276.70046  23153661.614    23153670.9184
  23941621.858    -7497150.565 8  -5824785.72845  23941620.931    23941629.6604
  23374222.809   -11353179.871 8  -8807603.47746  23374222.033    23374231.7114
  20249303.788   -25179944.093 9 -19334466.44448  20249302.929    20249308.2104
  23988312.120    -9426046.781 8  -7328676.62745  23988311.218    23988320.1914
  23470115.041   -11331634.640 8  -8812354.92846  23470113.958    23470123.8774
  20289034.568   -23579433.920 9 -18331293.99948  20289034.064    20289040.0304
  23033517.962    -9640819.350 8  -7484191.02646  23033517.138    23033525.8424
 01  4 23  2 43 30.0000000  0  9 21 25 23 03 14 11 15 29 31
  21118614.612   -24949124.731 9 -19428937.96847  21118613.698    21118620.7104
  23135482.994   -13430415.348 8 -10020716.44746  23135482.509    23135491.7794
  23952832.354    -7438239.026 8  -5778880.68245  23952831.340    23952840.2324
  23389452.599   -11273146.948 8  -8745240.23046  23389451.869    23389461.6214
  20251453.630   -25168646.554 9 -19325663.15048  20251452.771    20251458.0374
  23969640.478    -9524166.175 8  -7405133.22045  23969639.594    23969648.4814
  23489705.574   -11228686.112 8  -8732135.36546  23489704.486    23489714.4874
  20289232.743   -23578392.347 9 -18330482.35648  20289232.227    20289238.1774
  23041334.494    -9599743.682 8  -7452184.05346  23041333.606    23041342.2504
 01  4 23  2 44  0.0000000  0  9 21 25 23 03 14 11 15 29 31
  21120556.503   -24938919.992 9 -19420986.21247  21120555.574    21120562.5874
  23117329.847   -13525810.275 8 -10095049.99046  23117329.316    23117338.6154
  23964056.799    -7379254.366 8  -5732918.65045  23964055.820    23964064.7044
  23404712.523   -11192956.106 8  -8682753.89946  23404711.705    23404721.5534
  20253686.766   -25156911.199 9 -19316518.69448  20253685.905    20253691.1794
  23950995.863    -9622144.179 8  -7481479.63745  23950994.902    23951003.7594
  23509336.110   -11125526.600 8  -8651751.41145  23509335.026    23509345.0914
  20289507.250   -23576949.744 9 -18329358.22748  20289506.727    20289512.6724
  23049233.665    -9558233.840 8  -7419838.74746  23049232.728    23049241.3574
 01  4 23  2 44 30.0000000  0  9 21 25 23 03 14 11 15 29 31
  21122531.194   -24928542.834 9 -19412900.10547  21122530.276    21122537.2484
  23099204.183   -13621060.247 8 -10169270.58346  23099203.695    23099212.9914
  23975296.297    -7320190.565 8  -5686894.94745  23975295.319    23975304.1724
  23420002.852   -11112604.843 8  -8620142.58646  23420002.081    23420011.9104
  20256004.042   -25144733.765 9 -19307029.77048  20256003.191    20256008.4534
  23932379.621    -9719972.835 8  -7557709.66345  23932378.689    23932387.5554
  23529007.599   -11022152.374 8  -8571200.14345  23529006.537    23529016.6764
  20289858.974   -23575101.308 9 -18327917.85948  20289858.443    20289864.3704
  23057215.978    -9516286.480 8  -7387152.52146  23057215.082    23057223.7144
 01  4 23  2 45  0.0000000  0  9 21 25 23 03 14 11 15 29 31
  21124538.356   -24917995.100 9 -19404681.08047  21124537.437    21124544.3894
  23081106.148   -13716165.159 8 -10243378.15046  23081105.733    23081114.9614
  23986550.518    -7261049.702 8  -5640811.21145  23986549.527    23986558.3104
  23435322.587   -11032099.021 8  -8557410.82046  23435321.854    23435331.6454
  20258404.635   -25132118.484 9 -19297199.66148  20258403.789    20258409.0294
  23913791.829    -9817652.516 8  -7633823.63345  23913790.898    23913799.7234
  23548719.033   -10918567.826 8  -8490484.98045  23548718.042    23548728.1154
  20290287.184   -23572850.948 9 -18326164.30748  20290286.647    20290292.5754
  23065280.582    -9473906.624 8  -7354129.28546  23065279.719    23065288.3694
 01  4 23  2 45 30.0000000  0  9 21 25 23 03 14 11 15 29 31
  21126577.956   -24907276.865 9 -19396329.20347  21126577.055    21126583.9864
  23063036.358   -13811122.561 8 -10317370.77246  23063035.822    23063045.0394
  23997819.441    -7201832.075 8  -5594667.61545  23997818.426    23997827.0484
  23450671.166   -10951442.157 8  -8494561.36646  23450670.478    23450680.1454
  20260888.251   -25119067.026 9 -19287029.67648  20260887.390    20260892.6394
  23895232.520    -9915181.511 8  -7709820.15045  23895231.675    23895240.4694
  23568470.208   -10814775.183 8  -8409607.68545  23568469.248    23568479.2544
  20290791.532   -23570200.510 9 -18324099.00148  20290790.998    20290796.9134
  23073426.981    -9431096.942 8  -7320771.11246  23073426.129    23073434.8434
 01  4 23  2 46  0.0000000  0  9 21 25 23 03 14 11 15 29 31
  21128649.794   -24896389.260 9 -19387845.35047  21128648.891    21128655.8344
  23044994.756   -13905931.476 8 -10391247.70846  23044994.233    23045003.3714
  24009102.527    -7142538.754 8  -5548465.07645  24009101.565    24009110.2604
  23466047.642   -10870638.769 8  -8431597.70845  23466046.954    23466056.5574
  20263454.252   -25105582.444 9 -19276522.19748  20263453.413    20263458.6644
  23876702.233   -10012558.903 8  -7785698.54645  23876701.374    23876710.1304
  23588260.411   -10710778.017 8  -8328571.00345  23588259.348    23588269.2644
  20291371.474   -23567152.671 9 -18321724.04348  20291370.936    20291376.8534
  23081654.462    -9387861.602 8  -7287081.26746  23081653.584    23081662.2974
 01  4 23  2 46 30.0000000  0  9 21 25 23 03 14 11 15 29 31
  21130754.870   -24885326.992 9 -19379225.39447  21130753.944    21130760.9184
  23026982.828   -14000584.661 8 -10465003.28446  23026982.242    23026991.2584
  24020401.038    -7083164.741 8  -5502199.66145  24020400.063    24020408.8494
  23481452.428   -10789686.954 8  -8368518.42745  23481451.628    23481461.2274
  20266103.237   -25091661.727 9 -19265674.86548  20266102.409    20266107.6634
  23858202.000   -10109777.753 8  -7861453.41145  23858201.202    23858209.8514
  23608089.860   -10606573.352 8  -8247372.64145  23608088.900    23608098.8104
  20292027.762   -23563703.832 9 -18319036.61348  20292027.222    20292033.1224
  23089963.349    -9344198.274 8  -7253057.90946  23089962.442    23089971.1624
 01  4 23  2 47  0.0000000  0  9 21 25 23 03 14 11 15 29 31
  21132892.567   -24874093.135 9 -19370471.73047  21132891.654    21132898.6494
  23009000.278   -14095083.264 8 -10538638.41846  23008999.671    23009008.6374
  24031714.302    -7023713.469 8  -5455873.99045  24031713.381    24031722.0354
  23496883.987   -10708593.825 8  -8305329.04645  23496883.236    23496892.7684
  20268834.237   -25077310.229 9 -19254491.86148  20268833.409    20268838.6644
  23839731.613   -10206839.751 8  -7937086.05645  23839730.858    23839739.4574
  23627957.797   -10502167.016 8  -8166017.11645  23627956.846    23627966.7094
  20292759.363   -23559859.265 9 -18316040.82648  20292758.815    20292764.6944
  23098352.541    -9300113.141 8  -7218705.87646  23098351.654    23098360.3074
 01  4 23  2 47 30.0000000  0  9 21 25 23 03 14 11 15 29 31
  21135063.408   -24862685.279 9 -19361582.48647  21135062.491    21135069.5144
  22991047.869   -14189423.005 8 -10612149.75646  22991047.270    22991056.2284
  24043042.643    -6964182.607 8  -5409486.36145  24043041.699    24043050.5244
  23512342.211   -10627360.450 8  -8242030.34345  23512341.455    23512350.9424
  20271647.286   -25062527.418 9 -19242972.77148  20271646.461    20271651.7024
  23821292.017   -10303740.748 8  -8012593.23345  23821291.223    23821299.6344
  23647864.170   -10397558.867 8  -8084504.35645  23647863.144    23647873.0184
  20293566.374   -23555618.229 9 -18312736.09748  20293565.837    20293571.6974
  23106821.960    -9255606.677 8  -7184025.54146  23106820.970    23106829.6404
 01  4 23  2 48  0.0000000  0  9 21 25 23 03 14 11 15 29 31
  21137267.295   -24851103.698 9 -19352557.86947  21137266.395    21137273.3894
  22973126.004   -14283602.172 8 -10685535.96846  22973125.417    22973134.3854
  24054385.916    -6904573.135 8  -5363037.44245  24054385.046    24054393.7504
  23527826.209   -10545991.523 8  -8178626.02945  23527825.446    23527835.0244
  20274541.874   -25047316.385 9 -19231119.99948  20274541.047    20274546.2704
  23802883.147   -10400479.719 8  -8087974.16145  23802882.348    23802890.7864
  23667808.322   -10292752.236 8  -8002836.92245  23667807.287    23667817.1144
  20294448.345   -23550983.380 9 -18309124.50548  20294447.816    20294453.6584
  23115370.689    -9210682.788 8  -7149019.93946  23115369.733    23115378.4284
 01  4 23  2 48 30.0000000  0  9 21 25 23 03 14 11 15 29 31
  21139504.839   -24839345.177 9 -19343395.37847  21139503.936    21139510.9364
  22955235.725   -14377615.332 8 -10758792.83446  22955235.201    22955244.1244
  24065744.658    -6844881.904 8  -5316524.88445  24065743.782    24065752.7714
  23543336.017   -10464486.987 8  -8115116.06445  23543335.258    23543344.8374
  20277518.161   -25031675.824 9 -19218932.53648  20277517.317    20277522.5234
  23784506.162   -10497051.450 8  -8163224.77145  23784505.370    23784513.6844
  23687790.392   -10187746.346 8  -7921014.22145  23687789.375    23687799.1364
  20295405.502   -23545953.391 9 -18305205.01848  20295404.954    20295410.8114
  23123998.986    -9165341.007 8  -7113688.70046  23123997.990    23124006.7084
 01  4 23  2 49  0.0000000  0  9 21 25 23 03 14 11 15 29 31
  21141775.880   -24827410.736 9 -19334095.80647  21141774.974    21141781.9654
  22937377.251   -14471461.755 8 -10831919.76046  22937376.685    22937385.5764
  24077118.818    -6785110.577 8  -5269949.78345  24077117.918    24077126.8014
  23558870.716   -10382851.842 8  -8051504.32145  23558869.944    23558879.5634
  20280575.542   -25015609.190 9 -19206413.06748  20280574.700    20280579.9074
  23766160.964   -10593455.535 8  -8238344.75745  23766160.240    23766168.4714
  23707809.602   -10082544.887 8  -7839039.14645  23707808.576    23707818.3394
  20296437.311   -23540531.116 9 -18300979.85348  20296436.759    20296442.6024
  23132705.929    -9119585.568 8  -7078035.14246  23132704.981    23132713.7134
 01  4 23  2 49 30.0000000  0  9 21 25 23 03 14 11 15 29 31
  21144080.022   -24815302.416 9 -19324660.74047  21144079.129    21144086.1134
  22919550.445   -14565141.890 8 -10904917.12346  22919549.846    22919558.7074
  24088507.746    -6725261.145 8  -5223313.96845  24088506.744    24088515.9654
  23574429.162   -10301091.850 8  -7987795.28845  23574428.413    23574438.0914
  20283713.246   -24999120.454 9 -19193564.68748  20283712.388    20283717.5914
  23747847.560   -10689692.364 8  -8313334.40245  23747846.918    23747855.2284
  23727865.249    -9977152.422 8  -7756915.21645  23727864.262    23727873.9204
  20297542.983   -23534720.663 9 -18296452.20648  20297542.434    20297548.2744
  23141490.608    -9073421.747 8  -7042063.34946  23141489.660    23141498.3714
 01  4 23  2 50  0.0000000  0  9 21 25 23 03 14 11 15 29 31
  21146418.256   -24803014.929 9 -19315086.06347  21146417.350    21146424.3094
  22901756.759   -14658647.749 8 -10977778.69146  22901756.174    22901765.0154
  24099912.359    -6665328.647 8  -5176613.34145  24099911.398    24099920.6674
  23590011.696   -10219205.239 8  -7923987.58545  23590010.975    23590020.6424
  20286931.822   -24982206.521 9 -19180384.98348  20286930.980    20286936.1664
  23729567.387   -10785754.894 8  -8388188.22045  23729566.793    23729575.0124
  23747957.650    -9871566.102 8  -7674640.26445  23747956.622    23747966.5084
  20298723.211   -23528518.534 9 -18291619.35948  20298722.647    20298728.5064
  23150353.418    -9026847.356 8  -7005771.63246  23150352.454    23150361.1424
 01  4 23  2 50 30.0000000  0  9 21 25 23 03 14 11 15 29 31
  21148790.563   -24790548.419 9 -19305371.89147  21148789.648    21148796.5924
  22883996.625   -14751977.194 8 -11050502.78846  22883996.049    22884004.8474
  24111333.034    -6605313.178 7  -5129848.08245  24111332.093    24111341.3554
  23605617.598   -10137195.503 8  -7860083.95745  23605616.971    23605626.6204
  20290230.938   -24964869.502 9 -19166875.59848  20290230.076    20290235.2624
  23711320.793   -10881640.886 8  -8462904.47545  23711320.115    23711328.4374
  23768086.582    -9765788.089 8  -7592215.92745  23768085.487    23768095.4944
  20299977.633   -23521926.402 9 -18286482.60848  20299977.078    20299982.9304
  23159293.849    -8979865.202 8  -6969162.18846  23159292.925    23159301.6154
 01  4 23  2 51  0.0000000  0  9 21 25 23 03 14 11 15 29 31
  21151196.665   -24777904.181 9 -19295519.22747  21151195.752    21151202.7004
  22866270.272   -14845129.469 8 -11123088.84546  22866269.701    22866278.4224
  24122768.983    -6545216.555 8  -5083019.57445  24122768.074    24122777.2024
  23621245.946   -10055068.022 8  -7796088.57845  23621245.342    23621254.9914
  20293609.833   -24947113.271 9 -19153039.56248  20293608.967    20293614.1794
  23693107.808   -10977350.469 8  -8537483.29145  23693107.163    23693115.3044
  23788251.078    -9659822.595 8  -7509645.51145  23788250.117    23788260.1724
  20301305.545   -23514948.069 9 -18281044.93248  20301304.989    20301310.8444
  23168310.967    -8932479.841 8  -6932238.54846  23168310.043    23168318.7844
 01  4 23  2 51 30.0000000  0  9 21 25 23 03 14 11 15 29 31
  21153636.698   -24765081.799 9 -19285527.74947  21153635.783    21153642.7574
  22848577.918   -14938102.636 8 -11195535.33446  22848577.389    22848586.0364
  24134220.649    -6485038.761 8  -5036127.85345  24134219.587    24134228.7734
  23636896.118    -9972825.954 8  -7732003.89745  23636895.498    23636905.1794
  20297068.089   -24928939.852 9 -19138878.44648  20297067.243    20297072.4504
  23674928.806   -11072881.902 8  -8611923.25845  23674928.019    23674936.1374
  23808450.948    -9553672.100 8  -7426930.93145  23808450.003    23808459.9894
  20302706.661   -23507585.011 9 -18275307.46448  20302706.109    20302711.9604
  23177404.159    -8884694.398 8  -6895003.16346  23177403.228    23177412.1004
 01  4 23  2 52  0.0000000  0  9 21 25 23 03 14 11 15 29 31
  21156110.436   -24752082.165 9 -19275398.15047  21156109.510    21156116.4744
  22830919.867   -15030895.617 8 -11267841.41646  22830919.364    22830928.0154
  24145687.245    -6424781.041 7  -4989173.79445  24145686.229    24145695.2814
  23652567.213    -9890474.010 8  -7667833.59945  23652566.639    23652576.3084
  20300605.144   -24910352.361 9 -19124394.67048  20300604.294    20300609.5244
  23656783.697   -11168234.270 8  -8686223.70745  23656782.950    23656791.0084
  23828685.378    -9447340.148 8  -7344074.96445  23828684.374    23828694.3524
  20304180.382   -23499840.398 9 -18269272.68448  20304179.829    20304185.6864
  23186572.848    -8836512.937 8  -6857459.19246  23186571.851    23186580.6404
 01  4 23  2 52 30.0000000  0  9 21 25 23 03 14 11 15 29 31
  21158619.284   -24738898.036 9 -19265124.78947  21158618.363    21158625.3194
  22813298.061   -15123498.579 8 -11339999.43546  22813297.493    22813306.1044
  24157170.479    -6364436.031 8  -4942151.79145  24157169.548    24157178.6254
  23668259.989    -9808008.255 8  -7603574.61745  23668259.345    23668269.1524
  20304222.079   -24891345.259 9 -19109583.92848  20304221.220    20304226.4284
  23638674.521   -11263398.295 8  -8760377.36745  23638673.777    23638681.9144
  23848955.232    -9340821.772 8  -7261073.71445  23848954.233    23848964.2564
  20305727.843   -23491708.250 9 -18262935.93048  20305727.278    20305733.1484
  23195817.659    -8787931.218 8  -6819603.33246  23195816.640    23195825.4654
 01  4 23  2 53  0.0000000  0  9 21 25 23 03 14 11 15 29 31
  21161162.434   -24725533.712 9 -19254711.01447  21161161.523    21161168.4524
  22795711.766   -15215914.432 8 -11412011.65546  22795711.248    22795719.8194
  24168669.678    -6304008.714 8  -4895065.55545  24168668.649    24168677.6074
  23683972.832    -9725437.111 8  -7539233.52245  23683972.137    23683981.9704
  20307917.469   -24871925.736 9 -19094451.81548  20307916.602    20307921.8254
  23620600.629   -11358376.830 8  -8834386.53145  23620599.849    23620607.9924
  23869259.041    -9234124.155 8  -7177932.83745  23869258.106    23869268.3894
  20307347.734   -23483195.637 9 -18256302.70848  20307347.186    20307353.0544
  23205137.115    -8738957.316 8  -6781441.88046  23205136.079    23205144.9144
 01  4 23  2 53 30.0000000  0  9 21 25 23 03 14 11 15 29 31
  21163740.213   -24711987.358 9 -19244155.39747  21163739.298    21163746.2114
  22778161.796   -15308139.521 8 -11483875.22746  22778161.297    22778169.8364
  24180184.482    -6243497.737 8  -4847914.25345  24180183.507    24180192.6624
  23699705.352    -9642762.659 8  -7474811.93945  23699704.626    23699714.4844
  20311691.260   -24852094.476 9 -19078998.86648  20311690.379    20311695.5914
  23602562.727   -11453166.730 8  -8908248.70245  23602561.847    23602569.9154
  23889597.041    -9127248.121 8  -7094652.90045  23889596.017    23889606.3534
  20309039.972   -23474302.681 9 -18249373.11148  20309039.415    20309045.2894
  23214530.996    -8689592.545 8  -6742975.84946  23214529.955    23214538.7074
 01  4 23  2 54  0.0000000  0  9 21 25 23 03 14 11 15 29 31
  21166353.066   -24698256.905 9 -19233456.33247  21166352.149    21166359.0224
  22760649.006   -15400169.264 8 -11555586.59246  22760648.491    22760656.9874
  24191715.768    -6182901.218 8  -4800696.15045  24191714.705    24191723.6114
  23715457.193    -9559986.232 8  -7410310.86545  23715456.441    23715466.3374
  20315543.355   -24831851.398 9 -19063225.02848  20315542.493    20315547.6864
  23584561.362   -11547763.980 8  -8981960.74245  23584560.408    23584568.5734
  23909968.692    -9020194.333 8  -7011234.47445  23909967.733    23909978.0524
  20310804.552   -23465029.584 9 -18242147.30648  20310804.003    20310809.8504
  23223999.004    -8639838.008 8  -6704206.11246  23223997.981    23224006.8014
 01  4 23  2 54 30.0000000  0  9 21 25 23 03 14 11 15 29 31
  21169000.668   -24684343.539 9 -19222614.73647  21168999.737    21169006.6054
  22743173.535   -15492003.127 8 -11627145.32246  22743172.969    22743181.4284
  24203262.959    -6122220.526 8  -4753412.54645  24203261.861    24203271.0634
  23731227.487    -9477112.914 8  -7345734.30045  23731226.773    23731236.7084
  20319473.154   -24811200.220 9 -19047133.18548  20319472.292    20319477.4684
  23566596.905   -11642167.947 8  -9055522.19945  23566596.016    23566603.9844
  23930373.566    -8912966.716 8  -6927680.58745  23930372.497    23930382.8524
  20312640.952   -23455379.232 9 -18234627.53648  20312640.402    20312646.2624
  23233540.317    -8589698.194 8  -6665136.15746  23233539.266    23233548.1384
 01  4 23  2 55  0.0000000  0  9 21 25 23 03 14 11 15 29 31
  21171683.269   -24670246.220 9 -19211629.79947  21171682.359    21171689.2024
  22725735.731   -15583638.533 8 -11698549.41446  22725735.181    22725743.6104
  24214826.240    -6061455.176 8  -4706062.93245  24214825.125    24214834.2014
  23747015.670    -9394145.474 8  -7281084.39345  23747014.964    23747024.9964
  20323480.288   -24790142.372 9 -19030724.45748  20323479.438    20323484.6104
  23548669.603   -11736376.371 8  -9128931.26445  23548668.666    23548676.5954
  23950811.299    -8805566.890 8  -6843992.50345  23950810.159    23950820.5754
  20314548.851   -23445352.938 9 -18226814.82048  20314548.321    20314554.1644
  23243154.490    -8539175.399 8  -6625767.76846  23243153.440    23243162.3444
 01  4 23  2 55 30.0000000  0  9 21 25 23 03 14 11 15 29 31
  21174401.234   -24655963.236 9 -19200500.19547  21174400.318    21174407.1574
  22708336.474   -15675071.172 8 -11769795.50846  22708336.026    22708344.4004
  24226405.989    -6000603.528 8  -4658646.10645  24226404.910    24226414.0544
  23762821.472    -9311085.734 8  -7216362.59545  23762820.642    23762830.7714
  20327564.751   -24768678.348 9 -19013999.23148  20327563.890    20327569.0784
  23530780.226   -11830385.268 8  -9202184.89345  23530779.361    23530787.1754
  23971281.592    -8697995.501 8  -6760170.76345  23971280.488    23971290.8734
  20316528.346   -23434950.699 9 -18218709.16048  20316527.810    20316533.6344
  23252841.228    -8488270.905 8  -6586101.96946  23252840.233    23252849.1944
 01  4 23  2 56  0.0000000  0  9 21 25 23 03 14 11 15 29 31
  21177154.491   -24641494.654 9 -19189225.96647  21177153.582    21177160.4104
  22690976.252   -15766299.536 8 -11840882.42746  22690975.785    22690984.0994
  24238002.124    -5939665.950 8  -4611162.31445  24238001.101    24238010.1284
  23778644.040    -9227937.486 8  -7151571.79545  23778643.298    23778653.2964
  20331726.039   -24746810.442 9 -18996959.29348  20331725.199    20331730.3744
  23512929.095   -11924193.296 8  -9275281.95245  23512928.189    23512935.9994
  23991783.980    -8590255.334 8  -6676217.48245  23991782.874    23991793.2654
  20318578.896   -23424174.928 9 -18210312.43748  20318578.361    20318584.1574
  23262600.052    -8436988.173 8  -6546141.41846  23262599.058    23262607.9694
 01  4 23  2 56 30.0000000  0  9 21 25 23 03 14 11 15 29 31
  21179943.273   -24626839.339 9 -19177806.23147  21179942.371    21179949.1964
  22673655.373   -15857320.562 8 -11911807.78946  22673654.966    22673663.2614
  24249614.729    -5878641.690 7  -4563610.89745  24249613.582    24249622.5224
  23794483.023    -9144703.469 8  -7086714.17545  23794482.223    23794492.2464
  20335963.944   -24724539.946 9 -18979605.64448  20335963.106    20335968.2934
  23495116.752   -12017797.541 8  -9348220.27945  23495115.870    23495123.6074
  24012318.160    -8482347.956 8  -6592133.91145  24012317.048    24012327.4584
  20320700.388   -23413026.409 9 -18201625.25848  20320699.862    20320705.6504
  23272430.408    -8385329.404 8  -6505887.86646  23272429.412    23272438.3024
 01  4 23  2 57  0.0000000  0  9 21 25 23 03 14 11 15 29 31
  21182767.671   -24611996.903 9 -19166240.69647  21182766.766    21182773.6044
  22656374.593   -15948131.566 8 -11982569.48746  22656374.069    22656382.3954
  24261243.614    -5817530.429 8  -4515991.78945  24261242.641    24261251.6914
  23810337.775    -9061386.444 8  -7021791.89045  23810336.906    23810347.0094
  20340278.148   -24701868.600 9 -18961939.64848  20340277.329    20340282.5064
  23477343.624   -12111195.750 8  -9420998.02145  23477342.714    23477350.4854
  24032883.708    -8374275.324 8  -6507921.59945  24032882.572    24032893.0854
  20322892.482   -23401506.828 9 -18192648.94948  20322891.955    20322897.7364
  23282331.856    -8333297.615 8  -6465343.63446  23282330.838    23282339.6614
 01  4 23  2 57 30.0000000  0  9 21 25 23 03 14 11 15 29 31
  21185627.714   -24596967.128 9 -19154529.17047  21185626.806    21185633.6664
  22639134.118   -16038730.378 8 -12053165.84546  22639133.584    22639141.9134
  24272889.256    -5756332.639 8  -4468305.18545  24272888.149    24272897.2924
  23826207.622    -8977990.130 8  -6956807.82145  23826206.780    23826216.8634
  20344668.185   -24678798.939 9 -18943963.27248  20344667.350    20344672.5064
  23459609.910   -12204386.432 8  -9493614.07545  23459609.071    23459616.8104
  24053480.173    -8266040.367 8  -6423582.78845  24053479.123    24053489.6174
  20325154.772   -23389618.324 9 -18183385.16148  20325154.239    20325160.0124
  23292303.416    -8280896.497 8  -6424511.62046  23292302.484    23292311.2744
 01  4 23  2 58  0.0000000  0  9 21 25 23 03 14 11 15 29 31
  21188524.129   -24581746.331 9 -19142668.79747  21188523.221    21188530.1004
  22621934.966   -16129111.539 8 -12123592.61046  22621934.491    22621942.7824
  24284551.990    -5695044.985 8  -4420548.62845  24284550.906    24284560.1394
  23842092.421    -8894514.785 8  -6891762.16345  23842091.703    23842101.8314
  20349134.238   -24655329.710 9 -18925675.54748  20349133.378    20349138.5484
  23441916.770   -12297364.186 8  -9566064.21546  23441915.919    23441923.7044
  24074107.754    -8157641.820 8  -6339116.52345  24074106.732    24074117.1784
  20327487.595   -23377359.293 9 -18173832.65348  20327487.044    20327492.8134
  23302345.415    -8228125.476 8  -6383391.37446  23302344.473    23302353.3254
 01  4 23  2 58 30.0000000  0  9 21 25 23 03 14 11 15 29 31
  21191456.559   -24566336.296 9 -19130660.97047  21191455.651    21191462.5494
  22604777.469   -16219274.795 8 -12193849.58046  22604776.929    22604785.1674
  24296231.242    -5633669.344 7  -4372723.43445  24296230.180    24296239.2144
  23857991.350    -8810965.582 8  -6826658.94845  23857990.627    23858000.8034
  20353675.503   -24631465.030 9 -18907079.67548  20353674.654    20353679.8084
  23424264.158   -12390128.891 8  -9638348.33046  23424263.271    23424271.0884
  24094765.773    -8049084.087 8  -6254526.19545  24094764.651    24094774.9474
  20329890.176   -23364733.609 9 -18163994.43948  20329889.620    20329895.3924
  23312456.806    -8174989.592 8  -6341986.82146  23312455.903    23312464.7494
 01  4 23  2 59  0.0000000  0  9 21 25 23 03 14 11 15 29 31
  21194425.220   -24550735.748 9 -19118504.69247  21194424.325    21194431.1964
  22587662.011   -16309217.018 8 -12263934.31846  22587661.437    22587669.6464
  24307927.330    -5572205.191 7  -4324829.33345  24307926.283    24307935.5584
  23873903.808    -8727345.363 8  -6761500.40845  23873903.101    23873913.2554
  20358291.771   -24607206.330 9 -18888176.78248  20358290.928    20358296.0794
  23406652.593   -12482677.767 8  -9710464.29546  23406651.712    23406659.5454
  24115453.659    -7940368.979 8  -6169813.26245  24115452.399    24115462.9904
  20332362.285   -23351742.465 9 -18153871.45548  20332361.729    20332367.4864
  23322637.140    -8121491.036 8  -6300299.66646  23322636.305    23322645.2064
 01  4 23  2 59 30.0000000  0  9 21 25 23 03 14 11 15 29 31
  21197429.704   -24534947.061 9 -19106201.80747  21197428.795    21197435.6654
  22570588.442   -16398938.761 8 -12333847.24846  22570587.857    22570596.0534
  24319640.021    -5510655.194 7  -4276868.34145  24319638.954    24319648.2794
  23889828.548    -8643660.427 8  -6696291.43845  23889827.866    23889838.1024
  20362982.131   -24582558.269 9 -18868970.48448  20362981.321    20362986.4444
  23389081.941   -12575011.523 8  -9782412.62046  23389081.156    23389088.9974
  24136170.603    -7831501.799 8  -6084981.78245  24136169.337    24136179.7804
  20334903.106   -23338390.214 9 -18143467.08348  20334902.540    20334908.2874
  23332885.616    -8067635.714 8  -6258334.50946  23332884.640    23332893.5714
 01  4 23  3  0  0.0000000  0  9 21 25 23 03 14 11 15 29 31
  21200471.647   -24518961.599 9 -19093745.59847  21200470.749    21200477.5904
  22553558.704   -16488430.286 8 -12403580.79646  22553558.137    22553566.2964
  24331370.434    -5449011.616 7  -4228834.36345  24331369.423    24331378.6584
  23905766.580    -8559905.906 8  -6631028.24245  23905765.892    23905776.0434
  20367747.618   -24557515.345 9 -18849456.50348  20367746.792    20367751.9254
  23371554.089   -12667120.583 8  -9854185.83046  23371553.340    23371561.1984
  24156917.312    -7722476.979 8  -6000027.54145  24156916.135    24156926.6844
  20337513.756   -23324671.175 9 -18132776.90548  20337513.193    20337518.9204
  23343202.733    -8013418.994 8  -6216087.74146  23343201.858    23343210.6804
 01  4 23  3  0 30.0000000  0  9 21 25 23 03 14 11 15 29 31
  21203549.752   -24502786.126 9 -19081141.32447  21203548.839    21203555.6844
  22536572.018   -16577695.263 8 -12473137.81746  22536571.496    22536579.6154
  24343117.418    -5387280.548 7  -4180732.31445  24343116.511    24343125.8674
  23921716.112    -8476091.399 8  -6565718.32145  23921715.312    23921725.5054
  20372586.684   -24532085.884 9 -18829641.32148  20372585.842    20372590.9694
  23354068.351   -12759008.921 8  -9925787.05046  23354067.536    23354075.3404
  24177692.459    -7613302.974 8  -5914957.00045  24177691.243    24177701.8824
  20340192.694   -23310593.249 9 -18121807.07948  20340192.138    20340197.8504
  23353586.845    -7958850.162 8  -6173566.61046  23353585.959    23353594.8044
 01  4 23  3  1  0.0000000  0  9 21 25 23 03 14 11 15 29 31
  21206664.761   -24486416.531 9 -19068385.78447  21206663.862    21206670.7024
  22519629.482   -16666728.349 8 -12542514.14846  22519629.005    22519637.0844
  24354881.517    -5325459.082 7  -4132559.71645  24354880.697    24354889.8844
  23937676.801    -8392217.431 8  -6500362.05845  23937676.022    23937686.1334
  20377499.492   -24506268.899 9 -18809524.17448  20377498.651    20377503.7604
  23336625.322   -12850671.487 8  -9997212.35146  23336624.630    23336632.4904
  24198496.150    -7503979.317 7  -5829769.88445  24198495.031    24198505.6514
  20342940.140   -23296155.184 9 -18110556.62248  20342939.576    20342945.3054
  23364037.991    -7903929.531 8  -6130771.34446  23364037.084    23364045.8394
 01  4 23  3  1 30.0000000  0  9 21 25 23 03 14 11 15 29 31
  21209816.658   -24469853.160 9 -19055479.24547  21209815.740    21209822.6264
  22502731.436   -16755527.868 8 -12611708.46646  22502730.934    22502739.0104
  24366662.932    -5263547.220 7  -4084316.77745  24366661.952    24366671.4954
  23953648.205    -8308287.423 8  -6434962.11545  23953647.375    23953657.5364
  20382485.591   -24480066.795 9 -18789106.92448  20382484.739    20382489.8354
  23319225.760   -12942106.326 8 -10068460.19246  23319225.066    23319232.9684
  24219327.820    -7394508.592 8  -5744468.13945  24219326.728    24219337.3644
  20345755.759   -23281359.004 9 -18099027.10448  20345755.187    20345760.9234
  23374555.387    -7848660.203 8  -6087704.36646  23374554.512    23374563.2674
 01  4 23  3  2  0.0000000  0  9 21 25 23 03 14 11 15 29 31
  21213005.873   -24453093.657 9 -19042419.88947  21213004.982    21213011.8334
  22485878.671   -16844089.211 8 -12680717.20846  22485878.201    22485886.2014
  24378461.812    -5201543.197 8  -4036001.98445  24378461.042    24378470.5094
  23969630.028    -8224302.948 8  -6369519.75145  23969629.161    23969639.3354
  20387544.941   -24453479.657 9 -18768389.66848  20387544.087    20387549.1654
  23301870.366   -13033309.527 8 -10139527.53246  23301869.612    23301877.5094
  24240187.440    -7284891.163 8  -5659052.13945  24240186.238    24240196.9384
  20348639.482   -23266204.779 9 -18087218.60648  20348638.911    20348644.6574
  23385138.980    -7793043.200 8  -6044366.47146  23385138.046    23385146.8204
 01  4 23  3  2 30.0000000  0  9 21 25 23 03 14 11 15 29 31
  21216232.238   -24436139.016 9 -19029208.47247  21216231.329    21216238.2014
  22469071.476   -16932411.229 8 -12749539.45846  22469071.016    22469078.9904
  24390278.358    -5139448.131 7  -3987616.18745  24390277.492    24390286.6564
  23985621.352    -8140268.139 7  -6304038.17745  23985620.380    23985630.7224
  20392676.907   -24426510.754 9 -18747374.92248  20392676.064    20392681.1364
  23284559.236   -13124280.206 8 -10210413.67146  23284558.426    23284566.2874
  24261074.411    -7175130.423 8  -5573524.44645  24261073.108    24261083.9904
  20351590.811   -23250695.297 9 -18075133.28048  20351590.237    20351596.0034
  23395787.919    -7737082.685 8  -6000760.91246  23395786.984    23395795.7824
 01  4 23  3  3  0.0000000  0  9 21 25 23 03 14 11 15 29 31
  21219495.943   -24418988.040 9 -19015844.06747  21219495.039    21219501.9134
  22452310.294   -17020491.396 8 -12818173.25546  22452309.810    22452317.8024
  24402112.109    -5077261.502 7  -3939159.14745  24402111.210    24402120.5234
  24001621.694    -8056185.862 8  -6238519.58845  24001620.733    24001631.1144
  20397881.179   -24399161.850 9 -18726064.07348  20397880.341    20397885.4114
  23267292.718   -13215015.885 8 -10281116.70146  23267291.929    23267299.7484
  24281988.317    -7065228.325 8  -5487886.62645  24281987.000    24281997.8244
  20354609.437   -23234832.102 9 -18062772.33648  20354608.887    20354614.6534
  23406501.720    -7680781.657 8  -5956890.02746  23406500.747    23406509.6084
 01  4 23  3  3 30.0000000  0  9 21 25 23 03 14 11 15 29 31
  21222797.076   -24401640.442 9 -19002326.44847  21222796.154    21222803.0264
  22435595.616   -17108327.255 8 -12886616.68746  22435595.091    22435603.0534
  24413963.230    -5014983.372 7  -3890630.78245  24413962.266    24413971.8544
  24017630.503    -7972059.585 8  -6172966.72545  24017629.581    24017639.8524
  20403157.418   -24371434.997 9 -18704458.71848  20403156.589    20403161.6614
  23250071.344   -13305514.466 8 -10351634.96246  23250070.651    23250078.3514
  24302928.476    -6955187.382 8  -5402140.57745  24302927.263    24302938.0294
  20357695.046   -23218617.063 9 -18050137.22748  20357694.501    20357700.3044
  23417279.734    -7624143.491 8  -5912756.42446  23417278.685    23417287.5004
 01  4 23  3  4  0.0000000  0  9 21 25 23 03 14 11 15 29 31
  21226136.264   -24384092.815 9 -18988652.96647  21226135.342    21226142.2114
  22418928.373   -17195913.993 8 -12954865.99746  22418927.839    22418935.7254
  24425832.161    -4952611.047 7  -3842028.98445  24425831.149    24425840.8804
  24033647.399    -7887889.819 8  -6107379.97845  24033646.623    24033656.8694
  20408505.680   -24343329.742 9 -18682558.50548  20408504.836    20408509.9054
  23232896.035   -13395770.977 8 -10421964.61446  23232895.291    23232903.0114
  24323895.131    -6845007.222 8  -5316286.10745  24323894.028    24323904.8694
  20360847.786   -23202049.293 9 -18037227.25648  20360847.229    20360853.0524
  23428121.766    -7567168.402 8  -5868360.28146  23428120.669    23428129.4404
 01  4 23  3  4 30.0000000  0  9 21 25 23 03 14 11 15 29 31
  21229513.179   -24366346.805 9 -18974824.89447  21229512.285    21229519.1444
  22402308.475   -17283251.824 8 -13022921.34946  22402307.905    22402315.7654
  24437718.811    -4890146.952 8  -3793355.71745  24437717.859    24437727.6034
  24049671.595    -7803682.206 8  -6041763.73245  24049670.829    24049681.0654
  20413925.134   -24314850.263 9 -18660366.68448  20413924.304    20413929.3524
  23215766.732   -13485785.848 8 -10492105.95546  23215765.980    23215773.6554
  24344887.636    -6734692.583 8  -5230326.79745  24344886.365    24344897.2274
  20364066.890   -23185132.763 9 -18024045.52148  20364066.320    20364072.1414
  23439026.821    -7509861.981 8  -5823705.94446  23439025.800    23439034.5184
 01  4 23  3  5  0.0000000  0  9 21 25 23 03 14 11 15 29 31
  21232927.773   -24348403.115 9 -18960842.79547  21232926.881    21232933.7174
  22385736.361   -17370338.600 8 -13090781.08546  22385735.768    22385743.5954
  24449622.736    -4827591.559 7  -3744611.32745  24449621.690    24449631.6784
  24065702.320    -7719440.604 8  -5976121.00145  24065701.561    24065711.7444
  20419415.244   -24285999.624 9 -18637885.65548  20419414.394    20419419.4444
  23198683.669   -13575557.649 8 -10562057.90446  23198682.926    23198690.5474
  24365904.891    -6624246.287 8  -5144264.92845  24365903.785    24365914.5714
  20367351.781   -23167870.294 9 -18010594.23348  20367351.236    20367357.0374
  23449994.228    -7452228.088 8  -5778796.45046  23449993.217    23450001.8544
